<?xml version="1.0" encoding="UTF-8" standalone="no" ?>
<gpx xmlns="http://www.topografix.com/GPX/1/1" xmlns:xsi="http://www.w3.org/2001/XMLSchema-instance" xsi:schemaLocation="http://www.topografix.com/GPX/1/1 http://www.topografix.com/GPX/1/1/gpx.xsd" version="1.1" creator="VisuGPX - https://www.visugpx.com">
  <metadata>
    <name>lundi 2016 05 16</name>
    <desc><![CDATA[rando du lundi]]></desc>
  </metadata>
  <trk>
    <name><![CDATA[lundi 2016 05 16]]></name>
    <trkseg>
      <trkpt lat="48.85745" lon="2.34723">
        <ele>40.400001525879</ele>
        <time>2016-05-16T18:21:22.000Z</time>
      </trkpt>
      <trkpt lat="48.85739" lon="2.347">
        <ele>39.799999237061</ele>
        <time>2016-05-16T18:21:35.000Z</time>
      </trkpt>
      <trkpt lat="48.85726" lon="2.34692">
        <ele>40.200000762939</ele>
        <time>2016-05-16T18:21:41.000Z</time>
      </trkpt>
      <trkpt lat="48.85707" lon="2.34685">
        <ele>40.799999237061</ele>
        <time>2016-05-16T18:21:47.000Z</time>
      </trkpt>
      <trkpt lat="48.85687" lon="2.34674">
        <ele>41.200000762939</ele>
        <time>2016-05-16T18:21:53.000Z</time>
      </trkpt>
      <trkpt lat="48.85669" lon="2.34663">
        <ele>42.599998474121</ele>
        <time>2016-05-16T18:21:59.000Z</time>
      </trkpt>
      <trkpt lat="48.85651" lon="2.34651">
        <ele>44.200000762939</ele>
        <time>2016-05-16T18:22:05.000Z</time>
      </trkpt>
      <trkpt lat="48.85634" lon="2.34639">
        <ele>45.599998474121</ele>
        <time>2016-05-16T18:22:12.000Z</time>
      </trkpt>
      <trkpt lat="48.85632" lon="2.34636">
        <ele>45.799999237061</ele>
        <time>2016-05-16T18:22:15.000Z</time>
      </trkpt>
      <trkpt lat="48.85616" lon="2.34633">
        <ele>47.200000762939</ele>
        <time>2016-05-16T18:22:31.000Z</time>
      </trkpt>
      <trkpt lat="48.85597" lon="2.3462">
        <ele>47.799999237061</ele>
        <time>2016-05-16T18:22:36.000Z</time>
      </trkpt>
      <trkpt lat="48.85578" lon="2.34609">
        <ele>47.599998474121</ele>
        <time>2016-05-16T18:22:41.000Z</time>
      </trkpt>
      <trkpt lat="48.85559" lon="2.34591">
        <ele>47.400001525879</ele>
        <time>2016-05-16T18:22:46.000Z</time>
      </trkpt>
      <trkpt lat="48.85538" lon="2.34577">
        <ele>47</ele>
        <time>2016-05-16T18:22:50.000Z</time>
      </trkpt>
      <trkpt lat="48.85518" lon="2.34561">
        <ele>46.200000762939</ele>
        <time>2016-05-16T18:22:54.000Z</time>
      </trkpt>
      <trkpt lat="48.85497" lon="2.34546">
        <ele>44.799999237061</ele>
        <time>2016-05-16T18:22:58.000Z</time>
      </trkpt>
      <trkpt lat="48.85478" lon="2.34529">
        <ele>43.599998474121</ele>
        <time>2016-05-16T18:23:02.000Z</time>
      </trkpt>
      <trkpt lat="48.8546" lon="2.3451">
        <ele>42.200000762939</ele>
        <time>2016-05-16T18:23:07.000Z</time>
      </trkpt>
      <trkpt lat="48.85441" lon="2.345">
        <ele>41.200000762939</ele>
        <time>2016-05-16T18:23:11.000Z</time>
      </trkpt>
      <trkpt lat="48.85423" lon="2.34484">
        <ele>41.599998474121</ele>
        <time>2016-05-16T18:23:16.000Z</time>
      </trkpt>
      <trkpt lat="48.85406" lon="2.34466">
        <ele>42.200000762939</ele>
        <time>2016-05-16T18:23:22.000Z</time>
      </trkpt>
      <trkpt lat="48.85397" lon="2.34457">
        <ele>42.599998474121</ele>
        <time>2016-05-16T18:23:26.000Z</time>
      </trkpt>
      <trkpt lat="48.85388" lon="2.34439">
        <ele>42.599998474121</ele>
        <time>2016-05-16T18:23:32.000Z</time>
      </trkpt>
      <trkpt lat="48.85397" lon="2.34414">
        <ele>41</ele>
        <time>2016-05-16T18:23:37.000Z</time>
      </trkpt>
      <trkpt lat="48.85413" lon="2.34389">
        <ele>40.799999237061</ele>
        <time>2016-05-16T18:23:42.000Z</time>
      </trkpt>
      <trkpt lat="48.85426" lon="2.34365">
        <ele>40.400001525879</ele>
        <time>2016-05-16T18:23:46.000Z</time>
      </trkpt>
      <trkpt lat="48.85441" lon="2.34342">
        <ele>39.799999237061</ele>
        <time>2016-05-16T18:23:50.000Z</time>
      </trkpt>
      <trkpt lat="48.85454" lon="2.3432">
        <ele>40.200000762939</ele>
        <time>2016-05-16T18:23:54.000Z</time>
      </trkpt>
      <trkpt lat="48.85463" lon="2.34289">
        <ele>41.200000762939</ele>
        <time>2016-05-16T18:23:59.000Z</time>
      </trkpt>
      <trkpt lat="48.85476" lon="2.34261">
        <ele>41.200000762939</ele>
        <time>2016-05-16T18:24:04.000Z</time>
      </trkpt>
      <trkpt lat="48.85491" lon="2.34235">
        <ele>41</ele>
        <time>2016-05-16T18:24:09.000Z</time>
      </trkpt>
      <trkpt lat="48.85506" lon="2.34211">
        <ele>40.400001525879</ele>
        <time>2016-05-16T18:24:14.000Z</time>
      </trkpt>
      <trkpt lat="48.85518" lon="2.34191">
        <ele>39.400001525879</ele>
        <time>2016-05-16T18:24:18.000Z</time>
      </trkpt>
      <trkpt lat="48.85533" lon="2.34172">
        <ele>39.599998474121</ele>
        <time>2016-05-16T18:24:22.000Z</time>
      </trkpt>
      <trkpt lat="48.85546" lon="2.34153">
        <ele>42.799999237061</ele>
        <time>2016-05-16T18:24:26.000Z</time>
      </trkpt>
      <trkpt lat="48.85562" lon="2.3413">
        <ele>46.200000762939</ele>
        <time>2016-05-16T18:24:31.000Z</time>
      </trkpt>
      <trkpt lat="48.85578" lon="2.34107">
        <ele>45.599998474121</ele>
        <time>2016-05-16T18:24:36.000Z</time>
      </trkpt>
      <trkpt lat="48.85592" lon="2.34088">
        <ele>43.799999237061</ele>
        <time>2016-05-16T18:24:40.000Z</time>
      </trkpt>
      <trkpt lat="48.85607" lon="2.34065">
        <ele>43.799999237061</ele>
        <time>2016-05-16T18:24:46.000Z</time>
      </trkpt>
      <trkpt lat="48.85621" lon="2.34047">
        <ele>44.200000762939</ele>
        <time>2016-05-16T18:24:53.000Z</time>
      </trkpt>
      <trkpt lat="48.85627" lon="2.34037">
        <ele>44.599998474121</ele>
        <time>2016-05-16T18:24:58.000Z</time>
      </trkpt>
      <trkpt lat="48.85636" lon="2.34022">
        <ele>44.400001525879</ele>
        <time>2016-05-16T18:25:02.000Z</time>
      </trkpt>
      <trkpt lat="48.85653" lon="2.34001">
        <ele>40</ele>
        <time>2016-05-16T18:25:07.000Z</time>
      </trkpt>
      <trkpt lat="48.85668" lon="2.33978">
        <ele>36.599998474121</ele>
        <time>2016-05-16T18:25:12.000Z</time>
      </trkpt>
      <trkpt lat="48.8568" lon="2.33957">
        <ele>36.799999237061</ele>
        <time>2016-05-16T18:25:16.000Z</time>
      </trkpt>
      <trkpt lat="48.85692" lon="2.33935">
        <ele>37.200000762939</ele>
        <time>2016-05-16T18:25:20.000Z</time>
      </trkpt>
      <trkpt lat="48.85706" lon="2.33917">
        <ele>36</ele>
        <time>2016-05-16T18:25:24.000Z</time>
      </trkpt>
      <trkpt lat="48.85721" lon="2.33896">
        <ele>33.599998474121</ele>
        <time>2016-05-16T18:25:28.000Z</time>
      </trkpt>
      <trkpt lat="48.85738" lon="2.33872">
        <ele>31.60000038147</ele>
        <time>2016-05-16T18:25:32.000Z</time>
      </trkpt>
      <trkpt lat="48.85754" lon="2.33846">
        <ele>32.400001525879</ele>
        <time>2016-05-16T18:25:36.000Z</time>
      </trkpt>
      <trkpt lat="48.85769" lon="2.33819">
        <ele>32.799999237061</ele>
        <time>2016-05-16T18:25:40.000Z</time>
      </trkpt>
      <trkpt lat="48.85773" lon="2.33809">
        <ele>32.799999237061</ele>
        <time>2016-05-16T18:25:41.000Z</time>
      </trkpt>
      <trkpt lat="48.85782" lon="2.33778">
        <ele>33.799999237061</ele>
        <time>2016-05-16T18:25:45.000Z</time>
      </trkpt>
      <trkpt lat="48.85789" lon="2.33748">
        <ele>33.799999237061</ele>
        <time>2016-05-16T18:25:49.000Z</time>
      </trkpt>
      <trkpt lat="48.85795" lon="2.3372">
        <ele>33.400001525879</ele>
        <time>2016-05-16T18:25:53.000Z</time>
      </trkpt>
      <trkpt lat="48.858" lon="2.33689">
        <ele>32.799999237061</ele>
        <time>2016-05-16T18:25:57.000Z</time>
      </trkpt>
      <trkpt lat="48.85804" lon="2.33659">
        <ele>29</ele>
        <time>2016-05-16T18:26:01.000Z</time>
      </trkpt>
      <trkpt lat="48.85805" lon="2.33652">
        <ele>29.200000762939</ele>
        <time>2016-05-16T18:26:02.000Z</time>
      </trkpt>
      <trkpt lat="48.85807" lon="2.33637">
        <ele>29.799999237061</ele>
        <time>2016-05-16T18:26:04.000Z</time>
      </trkpt>
      <trkpt lat="48.85808" lon="2.33606">
        <ele>30.799999237061</ele>
        <time>2016-05-16T18:26:08.000Z</time>
      </trkpt>
      <trkpt lat="48.85807" lon="2.33577">
        <ele>29.60000038147</ele>
        <time>2016-05-16T18:26:12.000Z</time>
      </trkpt>
      <trkpt lat="48.85806" lon="2.33549">
        <ele>30.39999961853</ele>
        <time>2016-05-16T18:26:16.000Z</time>
      </trkpt>
      <trkpt lat="48.85808" lon="2.3352">
        <ele>34.799999237061</ele>
        <time>2016-05-16T18:26:20.000Z</time>
      </trkpt>
      <trkpt lat="48.85813" lon="2.33491">
        <ele>43</ele>
        <time>2016-05-16T18:26:24.000Z</time>
      </trkpt>
      <trkpt lat="48.8582" lon="2.33466">
        <ele>43.400001525879</ele>
        <time>2016-05-16T18:26:28.000Z</time>
      </trkpt>
      <trkpt lat="48.85822" lon="2.33459">
        <ele>43.599998474121</ele>
        <time>2016-05-16T18:26:29.000Z</time>
      </trkpt>
      <trkpt lat="48.85828" lon="2.33432">
        <ele>45.200000762939</ele>
        <time>2016-05-16T18:26:33.000Z</time>
      </trkpt>
      <trkpt lat="48.85836" lon="2.33405">
        <ele>46.400001525879</ele>
        <time>2016-05-16T18:26:37.000Z</time>
      </trkpt>
      <trkpt lat="48.85845" lon="2.33377">
        <ele>45.599998474121</ele>
        <time>2016-05-16T18:26:41.000Z</time>
      </trkpt>
      <trkpt lat="48.85854" lon="2.33349">
        <ele>44</ele>
        <time>2016-05-16T18:26:45.000Z</time>
      </trkpt>
      <trkpt lat="48.85862" lon="2.33319">
        <ele>43</ele>
        <time>2016-05-16T18:26:50.000Z</time>
      </trkpt>
      <trkpt lat="48.8587" lon="2.33298">
        <ele>42.799999237061</ele>
        <time>2016-05-16T18:26:55.000Z</time>
      </trkpt>
      <trkpt lat="48.85868" lon="2.33288">
        <ele>42.599998474121</ele>
        <time>2016-05-16T18:26:58.000Z</time>
      </trkpt>
      <trkpt lat="48.85869" lon="2.3327">
        <ele>42.400001525879</ele>
        <time>2016-05-16T18:27:16.000Z</time>
      </trkpt>
      <trkpt lat="48.85873" lon="2.33256">
        <ele>41.400001525879</ele>
        <time>2016-05-16T18:27:25.000Z</time>
      </trkpt>
      <trkpt lat="48.85873" lon="2.33246">
        <ele>40.400001525879</ele>
        <time>2016-05-16T18:27:30.000Z</time>
      </trkpt>
      <trkpt lat="48.85875" lon="2.33219">
        <ele>40.799999237061</ele>
        <time>2016-05-16T18:27:36.000Z</time>
      </trkpt>
      <trkpt lat="48.85882" lon="2.33193">
        <ele>40.799999237061</ele>
        <time>2016-05-16T18:27:40.000Z</time>
      </trkpt>
      <trkpt lat="48.8589" lon="2.33168">
        <ele>39.599998474121</ele>
        <time>2016-05-16T18:27:44.000Z</time>
      </trkpt>
      <trkpt lat="48.85899" lon="2.33141">
        <ele>39.400001525879</ele>
        <time>2016-05-16T18:27:48.000Z</time>
      </trkpt>
      <trkpt lat="48.85911" lon="2.33111">
        <ele>39.599998474121</ele>
        <time>2016-05-16T18:27:52.000Z</time>
      </trkpt>
      <trkpt lat="48.85921" lon="2.33081">
        <ele>40.200000762939</ele>
        <time>2016-05-16T18:27:56.000Z</time>
      </trkpt>
      <trkpt lat="48.85931" lon="2.33053">
        <ele>39.400001525879</ele>
        <time>2016-05-16T18:28:00.000Z</time>
      </trkpt>
      <trkpt lat="48.85939" lon="2.33026">
        <ele>39.400001525879</ele>
        <time>2016-05-16T18:28:04.000Z</time>
      </trkpt>
      <trkpt lat="48.85949" lon="2.32996">
        <ele>40</ele>
        <time>2016-05-16T18:28:09.000Z</time>
      </trkpt>
      <trkpt lat="48.85957" lon="2.32968">
        <ele>41.400001525879</ele>
        <time>2016-05-16T18:28:14.000Z</time>
      </trkpt>
      <trkpt lat="48.8596" lon="2.32956">
        <ele>42</ele>
        <time>2016-05-16T18:28:16.000Z</time>
      </trkpt>
      <trkpt lat="48.85969" lon="2.32929">
        <ele>42.400001525879</ele>
        <time>2016-05-16T18:28:21.000Z</time>
      </trkpt>
      <trkpt lat="48.85975" lon="2.3291">
        <ele>42</ele>
        <time>2016-05-16T18:28:24.000Z</time>
      </trkpt>
      <trkpt lat="48.85985" lon="2.32884">
        <ele>42.400001525879</ele>
        <time>2016-05-16T18:28:28.000Z</time>
      </trkpt>
      <trkpt lat="48.85994" lon="2.32857">
        <ele>40.799999237061</ele>
        <time>2016-05-16T18:28:32.000Z</time>
      </trkpt>
      <trkpt lat="48.85998" lon="2.32847">
        <ele>39.799999237061</ele>
        <time>2016-05-16T18:28:34.000Z</time>
      </trkpt>
      <trkpt lat="48.86003" lon="2.32838">
        <ele>39</ele>
        <time>2016-05-16T18:28:36.000Z</time>
      </trkpt>
      <trkpt lat="48.86013" lon="2.32815">
        <ele>37.799999237061</ele>
        <time>2016-05-16T18:28:42.000Z</time>
      </trkpt>
      <trkpt lat="48.86016" lon="2.32808">
        <ele>38</ele>
        <time>2016-05-16T18:28:45.000Z</time>
      </trkpt>
      <trkpt lat="48.86024" lon="2.32779">
        <ele>39</ele>
        <time>2016-05-16T18:29:04.000Z</time>
      </trkpt>
      <trkpt lat="48.86036" lon="2.32755">
        <ele>38.599998474121</ele>
        <time>2016-05-16T18:29:08.000Z</time>
      </trkpt>
      <trkpt lat="48.86048" lon="2.32731">
        <ele>38.200000762939</ele>
        <time>2016-05-16T18:29:11.000Z</time>
      </trkpt>
      <trkpt lat="48.86058" lon="2.32704">
        <ele>38.799999237061</ele>
        <time>2016-05-16T18:29:14.000Z</time>
      </trkpt>
      <trkpt lat="48.86068" lon="2.32674">
        <ele>37.400001525879</ele>
        <time>2016-05-16T18:29:18.000Z</time>
      </trkpt>
      <trkpt lat="48.86072" lon="2.3266">
        <ele>36.799999237061</ele>
        <time>2016-05-16T18:29:20.000Z</time>
      </trkpt>
      <trkpt lat="48.86077" lon="2.32643">
        <ele>35.400001525879</ele>
        <time>2016-05-16T18:29:23.000Z</time>
      </trkpt>
      <trkpt lat="48.8609" lon="2.32623">
        <ele>33</ele>
        <time>2016-05-16T18:29:27.000Z</time>
      </trkpt>
      <trkpt lat="48.86098" lon="2.32607">
        <ele>31.799999237061</ele>
        <time>2016-05-16T18:29:31.000Z</time>
      </trkpt>
      <trkpt lat="48.86104" lon="2.32595">
        <ele>31</ele>
        <time>2016-05-16T18:29:35.000Z</time>
      </trkpt>
      <trkpt lat="48.86106" lon="2.32582">
        <ele>31</ele>
        <time>2016-05-16T18:29:39.000Z</time>
      </trkpt>
      <trkpt lat="48.86112" lon="2.32563">
        <ele>31.799999237061</ele>
        <time>2016-05-16T18:29:46.000Z</time>
      </trkpt>
      <trkpt lat="48.86118" lon="2.32532">
        <ele>33.200000762939</ele>
        <time>2016-05-16T18:29:54.000Z</time>
      </trkpt>
      <trkpt lat="48.86115" lon="2.32506">
        <ele>34.400001525879</ele>
        <time>2016-05-16T18:29:59.000Z</time>
      </trkpt>
      <trkpt lat="48.86124" lon="2.32476">
        <ele>34.599998474121</ele>
        <time>2016-05-16T18:30:04.000Z</time>
      </trkpt>
      <trkpt lat="48.86132" lon="2.32451">
        <ele>34.799999237061</ele>
        <time>2016-05-16T18:30:09.000Z</time>
      </trkpt>
      <trkpt lat="48.8614" lon="2.32425">
        <ele>33.799999237061</ele>
        <time>2016-05-16T18:30:15.000Z</time>
      </trkpt>
      <trkpt lat="48.86146" lon="2.32395">
        <ele>34</ele>
        <time>2016-05-16T18:30:20.000Z</time>
      </trkpt>
      <trkpt lat="48.86153" lon="2.32364">
        <ele>34.799999237061</ele>
        <time>2016-05-16T18:30:25.000Z</time>
      </trkpt>
      <trkpt lat="48.86162" lon="2.32334">
        <ele>34.599998474121</ele>
        <time>2016-05-16T18:30:30.000Z</time>
      </trkpt>
      <trkpt lat="48.86169" lon="2.32302">
        <ele>33</ele>
        <time>2016-05-16T18:30:35.000Z</time>
      </trkpt>
      <trkpt lat="48.86177" lon="2.32274">
        <ele>33.200000762939</ele>
        <time>2016-05-16T18:30:39.000Z</time>
      </trkpt>
      <trkpt lat="48.86184" lon="2.32246">
        <ele>33.400001525879</ele>
        <time>2016-05-16T18:30:43.000Z</time>
      </trkpt>
      <trkpt lat="48.86194" lon="2.32217">
        <ele>35</ele>
        <time>2016-05-16T18:30:47.000Z</time>
      </trkpt>
      <trkpt lat="48.86202" lon="2.32189">
        <ele>36.599998474121</ele>
        <time>2016-05-16T18:30:51.000Z</time>
      </trkpt>
      <trkpt lat="48.86211" lon="2.32161">
        <ele>36.200000762939</ele>
        <time>2016-05-16T18:30:55.000Z</time>
      </trkpt>
      <trkpt lat="48.86225" lon="2.32132">
        <ele>36.200000762939</ele>
        <time>2016-05-16T18:30:59.000Z</time>
      </trkpt>
      <trkpt lat="48.86227" lon="2.32124">
        <ele>36.400001525879</ele>
        <time>2016-05-16T18:31:00.000Z</time>
      </trkpt>
      <trkpt lat="48.86233" lon="2.32092">
        <ele>37.200000762939</ele>
        <time>2016-05-16T18:31:04.000Z</time>
      </trkpt>
      <trkpt lat="48.8624" lon="2.32071">
        <ele>36.200000762939</ele>
        <time>2016-05-16T18:31:07.000Z</time>
      </trkpt>
      <trkpt lat="48.86249" lon="2.32046">
        <ele>34.400001525879</ele>
        <time>2016-05-16T18:31:11.000Z</time>
      </trkpt>
      <trkpt lat="48.86257" lon="2.32019">
        <ele>33.200000762939</ele>
        <time>2016-05-16T18:31:15.000Z</time>
      </trkpt>
      <trkpt lat="48.86266" lon="2.3199">
        <ele>31.60000038147</ele>
        <time>2016-05-16T18:31:19.000Z</time>
      </trkpt>
      <trkpt lat="48.86275" lon="2.31962">
        <ele>31.799999237061</ele>
        <time>2016-05-16T18:31:23.000Z</time>
      </trkpt>
      <trkpt lat="48.86283" lon="2.31933">
        <ele>32.200000762939</ele>
        <time>2016-05-16T18:31:27.000Z</time>
      </trkpt>
      <trkpt lat="48.86293" lon="2.319">
        <ele>31.200000762939</ele>
        <time>2016-05-16T18:31:31.000Z</time>
      </trkpt>
      <trkpt lat="48.86299" lon="2.31871">
        <ele>30.200000762939</ele>
        <time>2016-05-16T18:31:35.000Z</time>
      </trkpt>
      <trkpt lat="48.86304" lon="2.31844">
        <ele>33.599998474121</ele>
        <time>2016-05-16T18:31:39.000Z</time>
      </trkpt>
      <trkpt lat="48.86312" lon="2.31813">
        <ele>38.799999237061</ele>
        <time>2016-05-16T18:31:44.000Z</time>
      </trkpt>
      <trkpt lat="48.86314" lon="2.31806">
        <ele>39.599998474121</ele>
        <time>2016-05-16T18:31:45.000Z</time>
      </trkpt>
      <trkpt lat="48.86319" lon="2.31787">
        <ele>42</ele>
        <time>2016-05-16T18:31:48.000Z</time>
      </trkpt>
      <trkpt lat="48.86322" lon="2.31759">
        <ele>46</ele>
        <time>2016-05-16T18:31:52.000Z</time>
      </trkpt>
      <trkpt lat="48.86322" lon="2.31746">
        <ele>47.400001525879</ele>
        <time>2016-05-16T18:31:54.000Z</time>
      </trkpt>
      <trkpt lat="48.86321" lon="2.31717">
        <ele>46.200000762939</ele>
        <time>2016-05-16T18:31:58.000Z</time>
      </trkpt>
      <trkpt lat="48.8632" lon="2.31688">
        <ele>35</ele>
        <time>2016-05-16T18:32:02.000Z</time>
      </trkpt>
      <trkpt lat="48.86319" lon="2.31658">
        <ele>24.200000762939</ele>
        <time>2016-05-16T18:32:06.000Z</time>
      </trkpt>
      <trkpt lat="48.86319" lon="2.31627">
        <ele>26.200000762939</ele>
        <time>2016-05-16T18:32:10.000Z</time>
      </trkpt>
      <trkpt lat="48.86317" lon="2.31599">
        <ele>28.200000762939</ele>
        <time>2016-05-16T18:32:14.000Z</time>
      </trkpt>
      <trkpt lat="48.86316" lon="2.31571">
        <ele>29</ele>
        <time>2016-05-16T18:32:18.000Z</time>
      </trkpt>
      <trkpt lat="48.86316" lon="2.31556">
        <ele>28.200000762939</ele>
        <time>2016-05-16T18:32:20.000Z</time>
      </trkpt>
      <trkpt lat="48.86316" lon="2.31524">
        <ele>29.799999237061</ele>
        <time>2016-05-16T18:32:24.000Z</time>
      </trkpt>
      <trkpt lat="48.86315" lon="2.31496">
        <ele>34.400001525879</ele>
        <time>2016-05-16T18:32:28.000Z</time>
      </trkpt>
      <trkpt lat="48.86316" lon="2.31483">
        <ele>33.400001525879</ele>
        <time>2016-05-16T18:32:30.000Z</time>
      </trkpt>
      <trkpt lat="48.86316" lon="2.31453">
        <ele>31.799999237061</ele>
        <time>2016-05-16T18:32:35.000Z</time>
      </trkpt>
      <trkpt lat="48.86315" lon="2.31435">
        <ele>32.599998474121</ele>
        <time>2016-05-16T18:32:38.000Z</time>
      </trkpt>
      <trkpt lat="48.86317" lon="2.31406">
        <ele>34</ele>
        <time>2016-05-16T18:32:43.000Z</time>
      </trkpt>
      <trkpt lat="48.86317" lon="2.31387">
        <ele>35</ele>
        <time>2016-05-16T18:32:46.000Z</time>
      </trkpt>
      <trkpt lat="48.86316" lon="2.31357">
        <ele>34.400001525879</ele>
        <time>2016-05-16T18:32:51.000Z</time>
      </trkpt>
      <trkpt lat="48.86315" lon="2.31326">
        <ele>32.400001525879</ele>
        <time>2016-05-16T18:32:55.000Z</time>
      </trkpt>
      <trkpt lat="48.86313" lon="2.31294">
        <ele>32.599998474121</ele>
        <time>2016-05-16T18:32:59.000Z</time>
      </trkpt>
      <trkpt lat="48.86313" lon="2.31259">
        <ele>31.799999237061</ele>
        <time>2016-05-16T18:33:03.000Z</time>
      </trkpt>
      <trkpt lat="48.86312" lon="2.31224">
        <ele>31.799999237061</ele>
        <time>2016-05-16T18:33:07.000Z</time>
      </trkpt>
      <trkpt lat="48.86311" lon="2.31202">
        <ele>32.200000762939</ele>
        <time>2016-05-16T18:33:10.000Z</time>
      </trkpt>
      <trkpt lat="48.8631" lon="2.31172">
        <ele>31.799999237061</ele>
        <time>2016-05-16T18:33:14.000Z</time>
      </trkpt>
      <trkpt lat="48.86309" lon="2.3114">
        <ele>33.200000762939</ele>
        <time>2016-05-16T18:33:18.000Z</time>
      </trkpt>
      <trkpt lat="48.86306" lon="2.31108">
        <ele>35</ele>
        <time>2016-05-16T18:33:22.000Z</time>
      </trkpt>
      <trkpt lat="48.86305" lon="2.31073">
        <ele>35.599998474121</ele>
        <time>2016-05-16T18:33:26.000Z</time>
      </trkpt>
      <trkpt lat="48.86305" lon="2.31044">
        <ele>37.200000762939</ele>
        <time>2016-05-16T18:33:29.000Z</time>
      </trkpt>
      <trkpt lat="48.86304" lon="2.31014">
        <ele>37.599998474121</ele>
        <time>2016-05-16T18:33:32.000Z</time>
      </trkpt>
      <trkpt lat="48.86305" lon="2.30983">
        <ele>37</ele>
        <time>2016-05-16T18:33:35.000Z</time>
      </trkpt>
      <trkpt lat="48.86304" lon="2.30954">
        <ele>37.799999237061</ele>
        <time>2016-05-16T18:33:38.000Z</time>
      </trkpt>
      <trkpt lat="48.86304" lon="2.30925">
        <ele>40</ele>
        <time>2016-05-16T18:33:41.000Z</time>
      </trkpt>
      <trkpt lat="48.86305" lon="2.30897">
        <ele>40.200000762939</ele>
        <time>2016-05-16T18:33:44.000Z</time>
      </trkpt>
      <trkpt lat="48.86305" lon="2.30867">
        <ele>38.799999237061</ele>
        <time>2016-05-16T18:33:47.000Z</time>
      </trkpt>
      <trkpt lat="48.86303" lon="2.30838">
        <ele>38.400001525879</ele>
        <time>2016-05-16T18:33:50.000Z</time>
      </trkpt>
      <trkpt lat="48.86302" lon="2.30809">
        <ele>37.200000762939</ele>
        <time>2016-05-16T18:33:53.000Z</time>
      </trkpt>
      <trkpt lat="48.86299" lon="2.3078">
        <ele>35.799999237061</ele>
        <time>2016-05-16T18:33:56.000Z</time>
      </trkpt>
      <trkpt lat="48.86299" lon="2.3077">
        <ele>35.799999237061</ele>
        <time>2016-05-16T18:33:57.000Z</time>
      </trkpt>
      <trkpt lat="48.86298" lon="2.30742">
        <ele>37.599998474121</ele>
        <time>2016-05-16T18:34:00.000Z</time>
      </trkpt>
      <trkpt lat="48.86295" lon="2.30708">
        <ele>37</ele>
        <time>2016-05-16T18:34:04.000Z</time>
      </trkpt>
      <trkpt lat="48.86294" lon="2.30674">
        <ele>35.799999237061</ele>
        <time>2016-05-16T18:34:08.000Z</time>
      </trkpt>
      <trkpt lat="48.86292" lon="2.3064">
        <ele>34.799999237061</ele>
        <time>2016-05-16T18:34:12.000Z</time>
      </trkpt>
      <trkpt lat="48.86292" lon="2.30618">
        <ele>34.799999237061</ele>
        <time>2016-05-16T18:34:15.000Z</time>
      </trkpt>
      <trkpt lat="48.86293" lon="2.30599">
        <ele>34.799999237061</ele>
        <time>2016-05-16T18:34:18.000Z</time>
      </trkpt>
      <trkpt lat="48.86294" lon="2.30582">
        <ele>33</ele>
        <time>2016-05-16T18:34:22.000Z</time>
      </trkpt>
      <trkpt lat="48.86291" lon="2.30569">
        <ele>33.599998474121</ele>
        <time>2016-05-16T18:34:26.000Z</time>
      </trkpt>
      <trkpt lat="48.86288" lon="2.30561">
        <ele>34.200000762939</ele>
        <time>2016-05-16T18:34:29.000Z</time>
      </trkpt>
      <trkpt lat="48.86288" lon="2.30541">
        <ele>34.799999237061</ele>
        <time>2016-05-16T18:34:34.000Z</time>
      </trkpt>
      <trkpt lat="48.86288" lon="2.30529">
        <ele>35</ele>
        <time>2016-05-16T18:34:37.000Z</time>
      </trkpt>
      <trkpt lat="48.86288" lon="2.30518">
        <ele>35.200000762939</ele>
        <time>2016-05-16T18:34:40.000Z</time>
      </trkpt>
      <trkpt lat="48.86288" lon="2.30499">
        <ele>35.400001525879</ele>
        <time>2016-05-16T18:34:45.000Z</time>
      </trkpt>
      <trkpt lat="48.86288" lon="2.30489">
        <ele>36.200000762939</ele>
        <time>2016-05-16T18:34:47.000Z</time>
      </trkpt>
      <trkpt lat="48.86285" lon="2.30457">
        <ele>39.799999237061</ele>
        <time>2016-05-16T18:34:53.000Z</time>
      </trkpt>
      <trkpt lat="48.86283" lon="2.30426">
        <ele>43</ele>
        <time>2016-05-16T18:34:58.000Z</time>
      </trkpt>
      <trkpt lat="48.8628" lon="2.30395">
        <ele>43.599998474121</ele>
        <time>2016-05-16T18:35:03.000Z</time>
      </trkpt>
      <trkpt lat="48.86276" lon="2.30367">
        <ele>43.599998474121</ele>
        <time>2016-05-16T18:35:11.000Z</time>
      </trkpt>
      <trkpt lat="48.86273" lon="2.30354">
        <ele>43.799999237061</ele>
        <time>2016-05-16T18:35:18.000Z</time>
      </trkpt>
      <trkpt lat="48.86264" lon="2.30331">
        <ele>43</ele>
        <time>2016-05-16T18:35:32.000Z</time>
      </trkpt>
      <trkpt lat="48.86258" lon="2.30329">
        <ele>43</ele>
        <time>2016-05-16T18:36:08.000Z</time>
      </trkpt>
      <trkpt lat="48.86256" lon="2.30335">
        <ele>43.200000762939</ele>
        <time>2016-05-16T18:36:16.000Z</time>
      </trkpt>
      <trkpt lat="48.86258" lon="2.30339">
        <ele>43.400001525879</ele>
        <time>2016-05-16T18:37:00.000Z</time>
      </trkpt>
      <trkpt lat="48.86254" lon="2.30306">
        <ele>43.200000762939</ele>
        <time>2016-05-16T18:37:08.000Z</time>
      </trkpt>
      <trkpt lat="48.86256" lon="2.30276">
        <ele>41.599998474121</ele>
        <time>2016-05-16T18:37:13.000Z</time>
      </trkpt>
      <trkpt lat="48.86257" lon="2.30244">
        <ele>40</ele>
        <time>2016-05-16T18:37:18.000Z</time>
      </trkpt>
      <trkpt lat="48.86261" lon="2.30218">
        <ele>38.200000762939</ele>
        <time>2016-05-16T18:37:26.000Z</time>
      </trkpt>
      <trkpt lat="48.86261" lon="2.30216">
        <ele>38.200000762939</ele>
        <time>2016-05-16T18:37:27.000Z</time>
      </trkpt>
      <trkpt lat="48.86259" lon="2.30214">
        <ele>38.200000762939</ele>
        <time>2016-05-16T18:37:31.000Z</time>
      </trkpt>
      <trkpt lat="48.86257" lon="2.30197">
        <ele>37.400001525879</ele>
        <time>2016-05-16T18:37:58.000Z</time>
      </trkpt>
      <trkpt lat="48.86255" lon="2.30169">
        <ele>35.799999237061</ele>
        <time>2016-05-16T18:38:04.000Z</time>
      </trkpt>
      <trkpt lat="48.8625" lon="2.30139">
        <ele>35.400001525879</ele>
        <time>2016-05-16T18:38:10.000Z</time>
      </trkpt>
      <trkpt lat="48.8625" lon="2.30107">
        <ele>37.400001525879</ele>
        <time>2016-05-16T18:38:17.000Z</time>
      </trkpt>
      <trkpt lat="48.8625" lon="2.30079">
        <ele>39</ele>
        <time>2016-05-16T18:38:23.000Z</time>
      </trkpt>
      <trkpt lat="48.86249" lon="2.30049">
        <ele>38.200000762939</ele>
        <time>2016-05-16T18:38:29.000Z</time>
      </trkpt>
      <trkpt lat="48.86246" lon="2.30017">
        <ele>37</ele>
        <time>2016-05-16T18:38:35.000Z</time>
      </trkpt>
      <trkpt lat="48.86242" lon="2.29985">
        <ele>35.799999237061</ele>
        <time>2016-05-16T18:38:39.000Z</time>
      </trkpt>
      <trkpt lat="48.86234" lon="2.29954">
        <ele>34</ele>
        <time>2016-05-16T18:38:43.000Z</time>
      </trkpt>
      <trkpt lat="48.86227" lon="2.29925">
        <ele>31.200000762939</ele>
        <time>2016-05-16T18:38:47.000Z</time>
      </trkpt>
      <trkpt lat="48.8622" lon="2.29895">
        <ele>29.799999237061</ele>
        <time>2016-05-16T18:38:51.000Z</time>
      </trkpt>
      <trkpt lat="48.86212" lon="2.29864">
        <ele>29.39999961853</ele>
        <time>2016-05-16T18:38:55.000Z</time>
      </trkpt>
      <trkpt lat="48.86204" lon="2.29836">
        <ele>29.39999961853</ele>
        <time>2016-05-16T18:38:59.000Z</time>
      </trkpt>
      <trkpt lat="48.86199" lon="2.29822">
        <ele>29.799999237061</ele>
        <time>2016-05-16T18:39:01.000Z</time>
      </trkpt>
      <trkpt lat="48.86193" lon="2.29801">
        <ele>30.799999237061</ele>
        <time>2016-05-16T18:39:04.000Z</time>
      </trkpt>
      <trkpt lat="48.86185" lon="2.29774">
        <ele>32</ele>
        <time>2016-05-16T18:39:08.000Z</time>
      </trkpt>
      <trkpt lat="48.86183" lon="2.29768">
        <ele>32.200000762939</ele>
        <time>2016-05-16T18:39:09.000Z</time>
      </trkpt>
      <trkpt lat="48.86177" lon="2.29741">
        <ele>33</ele>
        <time>2016-05-16T18:39:14.000Z</time>
      </trkpt>
      <trkpt lat="48.86169" lon="2.29716">
        <ele>32.799999237061</ele>
        <time>2016-05-16T18:39:19.000Z</time>
      </trkpt>
      <trkpt lat="48.86161" lon="2.29691">
        <ele>32.599998474121</ele>
        <time>2016-05-16T18:39:24.000Z</time>
      </trkpt>
      <trkpt lat="48.86147" lon="2.29666">
        <ele>32.599998474121</ele>
        <time>2016-05-16T18:39:29.000Z</time>
      </trkpt>
      <trkpt lat="48.86138" lon="2.2965">
        <ele>33</ele>
        <time>2016-05-16T18:39:32.000Z</time>
      </trkpt>
      <trkpt lat="48.86124" lon="2.29629">
        <ele>33.599998474121</ele>
        <time>2016-05-16T18:39:36.000Z</time>
      </trkpt>
      <trkpt lat="48.8611" lon="2.29608">
        <ele>34.200000762939</ele>
        <time>2016-05-16T18:39:41.000Z</time>
      </trkpt>
      <trkpt lat="48.86095" lon="2.29586">
        <ele>35.599998474121</ele>
        <time>2016-05-16T18:39:46.000Z</time>
      </trkpt>
      <trkpt lat="48.86092" lon="2.29581">
        <ele>35.799999237061</ele>
        <time>2016-05-16T18:39:47.000Z</time>
      </trkpt>
      <trkpt lat="48.86083" lon="2.29569">
        <ele>36.200000762939</ele>
        <time>2016-05-16T18:39:50.000Z</time>
      </trkpt>
      <trkpt lat="48.86073" lon="2.2955">
        <ele>36.599998474121</ele>
        <time>2016-05-16T18:39:54.000Z</time>
      </trkpt>
      <trkpt lat="48.86057" lon="2.29527">
        <ele>37.200000762939</ele>
        <time>2016-05-16T18:40:00.000Z</time>
      </trkpt>
      <trkpt lat="48.8605" lon="2.29516">
        <ele>37.599998474121</ele>
        <time>2016-05-16T18:40:03.000Z</time>
      </trkpt>
      <trkpt lat="48.86034" lon="2.29497">
        <ele>38.200000762939</ele>
        <time>2016-05-16T18:40:10.000Z</time>
      </trkpt>
      <trkpt lat="48.8603" lon="2.2948">
        <ele>37.400001525879</ele>
        <time>2016-05-16T18:40:21.000Z</time>
      </trkpt>
      <trkpt lat="48.8603" lon="2.2948">
        <ele>37.400001525879</ele>
        <time>2016-05-16T18:40:22.000Z</time>
      </trkpt>
      <trkpt lat="48.86015" lon="2.29462">
        <ele>37.599998474121</ele>
        <time>2016-05-16T18:40:38.000Z</time>
      </trkpt>
      <trkpt lat="48.86002" lon="2.2944">
        <ele>37.599998474121</ele>
        <time>2016-05-16T18:40:45.000Z</time>
      </trkpt>
      <trkpt lat="48.85986" lon="2.29417">
        <ele>37.599998474121</ele>
        <time>2016-05-16T18:40:51.000Z</time>
      </trkpt>
      <trkpt lat="48.85971" lon="2.29394">
        <ele>38.200000762939</ele>
        <time>2016-05-16T18:40:57.000Z</time>
      </trkpt>
      <trkpt lat="48.85957" lon="2.29375">
        <ele>38.799999237061</ele>
        <time>2016-05-16T18:41:02.000Z</time>
      </trkpt>
      <trkpt lat="48.85941" lon="2.29357">
        <ele>39.799999237061</ele>
        <time>2016-05-16T18:41:07.000Z</time>
      </trkpt>
      <trkpt lat="48.85927" lon="2.29338">
        <ele>39.200000762939</ele>
        <time>2016-05-16T18:41:13.000Z</time>
      </trkpt>
      <trkpt lat="48.85853" lon="2.29217">
        <ele>35.599998474121</ele>
        <time>2016-05-16T18:41:40.000Z</time>
      </trkpt>
      <trkpt lat="48.85838" lon="2.292">
        <ele>36.200000762939</ele>
        <time>2016-05-16T18:41:45.000Z</time>
      </trkpt>
      <trkpt lat="48.85823" lon="2.29181">
        <ele>36.400001525879</ele>
        <time>2016-05-16T18:41:51.000Z</time>
      </trkpt>
      <trkpt lat="48.8581" lon="2.29163">
        <ele>36.599998474121</ele>
        <time>2016-05-16T18:41:57.000Z</time>
      </trkpt>
      <trkpt lat="48.85796" lon="2.29141">
        <ele>36.599998474121</ele>
        <time>2016-05-16T18:42:03.000Z</time>
      </trkpt>
      <trkpt lat="48.85782" lon="2.29122">
        <ele>36.799999237061</ele>
        <time>2016-05-16T18:42:09.000Z</time>
      </trkpt>
      <trkpt lat="48.85764" lon="2.29106">
        <ele>37</ele>
        <time>2016-05-16T18:42:15.000Z</time>
      </trkpt>
      <trkpt lat="48.85749" lon="2.29086">
        <ele>35.799999237061</ele>
        <time>2016-05-16T18:42:20.000Z</time>
      </trkpt>
      <trkpt lat="48.85734" lon="2.29067">
        <ele>35.799999237061</ele>
        <time>2016-05-16T18:42:25.000Z</time>
      </trkpt>
      <trkpt lat="48.8572" lon="2.29048">
        <ele>36.599998474121</ele>
        <time>2016-05-16T18:42:29.000Z</time>
      </trkpt>
      <trkpt lat="48.85701" lon="2.29027">
        <ele>37.400001525879</ele>
        <time>2016-05-16T18:42:33.000Z</time>
      </trkpt>
      <trkpt lat="48.85681" lon="2.2901">
        <ele>37.400001525879</ele>
        <time>2016-05-16T18:42:37.000Z</time>
      </trkpt>
      <trkpt lat="48.85661" lon="2.28996">
        <ele>36</ele>
        <time>2016-05-16T18:42:41.000Z</time>
      </trkpt>
      <trkpt lat="48.85644" lon="2.28986">
        <ele>34.200000762939</ele>
        <time>2016-05-16T18:42:45.000Z</time>
      </trkpt>
      <trkpt lat="48.85624" lon="2.28978">
        <ele>32.200000762939</ele>
        <time>2016-05-16T18:42:50.000Z</time>
      </trkpt>
      <trkpt lat="48.85611" lon="2.28972">
        <ele>31</ele>
        <time>2016-05-16T18:42:53.000Z</time>
      </trkpt>
      <trkpt lat="48.85593" lon="2.28966">
        <ele>32</ele>
        <time>2016-05-16T18:42:57.000Z</time>
      </trkpt>
      <trkpt lat="48.85575" lon="2.28957">
        <ele>34</ele>
        <time>2016-05-16T18:43:02.000Z</time>
      </trkpt>
      <trkpt lat="48.85557" lon="2.2895">
        <ele>36.200000762939</ele>
        <time>2016-05-16T18:43:07.000Z</time>
      </trkpt>
      <trkpt lat="48.8555" lon="2.28947">
        <ele>36.799999237061</ele>
        <time>2016-05-16T18:43:09.000Z</time>
      </trkpt>
      <trkpt lat="48.85533" lon="2.28937">
        <ele>38.400001525879</ele>
        <time>2016-05-16T18:43:14.000Z</time>
      </trkpt>
      <trkpt lat="48.8553" lon="2.28935">
        <ele>38.599998474121</ele>
        <time>2016-05-16T18:43:15.000Z</time>
      </trkpt>
      <trkpt lat="48.85514" lon="2.28921">
        <ele>39.599998474121</ele>
        <time>2016-05-16T18:43:20.000Z</time>
      </trkpt>
      <trkpt lat="48.85495" lon="2.28908">
        <ele>40.599998474121</ele>
        <time>2016-05-16T18:43:26.000Z</time>
      </trkpt>
      <trkpt lat="48.8548" lon="2.28892">
        <ele>40.799999237061</ele>
        <time>2016-05-16T18:43:35.000Z</time>
      </trkpt>
      <trkpt lat="48.85473" lon="2.28877">
        <ele>40.799999237061</ele>
        <time>2016-05-16T18:43:43.000Z</time>
      </trkpt>
      <trkpt lat="48.8549" lon="2.28866">
        <ele>39.200000762939</ele>
        <time>2016-05-16T18:43:57.000Z</time>
      </trkpt>
      <trkpt lat="48.85507" lon="2.28853">
        <ele>37.799999237061</ele>
        <time>2016-05-16T18:44:02.000Z</time>
      </trkpt>
      <trkpt lat="48.85522" lon="2.28838">
        <ele>36.400001525879</ele>
        <time>2016-05-16T18:44:06.000Z</time>
      </trkpt>
      <trkpt lat="48.85539" lon="2.28823">
        <ele>35.200000762939</ele>
        <time>2016-05-16T18:44:10.000Z</time>
      </trkpt>
      <trkpt lat="48.85557" lon="2.28806">
        <ele>33.799999237061</ele>
        <time>2016-05-16T18:44:14.000Z</time>
      </trkpt>
      <trkpt lat="48.85576" lon="2.28787">
        <ele>33</ele>
        <time>2016-05-16T18:44:18.000Z</time>
      </trkpt>
      <trkpt lat="48.85591" lon="2.28769">
        <ele>33</ele>
        <time>2016-05-16T18:44:22.000Z</time>
      </trkpt>
      <trkpt lat="48.85605" lon="2.28751">
        <ele>33</ele>
        <time>2016-05-16T18:44:26.000Z</time>
      </trkpt>
      <trkpt lat="48.8562" lon="2.28732">
        <ele>32.400001525879</ele>
        <time>2016-05-16T18:44:30.000Z</time>
      </trkpt>
      <trkpt lat="48.85637" lon="2.28717">
        <ele>32</ele>
        <time>2016-05-16T18:44:34.000Z</time>
      </trkpt>
      <trkpt lat="48.85654" lon="2.28697">
        <ele>33.200000762939</ele>
        <time>2016-05-16T18:44:39.000Z</time>
      </trkpt>
      <trkpt lat="48.85659" lon="2.28689">
        <ele>35</ele>
        <time>2016-05-16T18:44:42.000Z</time>
      </trkpt>
      <trkpt lat="48.8566" lon="2.28685">
        <ele>35.599998474121</ele>
        <time>2016-05-16T18:44:44.000Z</time>
      </trkpt>
      <trkpt lat="48.85669" lon="2.28676">
        <ele>37.799999237061</ele>
        <time>2016-05-16T18:44:50.000Z</time>
      </trkpt>
      <trkpt lat="48.85672" lon="2.28671">
        <ele>39</ele>
        <time>2016-05-16T18:44:52.000Z</time>
      </trkpt>
      <trkpt lat="48.8567" lon="2.2866">
        <ele>39.799999237061</ele>
        <time>2016-05-16T18:44:58.000Z</time>
      </trkpt>
      <trkpt lat="48.85669" lon="2.28658">
        <ele>40</ele>
        <time>2016-05-16T18:45:01.000Z</time>
      </trkpt>
      <trkpt lat="48.85653" lon="2.2864">
        <ele>39.599998474121</ele>
        <time>2016-05-16T18:45:14.000Z</time>
      </trkpt>
      <trkpt lat="48.85638" lon="2.28622">
        <ele>39.200000762939</ele>
        <time>2016-05-16T18:45:21.000Z</time>
      </trkpt>
      <trkpt lat="48.85622" lon="2.28604">
        <ele>38.799999237061</ele>
        <time>2016-05-16T18:45:27.000Z</time>
      </trkpt>
      <trkpt lat="48.85606" lon="2.28585">
        <ele>38.599998474121</ele>
        <time>2016-05-16T18:45:33.000Z</time>
      </trkpt>
      <trkpt lat="48.85596" lon="2.2856">
        <ele>39.400001525879</ele>
        <time>2016-05-16T18:45:39.000Z</time>
      </trkpt>
      <trkpt lat="48.85596" lon="2.28559">
        <ele>39.400001525879</ele>
        <time>2016-05-16T18:45:40.000Z</time>
      </trkpt>
      <trkpt lat="48.85584" lon="2.28535">
        <ele>39.799999237061</ele>
        <time>2016-05-16T18:45:52.000Z</time>
      </trkpt>
      <trkpt lat="48.85573" lon="2.28512">
        <ele>40.200000762939</ele>
        <time>2016-05-16T18:45:57.000Z</time>
      </trkpt>
      <trkpt lat="48.85566" lon="2.28503">
        <ele>40.400001525879</ele>
        <time>2016-05-16T18:45:59.000Z</time>
      </trkpt>
      <trkpt lat="48.85552" lon="2.28483">
        <ele>41.400001525879</ele>
        <time>2016-05-16T18:46:03.000Z</time>
      </trkpt>
      <trkpt lat="48.85537" lon="2.28463">
        <ele>42.599998474121</ele>
        <time>2016-05-16T18:46:07.000Z</time>
      </trkpt>
      <trkpt lat="48.85522" lon="2.28444">
        <ele>43.599998474121</ele>
        <time>2016-05-16T18:46:11.000Z</time>
      </trkpt>
      <trkpt lat="48.85507" lon="2.28422">
        <ele>43.400001525879</ele>
        <time>2016-05-16T18:46:15.000Z</time>
      </trkpt>
      <trkpt lat="48.85494" lon="2.28402">
        <ele>42.599998474121</ele>
        <time>2016-05-16T18:46:19.000Z</time>
      </trkpt>
      <trkpt lat="48.85479" lon="2.28385">
        <ele>41.200000762939</ele>
        <time>2016-05-16T18:46:23.000Z</time>
      </trkpt>
      <trkpt lat="48.85472" lon="2.28377">
        <ele>40.599998474121</ele>
        <time>2016-05-16T18:46:25.000Z</time>
      </trkpt>
      <trkpt lat="48.85462" lon="2.28362">
        <ele>39.799999237061</ele>
        <time>2016-05-16T18:46:30.000Z</time>
      </trkpt>
      <trkpt lat="48.85449" lon="2.28343">
        <ele>38.799999237061</ele>
        <time>2016-05-16T18:46:35.000Z</time>
      </trkpt>
      <trkpt lat="48.85434" lon="2.28323">
        <ele>37.599998474121</ele>
        <time>2016-05-16T18:46:39.000Z</time>
      </trkpt>
      <trkpt lat="48.85418" lon="2.28303">
        <ele>36.200000762939</ele>
        <time>2016-05-16T18:46:43.000Z</time>
      </trkpt>
      <trkpt lat="48.85401" lon="2.28278">
        <ele>34.599998474121</ele>
        <time>2016-05-16T18:46:47.000Z</time>
      </trkpt>
      <trkpt lat="48.85387" lon="2.28258">
        <ele>33.400001525879</ele>
        <time>2016-05-16T18:46:50.000Z</time>
      </trkpt>
      <trkpt lat="48.85372" lon="2.28236">
        <ele>33.200000762939</ele>
        <time>2016-05-16T18:46:53.000Z</time>
      </trkpt>
      <trkpt lat="48.85357" lon="2.28213">
        <ele>34.599998474121</ele>
        <time>2016-05-16T18:46:56.000Z</time>
      </trkpt>
      <trkpt lat="48.85344" lon="2.28191">
        <ele>35.799999237061</ele>
        <time>2016-05-16T18:46:59.000Z</time>
      </trkpt>
      <trkpt lat="48.85332" lon="2.28169">
        <ele>36.599998474121</ele>
        <time>2016-05-16T18:47:02.000Z</time>
      </trkpt>
      <trkpt lat="48.85319" lon="2.28149">
        <ele>36.200000762939</ele>
        <time>2016-05-16T18:47:05.000Z</time>
      </trkpt>
      <trkpt lat="48.85305" lon="2.2812">
        <ele>35</ele>
        <time>2016-05-16T18:47:09.000Z</time>
      </trkpt>
      <trkpt lat="48.85292" lon="2.28091">
        <ele>34.799999237061</ele>
        <time>2016-05-16T18:47:13.000Z</time>
      </trkpt>
      <trkpt lat="48.85285" lon="2.28077">
        <ele>34.799999237061</ele>
        <time>2016-05-16T18:47:15.000Z</time>
      </trkpt>
      <trkpt lat="48.85271" lon="2.28049">
        <ele>33.799999237061</ele>
        <time>2016-05-16T18:47:19.000Z</time>
      </trkpt>
      <trkpt lat="48.85255" lon="2.28022">
        <ele>34.400001525879</ele>
        <time>2016-05-16T18:47:23.000Z</time>
      </trkpt>
      <trkpt lat="48.8524" lon="2.27996">
        <ele>35</ele>
        <time>2016-05-16T18:47:27.000Z</time>
      </trkpt>
      <trkpt lat="48.85232" lon="2.27986">
        <ele>35</ele>
        <time>2016-05-16T18:47:29.000Z</time>
      </trkpt>
      <trkpt lat="48.85215" lon="2.27961">
        <ele>35.200000762939</ele>
        <time>2016-05-16T18:47:33.000Z</time>
      </trkpt>
      <trkpt lat="48.85203" lon="2.27943">
        <ele>35.400001525879</ele>
        <time>2016-05-16T18:47:36.000Z</time>
      </trkpt>
      <trkpt lat="48.85187" lon="2.27916">
        <ele>35.799999237061</ele>
        <time>2016-05-16T18:47:40.000Z</time>
      </trkpt>
      <trkpt lat="48.85176" lon="2.27893">
        <ele>36.200000762939</ele>
        <time>2016-05-16T18:47:44.000Z</time>
      </trkpt>
      <trkpt lat="48.85174" lon="2.27889">
        <ele>36.200000762939</ele>
        <time>2016-05-16T18:47:45.000Z</time>
      </trkpt>
      <trkpt lat="48.85162" lon="2.27867">
        <ele>36.599998474121</ele>
        <time>2016-05-16T18:47:50.000Z</time>
      </trkpt>
      <trkpt lat="48.8516" lon="2.27862">
        <ele>36.599998474121</ele>
        <time>2016-05-16T18:47:51.000Z</time>
      </trkpt>
      <trkpt lat="48.85149" lon="2.27849">
        <ele>36.799999237061</ele>
        <time>2016-05-16T18:48:42.000Z</time>
      </trkpt>
      <trkpt lat="48.8514" lon="2.27837">
        <ele>37</ele>
        <time>2016-05-16T18:48:49.000Z</time>
      </trkpt>
      <trkpt lat="48.85131" lon="2.27827">
        <ele>37</ele>
        <time>2016-05-16T18:48:55.000Z</time>
      </trkpt>
      <trkpt lat="48.85115" lon="2.27809">
        <ele>37</ele>
        <time>2016-05-16T18:49:07.000Z</time>
      </trkpt>
      <trkpt lat="48.851" lon="2.27789">
        <ele>37</ele>
        <time>2016-05-16T18:49:12.000Z</time>
      </trkpt>
      <trkpt lat="48.85086" lon="2.27767">
        <ele>37</ele>
        <time>2016-05-16T18:49:16.000Z</time>
      </trkpt>
      <trkpt lat="48.85073" lon="2.27743">
        <ele>37.200000762939</ele>
        <time>2016-05-16T18:49:20.000Z</time>
      </trkpt>
      <trkpt lat="48.85059" lon="2.27725">
        <ele>38.799999237061</ele>
        <time>2016-05-16T18:49:24.000Z</time>
      </trkpt>
      <trkpt lat="48.85043" lon="2.27702">
        <ele>40.599998474121</ele>
        <time>2016-05-16T18:49:29.000Z</time>
      </trkpt>
      <trkpt lat="48.85031" lon="2.27681">
        <ele>42.400001525879</ele>
        <time>2016-05-16T18:49:33.000Z</time>
      </trkpt>
      <trkpt lat="48.85016" lon="2.2766">
        <ele>44.200000762939</ele>
        <time>2016-05-16T18:49:37.000Z</time>
      </trkpt>
      <trkpt lat="48.85" lon="2.27643">
        <ele>45</ele>
        <time>2016-05-16T18:49:41.000Z</time>
      </trkpt>
      <trkpt lat="48.84982" lon="2.27624">
        <ele>45.799999237061</ele>
        <time>2016-05-16T18:49:45.000Z</time>
      </trkpt>
      <trkpt lat="48.84966" lon="2.27605">
        <ele>46.799999237061</ele>
        <time>2016-05-16T18:49:49.000Z</time>
      </trkpt>
      <trkpt lat="48.84948" lon="2.27587">
        <ele>47.599998474121</ele>
        <time>2016-05-16T18:49:53.000Z</time>
      </trkpt>
      <trkpt lat="48.84929" lon="2.27565">
        <ele>47.599998474121</ele>
        <time>2016-05-16T18:49:57.000Z</time>
      </trkpt>
      <trkpt lat="48.8491" lon="2.27545">
        <ele>47.200000762939</ele>
        <time>2016-05-16T18:50:01.000Z</time>
      </trkpt>
      <trkpt lat="48.84891" lon="2.27525">
        <ele>46.599998474121</ele>
        <time>2016-05-16T18:50:05.000Z</time>
      </trkpt>
      <trkpt lat="48.84876" lon="2.27507">
        <ele>46.200000762939</ele>
        <time>2016-05-16T18:50:08.000Z</time>
      </trkpt>
      <trkpt lat="48.84859" lon="2.27486">
        <ele>45.599998474121</ele>
        <time>2016-05-16T18:50:12.000Z</time>
      </trkpt>
      <trkpt lat="48.84841" lon="2.27469">
        <ele>44.799999237061</ele>
        <time>2016-05-16T18:50:16.000Z</time>
      </trkpt>
      <trkpt lat="48.84825" lon="2.27452">
        <ele>44</ele>
        <time>2016-05-16T18:50:20.000Z</time>
      </trkpt>
      <trkpt lat="48.84821" lon="2.27447">
        <ele>43.799999237061</ele>
        <time>2016-05-16T18:50:21.000Z</time>
      </trkpt>
      <trkpt lat="48.84806" lon="2.2743">
        <ele>43</ele>
        <time>2016-05-16T18:50:25.000Z</time>
      </trkpt>
      <trkpt lat="48.84798" lon="2.27421">
        <ele>42.599998474121</ele>
        <time>2016-05-16T18:50:27.000Z</time>
      </trkpt>
      <trkpt lat="48.84779" lon="2.27403">
        <ele>42.400001525879</ele>
        <time>2016-05-16T18:50:32.000Z</time>
      </trkpt>
      <trkpt lat="48.84764" lon="2.27388">
        <ele>42.400001525879</ele>
        <time>2016-05-16T18:50:37.000Z</time>
      </trkpt>
      <trkpt lat="48.84754" lon="2.27377">
        <ele>42.200000762939</ele>
        <time>2016-05-16T18:50:41.000Z</time>
      </trkpt>
      <trkpt lat="48.8475" lon="2.27367">
        <ele>42.200000762939</ele>
        <time>2016-05-16T18:50:44.000Z</time>
      </trkpt>
      <trkpt lat="48.84739" lon="2.27366">
        <ele>41.599998474121</ele>
        <time>2016-05-16T18:50:49.000Z</time>
      </trkpt>
      <trkpt lat="48.84734" lon="2.27367">
        <ele>41.400001525879</ele>
        <time>2016-05-16T18:50:52.000Z</time>
      </trkpt>
      <trkpt lat="48.84732" lon="2.27352">
        <ele>41.799999237061</ele>
        <time>2016-05-16T18:51:33.000Z</time>
      </trkpt>
      <trkpt lat="48.84713" lon="2.27334">
        <ele>41.200000762939</ele>
        <time>2016-05-16T18:51:38.000Z</time>
      </trkpt>
      <trkpt lat="48.84693" lon="2.27314">
        <ele>41.200000762939</ele>
        <time>2016-05-16T18:51:42.000Z</time>
      </trkpt>
      <trkpt lat="48.84672" lon="2.273">
        <ele>40</ele>
        <time>2016-05-16T18:51:45.000Z</time>
      </trkpt>
      <trkpt lat="48.84653" lon="2.27285">
        <ele>38.799999237061</ele>
        <time>2016-05-16T18:51:48.000Z</time>
      </trkpt>
      <trkpt lat="48.84637" lon="2.27269">
        <ele>38</ele>
        <time>2016-05-16T18:51:51.000Z</time>
      </trkpt>
      <trkpt lat="48.8462" lon="2.27253">
        <ele>37</ele>
        <time>2016-05-16T18:51:54.000Z</time>
      </trkpt>
      <trkpt lat="48.84603" lon="2.27236">
        <ele>37</ele>
        <time>2016-05-16T18:51:57.000Z</time>
      </trkpt>
      <trkpt lat="48.84587" lon="2.27218">
        <ele>38.400001525879</ele>
        <time>2016-05-16T18:52:00.000Z</time>
      </trkpt>
      <trkpt lat="48.8457" lon="2.27197">
        <ele>40</ele>
        <time>2016-05-16T18:52:03.000Z</time>
      </trkpt>
      <trkpt lat="48.84553" lon="2.2718">
        <ele>41.400001525879</ele>
        <time>2016-05-16T18:52:06.000Z</time>
      </trkpt>
      <trkpt lat="48.84538" lon="2.27163">
        <ele>42.599998474121</ele>
        <time>2016-05-16T18:52:09.000Z</time>
      </trkpt>
      <trkpt lat="48.84521" lon="2.27145">
        <ele>41.599998474121</ele>
        <time>2016-05-16T18:52:12.000Z</time>
      </trkpt>
      <trkpt lat="48.84503" lon="2.27126">
        <ele>42.599998474121</ele>
        <time>2016-05-16T18:52:15.000Z</time>
      </trkpt>
      <trkpt lat="48.84485" lon="2.27108">
        <ele>43.400001525879</ele>
        <time>2016-05-16T18:52:18.000Z</time>
      </trkpt>
      <trkpt lat="48.84467" lon="2.27091">
        <ele>44.200000762939</ele>
        <time>2016-05-16T18:52:21.000Z</time>
      </trkpt>
      <trkpt lat="48.84449" lon="2.27069">
        <ele>45.200000762939</ele>
        <time>2016-05-16T18:52:24.000Z</time>
      </trkpt>
      <trkpt lat="48.8443" lon="2.27045">
        <ele>45.799999237061</ele>
        <time>2016-05-16T18:52:27.000Z</time>
      </trkpt>
      <trkpt lat="48.84411" lon="2.27019">
        <ele>46</ele>
        <time>2016-05-16T18:52:30.000Z</time>
      </trkpt>
      <trkpt lat="48.84398" lon="2.27005">
        <ele>46</ele>
        <time>2016-05-16T18:52:32.000Z</time>
      </trkpt>
      <trkpt lat="48.84378" lon="2.26986">
        <ele>46.200000762939</ele>
        <time>2016-05-16T18:52:35.000Z</time>
      </trkpt>
      <trkpt lat="48.84358" lon="2.26965">
        <ele>45.799999237061</ele>
        <time>2016-05-16T18:52:38.000Z</time>
      </trkpt>
      <trkpt lat="48.84337" lon="2.26949">
        <ele>45.400001525879</ele>
        <time>2016-05-16T18:52:41.000Z</time>
      </trkpt>
      <trkpt lat="48.84315" lon="2.26931">
        <ele>44.599998474121</ele>
        <time>2016-05-16T18:52:44.000Z</time>
      </trkpt>
      <trkpt lat="48.84294" lon="2.26909">
        <ele>44</ele>
        <time>2016-05-16T18:52:47.000Z</time>
      </trkpt>
      <trkpt lat="48.84275" lon="2.26883">
        <ele>44.400001525879</ele>
        <time>2016-05-16T18:52:50.000Z</time>
      </trkpt>
      <trkpt lat="48.84258" lon="2.26858">
        <ele>43.400001525879</ele>
        <time>2016-05-16T18:52:53.000Z</time>
      </trkpt>
      <trkpt lat="48.84242" lon="2.2683">
        <ele>42.400001525879</ele>
        <time>2016-05-16T18:52:56.000Z</time>
      </trkpt>
      <trkpt lat="48.84228" lon="2.26804">
        <ele>42.799999237061</ele>
        <time>2016-05-16T18:52:59.000Z</time>
      </trkpt>
      <trkpt lat="48.84214" lon="2.26779">
        <ele>43.200000762939</ele>
        <time>2016-05-16T18:53:02.000Z</time>
      </trkpt>
      <trkpt lat="48.84202" lon="2.26755">
        <ele>43</ele>
        <time>2016-05-16T18:53:05.000Z</time>
      </trkpt>
      <trkpt lat="48.84191" lon="2.2673">
        <ele>43.400001525879</ele>
        <time>2016-05-16T18:53:08.000Z</time>
      </trkpt>
      <trkpt lat="48.84177" lon="2.26701">
        <ele>44</ele>
        <time>2016-05-16T18:53:12.000Z</time>
      </trkpt>
      <trkpt lat="48.84166" lon="2.26675">
        <ele>44.400001525879</ele>
        <time>2016-05-16T18:53:16.000Z</time>
      </trkpt>
      <trkpt lat="48.84153" lon="2.26653">
        <ele>44.599998474121</ele>
        <time>2016-05-16T18:53:20.000Z</time>
      </trkpt>
      <trkpt lat="48.8414" lon="2.26627">
        <ele>44.799999237061</ele>
        <time>2016-05-16T18:53:25.000Z</time>
      </trkpt>
      <trkpt lat="48.84133" lon="2.26605">
        <ele>45</ele>
        <time>2016-05-16T18:53:30.000Z</time>
      </trkpt>
      <trkpt lat="48.84119" lon="2.26584">
        <ele>44.799999237061</ele>
        <time>2016-05-16T18:53:37.000Z</time>
      </trkpt>
      <trkpt lat="48.84113" lon="2.26577">
        <ele>45</ele>
        <time>2016-05-16T18:53:40.000Z</time>
      </trkpt>
      <trkpt lat="48.84107" lon="2.2657">
        <ele>45</ele>
        <time>2016-05-16T18:53:43.000Z</time>
      </trkpt>
      <trkpt lat="48.841" lon="2.26561">
        <ele>45.200000762939</ele>
        <time>2016-05-16T18:53:49.000Z</time>
      </trkpt>
      <trkpt lat="48.84096" lon="2.26557">
        <ele>45.400001525879</ele>
        <time>2016-05-16T18:53:52.000Z</time>
      </trkpt>
      <trkpt lat="48.84094" lon="2.26557">
        <ele>45.599998474121</ele>
        <time>2016-05-16T18:53:56.000Z</time>
      </trkpt>
      <trkpt lat="48.841" lon="2.26545">
        <ele>45.200000762939</ele>
        <time>2016-05-16T18:54:41.000Z</time>
      </trkpt>
      <trkpt lat="48.84103" lon="2.26533">
        <ele>45.200000762939</ele>
        <time>2016-05-16T18:55:49.000Z</time>
      </trkpt>
      <trkpt lat="48.84097" lon="2.26522">
        <ele>45.400001525879</ele>
        <time>2016-05-16T18:56:35.000Z</time>
      </trkpt>
      <trkpt lat="48.84082" lon="2.26502">
        <ele>46.200000762939</ele>
        <time>2016-05-16T18:56:41.000Z</time>
      </trkpt>
      <trkpt lat="48.84068" lon="2.26483">
        <ele>46.200000762939</ele>
        <time>2016-05-16T18:56:47.000Z</time>
      </trkpt>
      <trkpt lat="48.84054" lon="2.26463">
        <ele>45.799999237061</ele>
        <time>2016-05-16T18:56:54.000Z</time>
      </trkpt>
      <trkpt lat="48.84042" lon="2.26439">
        <ele>45.400001525879</ele>
        <time>2016-05-16T18:57:02.000Z</time>
      </trkpt>
      <trkpt lat="48.8403" lon="2.26412">
        <ele>45.400001525879</ele>
        <time>2016-05-16T18:57:10.000Z</time>
      </trkpt>
      <trkpt lat="48.84018" lon="2.26391">
        <ele>44.799999237061</ele>
        <time>2016-05-16T18:57:16.000Z</time>
      </trkpt>
      <trkpt lat="48.84006" lon="2.26367">
        <ele>44.799999237061</ele>
        <time>2016-05-16T18:57:22.000Z</time>
      </trkpt>
      <trkpt lat="48.83993" lon="2.26347">
        <ele>45</ele>
        <time>2016-05-16T18:57:27.000Z</time>
      </trkpt>
      <trkpt lat="48.83982" lon="2.26322">
        <ele>45</ele>
        <time>2016-05-16T18:57:32.000Z</time>
      </trkpt>
      <trkpt lat="48.83972" lon="2.26296">
        <ele>45.599998474121</ele>
        <time>2016-05-16T18:57:37.000Z</time>
      </trkpt>
      <trkpt lat="48.83961" lon="2.26267">
        <ele>46.200000762939</ele>
        <time>2016-05-16T18:57:42.000Z</time>
      </trkpt>
      <trkpt lat="48.83951" lon="2.26243">
        <ele>47</ele>
        <time>2016-05-16T18:57:46.000Z</time>
      </trkpt>
      <trkpt lat="48.83942" lon="2.2622">
        <ele>46</ele>
        <time>2016-05-16T18:57:50.000Z</time>
      </trkpt>
      <trkpt lat="48.83933" lon="2.26195">
        <ele>45.200000762939</ele>
        <time>2016-05-16T18:57:54.000Z</time>
      </trkpt>
      <trkpt lat="48.83929" lon="2.26181">
        <ele>44.599998474121</ele>
        <time>2016-05-16T18:57:56.000Z</time>
      </trkpt>
      <trkpt lat="48.83921" lon="2.26148">
        <ele>44.200000762939</ele>
        <time>2016-05-16T18:58:00.000Z</time>
      </trkpt>
      <trkpt lat="48.83911" lon="2.26118">
        <ele>45</ele>
        <time>2016-05-16T18:58:04.000Z</time>
      </trkpt>
      <trkpt lat="48.83901" lon="2.26088">
        <ele>45.799999237061</ele>
        <time>2016-05-16T18:58:08.000Z</time>
      </trkpt>
      <trkpt lat="48.83892" lon="2.26058">
        <ele>45.799999237061</ele>
        <time>2016-05-16T18:58:12.000Z</time>
      </trkpt>
      <trkpt lat="48.83884" lon="2.26026">
        <ele>45.400001525879</ele>
        <time>2016-05-16T18:58:16.000Z</time>
      </trkpt>
      <trkpt lat="48.83876" lon="2.25995">
        <ele>45</ele>
        <time>2016-05-16T18:58:20.000Z</time>
      </trkpt>
      <trkpt lat="48.83868" lon="2.25966">
        <ele>44</ele>
        <time>2016-05-16T18:58:24.000Z</time>
      </trkpt>
      <trkpt lat="48.83859" lon="2.25938">
        <ele>43</ele>
        <time>2016-05-16T18:58:28.000Z</time>
      </trkpt>
      <trkpt lat="48.83851" lon="2.2591">
        <ele>42.200000762939</ele>
        <time>2016-05-16T18:58:32.000Z</time>
      </trkpt>
      <trkpt lat="48.83843" lon="2.25884">
        <ele>42.400001525879</ele>
        <time>2016-05-16T18:58:36.000Z</time>
      </trkpt>
      <trkpt lat="48.83834" lon="2.25859">
        <ele>42.599998474121</ele>
        <time>2016-05-16T18:58:40.000Z</time>
      </trkpt>
      <trkpt lat="48.83826" lon="2.25832">
        <ele>42.799999237061</ele>
        <time>2016-05-16T18:58:44.000Z</time>
      </trkpt>
      <trkpt lat="48.83821" lon="2.2581">
        <ele>41.599998474121</ele>
        <time>2016-05-16T18:58:47.000Z</time>
      </trkpt>
      <trkpt lat="48.8382" lon="2.25792">
        <ele>40.599998474121</ele>
        <time>2016-05-16T18:58:50.000Z</time>
      </trkpt>
      <trkpt lat="48.8382" lon="2.25778">
        <ele>40.400001525879</ele>
        <time>2016-05-16T18:58:53.000Z</time>
      </trkpt>
      <trkpt lat="48.83823" lon="2.25763">
        <ele>40</ele>
        <time>2016-05-16T18:58:56.000Z</time>
      </trkpt>
      <trkpt lat="48.83829" lon="2.25738">
        <ele>39.400001525879</ele>
        <time>2016-05-16T18:59:19.000Z</time>
      </trkpt>
      <trkpt lat="48.83838" lon="2.25713">
        <ele>39.400001525879</ele>
        <time>2016-05-16T18:59:25.000Z</time>
      </trkpt>
      <trkpt lat="48.83841" lon="2.25685">
        <ele>39.799999237061</ele>
        <time>2016-05-16T18:59:30.000Z</time>
      </trkpt>
      <trkpt lat="48.83837" lon="2.25657">
        <ele>39.799999237061</ele>
        <time>2016-05-16T18:59:34.000Z</time>
      </trkpt>
      <trkpt lat="48.83834" lon="2.25627">
        <ele>39.599998474121</ele>
        <time>2016-05-16T18:59:38.000Z</time>
      </trkpt>
      <trkpt lat="48.83835" lon="2.25597">
        <ele>39.799999237061</ele>
        <time>2016-05-16T18:59:43.000Z</time>
      </trkpt>
      <trkpt lat="48.8384" lon="2.25569">
        <ele>40.200000762939</ele>
        <time>2016-05-16T18:59:48.000Z</time>
      </trkpt>
      <trkpt lat="48.83849" lon="2.25539">
        <ele>39.799999237061</ele>
        <time>2016-05-16T18:59:53.000Z</time>
      </trkpt>
      <trkpt lat="48.83859" lon="2.25512">
        <ele>39.599998474121</ele>
        <time>2016-05-16T18:59:58.000Z</time>
      </trkpt>
      <trkpt lat="48.83866" lon="2.25485">
        <ele>39.599998474121</ele>
        <time>2016-05-16T19:00:03.000Z</time>
      </trkpt>
      <trkpt lat="48.83871" lon="2.25457">
        <ele>39.400001525879</ele>
        <time>2016-05-16T19:00:08.000Z</time>
      </trkpt>
      <trkpt lat="48.83875" lon="2.25427">
        <ele>39.200000762939</ele>
        <time>2016-05-16T19:00:14.000Z</time>
      </trkpt>
      <trkpt lat="48.83879" lon="2.254">
        <ele>39.599998474121</ele>
        <time>2016-05-16T19:00:24.000Z</time>
      </trkpt>
      <trkpt lat="48.83871" lon="2.25379">
        <ele>39.799999237061</ele>
        <time>2016-05-16T19:01:01.000Z</time>
      </trkpt>
      <trkpt lat="48.83866" lon="2.25353">
        <ele>40</ele>
        <time>2016-05-16T19:01:06.000Z</time>
      </trkpt>
      <trkpt lat="48.83864" lon="2.25324">
        <ele>40.200000762939</ele>
        <time>2016-05-16T19:01:11.000Z</time>
      </trkpt>
      <trkpt lat="48.83863" lon="2.25294">
        <ele>39.799999237061</ele>
        <time>2016-05-16T19:01:17.000Z</time>
      </trkpt>
      <trkpt lat="48.83865" lon="2.25265">
        <ele>39.599998474121</ele>
        <time>2016-05-16T19:01:23.000Z</time>
      </trkpt>
      <trkpt lat="48.83868" lon="2.25235">
        <ele>39.799999237061</ele>
        <time>2016-05-16T19:01:29.000Z</time>
      </trkpt>
      <trkpt lat="48.83872" lon="2.25207">
        <ele>40.599998474121</ele>
        <time>2016-05-16T19:01:34.000Z</time>
      </trkpt>
      <trkpt lat="48.83875" lon="2.25176">
        <ele>41.400001525879</ele>
        <time>2016-05-16T19:01:40.000Z</time>
      </trkpt>
      <trkpt lat="48.83877" lon="2.25147">
        <ele>42.400001525879</ele>
        <time>2016-05-16T19:01:45.000Z</time>
      </trkpt>
      <trkpt lat="48.83878" lon="2.25116">
        <ele>43.200000762939</ele>
        <time>2016-05-16T19:01:50.000Z</time>
      </trkpt>
      <trkpt lat="48.83879" lon="2.25086">
        <ele>44</ele>
        <time>2016-05-16T19:01:55.000Z</time>
      </trkpt>
      <trkpt lat="48.8388" lon="2.25053">
        <ele>44.400001525879</ele>
        <time>2016-05-16T19:02:00.000Z</time>
      </trkpt>
      <trkpt lat="48.83881" lon="2.25019">
        <ele>44.799999237061</ele>
        <time>2016-05-16T19:02:05.000Z</time>
      </trkpt>
      <trkpt lat="48.83882" lon="2.24988">
        <ele>43.799999237061</ele>
        <time>2016-05-16T19:02:09.000Z</time>
      </trkpt>
      <trkpt lat="48.83885" lon="2.24956">
        <ele>43</ele>
        <time>2016-05-16T19:02:13.000Z</time>
      </trkpt>
      <trkpt lat="48.83888" lon="2.24921">
        <ele>42.400001525879</ele>
        <time>2016-05-16T19:02:17.000Z</time>
      </trkpt>
      <trkpt lat="48.83892" lon="2.24892">
        <ele>42</ele>
        <time>2016-05-16T19:02:20.000Z</time>
      </trkpt>
      <trkpt lat="48.83893" lon="2.24882">
        <ele>41.799999237061</ele>
        <time>2016-05-16T19:02:21.000Z</time>
      </trkpt>
      <trkpt lat="48.83896" lon="2.24853">
        <ele>41.599998474121</ele>
        <time>2016-05-16T19:02:24.000Z</time>
      </trkpt>
      <trkpt lat="48.83898" lon="2.24826">
        <ele>42</ele>
        <time>2016-05-16T19:02:27.000Z</time>
      </trkpt>
      <trkpt lat="48.839" lon="2.24798">
        <ele>42.400001525879</ele>
        <time>2016-05-16T19:02:30.000Z</time>
      </trkpt>
      <trkpt lat="48.83903" lon="2.24771">
        <ele>42.599998474121</ele>
        <time>2016-05-16T19:02:33.000Z</time>
      </trkpt>
      <trkpt lat="48.83907" lon="2.24736">
        <ele>43</ele>
        <time>2016-05-16T19:02:37.000Z</time>
      </trkpt>
      <trkpt lat="48.83911" lon="2.24706">
        <ele>43.200000762939</ele>
        <time>2016-05-16T19:02:41.000Z</time>
      </trkpt>
      <trkpt lat="48.83909" lon="2.24693">
        <ele>43</ele>
        <time>2016-05-16T19:02:45.000Z</time>
      </trkpt>
      <trkpt lat="48.83915" lon="2.24666">
        <ele>42.799999237061</ele>
        <time>2016-05-16T19:02:57.000Z</time>
      </trkpt>
      <trkpt lat="48.83918" lon="2.24636">
        <ele>42.200000762939</ele>
        <time>2016-05-16T19:03:01.000Z</time>
      </trkpt>
      <trkpt lat="48.8392" lon="2.24604">
        <ele>41.400001525879</ele>
        <time>2016-05-16T19:03:05.000Z</time>
      </trkpt>
      <trkpt lat="48.83922" lon="2.2457">
        <ele>40.599998474121</ele>
        <time>2016-05-16T19:03:09.000Z</time>
      </trkpt>
      <trkpt lat="48.83923" lon="2.24536">
        <ele>40.200000762939</ele>
        <time>2016-05-16T19:03:13.000Z</time>
      </trkpt>
      <trkpt lat="48.83927" lon="2.24504">
        <ele>39.799999237061</ele>
        <time>2016-05-16T19:03:17.000Z</time>
      </trkpt>
      <trkpt lat="48.83933" lon="2.24471">
        <ele>40</ele>
        <time>2016-05-16T19:03:21.000Z</time>
      </trkpt>
      <trkpt lat="48.83938" lon="2.2444">
        <ele>40</ele>
        <time>2016-05-16T19:03:25.000Z</time>
      </trkpt>
      <trkpt lat="48.8394" lon="2.24408">
        <ele>40</ele>
        <time>2016-05-16T19:03:29.000Z</time>
      </trkpt>
      <trkpt lat="48.83944" lon="2.24375">
        <ele>40.599998474121</ele>
        <time>2016-05-16T19:03:33.000Z</time>
      </trkpt>
      <trkpt lat="48.83948" lon="2.24341">
        <ele>41.200000762939</ele>
        <time>2016-05-16T19:03:37.000Z</time>
      </trkpt>
      <trkpt lat="48.83949" lon="2.24306">
        <ele>41.400001525879</ele>
        <time>2016-05-16T19:03:41.000Z</time>
      </trkpt>
      <trkpt lat="48.83953" lon="2.24278">
        <ele>41.400001525879</ele>
        <time>2016-05-16T19:03:44.000Z</time>
      </trkpt>
      <trkpt lat="48.83955" lon="2.24242">
        <ele>41.400001525879</ele>
        <time>2016-05-16T19:03:48.000Z</time>
      </trkpt>
      <trkpt lat="48.83957" lon="2.24215">
        <ele>42.400001525879</ele>
        <time>2016-05-16T19:03:51.000Z</time>
      </trkpt>
      <trkpt lat="48.83958" lon="2.24187">
        <ele>43.400001525879</ele>
        <time>2016-05-16T19:03:54.000Z</time>
      </trkpt>
      <trkpt lat="48.83959" lon="2.24157">
        <ele>43.400001525879</ele>
        <time>2016-05-16T19:03:57.000Z</time>
      </trkpt>
      <trkpt lat="48.83962" lon="2.24127">
        <ele>42.599998474121</ele>
        <time>2016-05-16T19:04:00.000Z</time>
      </trkpt>
      <trkpt lat="48.83965" lon="2.24098">
        <ele>42</ele>
        <time>2016-05-16T19:04:03.000Z</time>
      </trkpt>
      <trkpt lat="48.83969" lon="2.24071">
        <ele>42</ele>
        <time>2016-05-16T19:04:06.000Z</time>
      </trkpt>
      <trkpt lat="48.83974" lon="2.24041">
        <ele>41.599998474121</ele>
        <time>2016-05-16T19:04:11.000Z</time>
      </trkpt>
      <trkpt lat="48.83979" lon="2.24016">
        <ele>41.200000762939</ele>
        <time>2016-05-16T19:04:17.000Z</time>
      </trkpt>
      <trkpt lat="48.83984" lon="2.23986">
        <ele>40.799999237061</ele>
        <time>2016-05-16T19:04:23.000Z</time>
      </trkpt>
      <trkpt lat="48.83986" lon="2.23967">
        <ele>40.599998474121</ele>
        <time>2016-05-16T19:04:26.000Z</time>
      </trkpt>
      <trkpt lat="48.83989" lon="2.23933">
        <ele>39.599998474121</ele>
        <time>2016-05-16T19:04:31.000Z</time>
      </trkpt>
      <trkpt lat="48.83991" lon="2.23901">
        <ele>38.799999237061</ele>
        <time>2016-05-16T19:04:35.000Z</time>
      </trkpt>
      <trkpt lat="48.83994" lon="2.23867">
        <ele>38.799999237061</ele>
        <time>2016-05-16T19:04:39.000Z</time>
      </trkpt>
      <trkpt lat="48.83996" lon="2.2383">
        <ele>38.200000762939</ele>
        <time>2016-05-16T19:04:43.000Z</time>
      </trkpt>
      <trkpt lat="48.83998" lon="2.23801">
        <ele>37.599998474121</ele>
        <time>2016-05-16T19:04:46.000Z</time>
      </trkpt>
      <trkpt lat="48.84001" lon="2.23771">
        <ele>38</ele>
        <time>2016-05-16T19:04:49.000Z</time>
      </trkpt>
      <trkpt lat="48.84003" lon="2.23741">
        <ele>38.200000762939</ele>
        <time>2016-05-16T19:04:52.000Z</time>
      </trkpt>
      <trkpt lat="48.84004" lon="2.23713">
        <ele>38</ele>
        <time>2016-05-16T19:04:55.000Z</time>
      </trkpt>
      <trkpt lat="48.84006" lon="2.23684">
        <ele>37.599998474121</ele>
        <time>2016-05-16T19:04:58.000Z</time>
      </trkpt>
      <trkpt lat="48.84009" lon="2.23655">
        <ele>37</ele>
        <time>2016-05-16T19:05:01.000Z</time>
      </trkpt>
      <trkpt lat="48.84011" lon="2.23627">
        <ele>36</ele>
        <time>2016-05-16T19:05:04.000Z</time>
      </trkpt>
      <trkpt lat="48.84013" lon="2.23597">
        <ele>34.799999237061</ele>
        <time>2016-05-16T19:05:07.000Z</time>
      </trkpt>
      <trkpt lat="48.84014" lon="2.23568">
        <ele>34.200000762939</ele>
        <time>2016-05-16T19:05:10.000Z</time>
      </trkpt>
      <trkpt lat="48.84016" lon="2.23539">
        <ele>34.400001525879</ele>
        <time>2016-05-16T19:05:13.000Z</time>
      </trkpt>
      <trkpt lat="48.84019" lon="2.23509">
        <ele>34.799999237061</ele>
        <time>2016-05-16T19:05:16.000Z</time>
      </trkpt>
      <trkpt lat="48.84022" lon="2.23478">
        <ele>35.599998474121</ele>
        <time>2016-05-16T19:05:19.000Z</time>
      </trkpt>
      <trkpt lat="48.84024" lon="2.2345">
        <ele>36.799999237061</ele>
        <time>2016-05-16T19:05:22.000Z</time>
      </trkpt>
      <trkpt lat="48.84028" lon="2.2342">
        <ele>38</ele>
        <time>2016-05-16T19:05:25.000Z</time>
      </trkpt>
      <trkpt lat="48.84031" lon="2.2339">
        <ele>38.400001525879</ele>
        <time>2016-05-16T19:05:28.000Z</time>
      </trkpt>
      <trkpt lat="48.84033" lon="2.2336">
        <ele>38.799999237061</ele>
        <time>2016-05-16T19:05:31.000Z</time>
      </trkpt>
      <trkpt lat="48.84035" lon="2.23331">
        <ele>39.200000762939</ele>
        <time>2016-05-16T19:05:34.000Z</time>
      </trkpt>
      <trkpt lat="48.84037" lon="2.23302">
        <ele>38.599998474121</ele>
        <time>2016-05-16T19:05:37.000Z</time>
      </trkpt>
      <trkpt lat="48.84038" lon="2.23274">
        <ele>37.799999237061</ele>
        <time>2016-05-16T19:05:40.000Z</time>
      </trkpt>
      <trkpt lat="48.84039" lon="2.23245">
        <ele>37.400001525879</ele>
        <time>2016-05-16T19:05:43.000Z</time>
      </trkpt>
      <trkpt lat="48.84044" lon="2.23218">
        <ele>36.599998474121</ele>
        <time>2016-05-16T19:05:46.000Z</time>
      </trkpt>
      <trkpt lat="48.84048" lon="2.23184">
        <ele>35.400001525879</ele>
        <time>2016-05-16T19:05:50.000Z</time>
      </trkpt>
      <trkpt lat="48.84052" lon="2.23153">
        <ele>34.200000762939</ele>
        <time>2016-05-16T19:05:54.000Z</time>
      </trkpt>
      <trkpt lat="48.84055" lon="2.23124">
        <ele>35</ele>
        <time>2016-05-16T19:05:58.000Z</time>
      </trkpt>
      <trkpt lat="48.84058" lon="2.23092">
        <ele>34.799999237061</ele>
        <time>2016-05-16T19:06:02.000Z</time>
      </trkpt>
      <trkpt lat="48.84062" lon="2.23061">
        <ele>35.200000762939</ele>
        <time>2016-05-16T19:06:06.000Z</time>
      </trkpt>
      <trkpt lat="48.84064" lon="2.23045">
        <ele>35.799999237061</ele>
        <time>2016-05-16T19:06:08.000Z</time>
      </trkpt>
      <trkpt lat="48.84066" lon="2.23024">
        <ele>35.799999237061</ele>
        <time>2016-05-16T19:06:11.000Z</time>
      </trkpt>
      <trkpt lat="48.84069" lon="2.22997">
        <ele>35</ele>
        <time>2016-05-16T19:06:15.000Z</time>
      </trkpt>
      <trkpt lat="48.84072" lon="2.22965">
        <ele>34.400001525879</ele>
        <time>2016-05-16T19:06:20.000Z</time>
      </trkpt>
      <trkpt lat="48.84076" lon="2.22934">
        <ele>34.200000762939</ele>
        <time>2016-05-16T19:06:25.000Z</time>
      </trkpt>
      <trkpt lat="48.84079" lon="2.22919">
        <ele>34</ele>
        <time>2016-05-16T19:06:28.000Z</time>
      </trkpt>
      <trkpt lat="48.84087" lon="2.2291">
        <ele>33.200000762939</ele>
        <time>2016-05-16T19:06:32.000Z</time>
      </trkpt>
      <trkpt lat="48.84089" lon="2.22908">
        <ele>33.200000762939</ele>
        <time>2016-05-16T19:06:33.000Z</time>
      </trkpt>
      <trkpt lat="48.84098" lon="2.22888">
        <ele>32.799999237061</ele>
        <time>2016-05-16T19:07:23.000Z</time>
      </trkpt>
      <trkpt lat="48.84101" lon="2.22863">
        <ele>33.200000762939</ele>
        <time>2016-05-16T19:07:55.000Z</time>
      </trkpt>
      <trkpt lat="48.84101" lon="2.22832">
        <ele>34</ele>
        <time>2016-05-16T19:08:02.000Z</time>
      </trkpt>
      <trkpt lat="48.84096" lon="2.22805">
        <ele>34.400001525879</ele>
        <time>2016-05-16T19:08:08.000Z</time>
      </trkpt>
      <trkpt lat="48.84096" lon="2.22773">
        <ele>34.799999237061</ele>
        <time>2016-05-16T19:08:14.000Z</time>
      </trkpt>
      <trkpt lat="48.84101" lon="2.22743">
        <ele>35.200000762939</ele>
        <time>2016-05-16T19:08:20.000Z</time>
      </trkpt>
      <trkpt lat="48.84102" lon="2.22715">
        <ele>34.799999237061</ele>
        <time>2016-05-16T19:08:26.000Z</time>
      </trkpt>
      <trkpt lat="48.84106" lon="2.22688">
        <ele>34.200000762939</ele>
        <time>2016-05-16T19:08:31.000Z</time>
      </trkpt>
      <trkpt lat="48.84109" lon="2.22657">
        <ele>33.799999237061</ele>
        <time>2016-05-16T19:08:37.000Z</time>
      </trkpt>
      <trkpt lat="48.84114" lon="2.22623">
        <ele>33.400001525879</ele>
        <time>2016-05-16T19:08:42.000Z</time>
      </trkpt>
      <trkpt lat="48.84119" lon="2.22594">
        <ele>33</ele>
        <time>2016-05-16T19:08:48.000Z</time>
      </trkpt>
      <trkpt lat="48.84123" lon="2.22568">
        <ele>32</ele>
        <time>2016-05-16T19:08:55.000Z</time>
      </trkpt>
      <trkpt lat="48.84124" lon="2.22539">
        <ele>31</ele>
        <time>2016-05-16T19:09:01.000Z</time>
      </trkpt>
      <trkpt lat="48.84129" lon="2.22512">
        <ele>29.60000038147</ele>
        <time>2016-05-16T19:09:07.000Z</time>
      </trkpt>
      <trkpt lat="48.84134" lon="2.22483">
        <ele>27.60000038147</ele>
        <time>2016-05-16T19:09:13.000Z</time>
      </trkpt>
      <trkpt lat="48.84138" lon="2.22453">
        <ele>24.799999237061</ele>
        <time>2016-05-16T19:09:19.000Z</time>
      </trkpt>
      <trkpt lat="48.84141" lon="2.22424">
        <ele>21.799999237061</ele>
        <time>2016-05-16T19:09:24.000Z</time>
      </trkpt>
      <trkpt lat="48.84145" lon="2.22394">
        <ele>20.200000762939</ele>
        <time>2016-05-16T19:09:29.000Z</time>
      </trkpt>
      <trkpt lat="48.84147" lon="2.22366">
        <ele>20.200000762939</ele>
        <time>2016-05-16T19:09:35.000Z</time>
      </trkpt>
      <trkpt lat="48.8415" lon="2.22334">
        <ele>21.200000762939</ele>
        <time>2016-05-16T19:09:41.000Z</time>
      </trkpt>
      <trkpt lat="48.84152" lon="2.22304">
        <ele>22.799999237061</ele>
        <time>2016-05-16T19:09:47.000Z</time>
      </trkpt>
      <trkpt lat="48.84154" lon="2.22275">
        <ele>26</ele>
        <time>2016-05-16T19:09:54.000Z</time>
      </trkpt>
      <trkpt lat="48.84156" lon="2.22265">
        <ele>27.60000038147</ele>
        <time>2016-05-16T19:09:57.000Z</time>
      </trkpt>
      <trkpt lat="48.84163" lon="2.2225">
        <ele>30.200000762939</ele>
        <time>2016-05-16T19:10:47.000Z</time>
      </trkpt>
      <trkpt lat="48.84169" lon="2.22239">
        <ele>31.799999237061</ele>
        <time>2016-05-16T19:11:20.000Z</time>
      </trkpt>
      <trkpt lat="48.84166" lon="2.22226">
        <ele>33.400001525879</ele>
        <time>2016-05-16T19:11:41.000Z</time>
      </trkpt>
      <trkpt lat="48.84174" lon="2.22208">
        <ele>36</ele>
        <time>2016-05-16T19:11:58.000Z</time>
      </trkpt>
      <trkpt lat="48.84175" lon="2.22198">
        <ele>37.200000762939</ele>
        <time>2016-05-16T19:12:03.000Z</time>
      </trkpt>
      <trkpt lat="48.84178" lon="2.2217">
        <ele>40.599998474121</ele>
        <time>2016-05-16T19:12:11.000Z</time>
      </trkpt>
      <trkpt lat="48.84181" lon="2.22165">
        <ele>41.400001525879</ele>
        <time>2016-05-16T19:12:13.000Z</time>
      </trkpt>
      <trkpt lat="48.84194" lon="2.22144">
        <ele>42.599998474121</ele>
        <time>2016-05-16T19:12:22.000Z</time>
      </trkpt>
      <trkpt lat="48.84195" lon="2.22141">
        <ele>42.599998474121</ele>
        <time>2016-05-16T19:12:24.000Z</time>
      </trkpt>
      <trkpt lat="48.84195" lon="2.2214">
        <ele>42.599998474121</ele>
        <time>2016-05-16T19:12:25.000Z</time>
      </trkpt>
      <trkpt lat="48.84188" lon="2.22115">
        <ele>43.799999237061</ele>
        <time>2016-05-16T19:12:36.000Z</time>
      </trkpt>
      <trkpt lat="48.84191" lon="2.22106">
        <ele>44</ele>
        <time>2016-05-16T19:12:39.000Z</time>
      </trkpt>
      <trkpt lat="48.84192" lon="2.22097">
        <ele>44.200000762939</ele>
        <time>2016-05-16T19:12:43.000Z</time>
      </trkpt>
      <trkpt lat="48.84192" lon="2.22089">
        <ele>44.599998474121</ele>
        <time>2016-05-16T19:12:45.000Z</time>
      </trkpt>
      <trkpt lat="48.84196" lon="2.2206">
        <ele>47.200000762939</ele>
        <time>2016-05-16T19:12:52.000Z</time>
      </trkpt>
      <trkpt lat="48.84199" lon="2.2203">
        <ele>50.200000762939</ele>
        <time>2016-05-16T19:12:59.000Z</time>
      </trkpt>
      <trkpt lat="48.842" lon="2.22015">
        <ele>51.799999237061</ele>
        <time>2016-05-16T19:13:03.000Z</time>
      </trkpt>
      <trkpt lat="48.84205" lon="2.21986">
        <ele>54.200000762939</ele>
        <time>2016-05-16T19:13:10.000Z</time>
      </trkpt>
      <trkpt lat="48.84208" lon="2.21959">
        <ele>57</ele>
        <time>2016-05-16T19:13:16.000Z</time>
      </trkpt>
      <trkpt lat="48.84211" lon="2.21934">
        <ele>59.400001525879</ele>
        <time>2016-05-16T19:13:26.000Z</time>
      </trkpt>
      <trkpt lat="48.84219" lon="2.21933">
        <ele>59.799999237061</ele>
        <time>2016-05-16T19:14:37.000Z</time>
      </trkpt>
      <trkpt lat="48.84199" lon="2.21938">
        <ele>58.799999237061</ele>
        <time>2016-05-16T19:14:51.000Z</time>
      </trkpt>
      <trkpt lat="48.84181" lon="2.21935">
        <ele>58.599998474121</ele>
        <time>2016-05-16T19:15:00.000Z</time>
      </trkpt>
      <trkpt lat="48.84162" lon="2.21935">
        <ele>58.200000762939</ele>
        <time>2016-05-16T19:15:07.000Z</time>
      </trkpt>
      <trkpt lat="48.84143" lon="2.21933">
        <ele>58</ele>
        <time>2016-05-16T19:15:13.000Z</time>
      </trkpt>
      <trkpt lat="48.84131" lon="2.21929">
        <ele>58</ele>
        <time>2016-05-16T19:15:18.000Z</time>
      </trkpt>
      <trkpt lat="48.84119" lon="2.21912">
        <ele>59.400001525879</ele>
        <time>2016-05-16T19:15:27.000Z</time>
      </trkpt>
      <trkpt lat="48.84126" lon="2.21884">
        <ele>61.400001525879</ele>
        <time>2016-05-16T19:15:33.000Z</time>
      </trkpt>
      <trkpt lat="48.84131" lon="2.21855">
        <ele>63.599998474121</ele>
        <time>2016-05-16T19:15:41.000Z</time>
      </trkpt>
      <trkpt lat="48.84132" lon="2.21853">
        <ele>64</ele>
        <time>2016-05-16T19:15:42.000Z</time>
      </trkpt>
      <trkpt lat="48.84138" lon="2.21839">
        <ele>65.800003051758</ele>
        <time>2016-05-16T19:15:46.000Z</time>
      </trkpt>
      <trkpt lat="48.8414" lon="2.21825">
        <ele>67.400001525879</ele>
        <time>2016-05-16T19:15:50.000Z</time>
      </trkpt>
      <trkpt lat="48.84147" lon="2.21798">
        <ele>70.199996948242</ele>
        <time>2016-05-16T19:15:58.000Z</time>
      </trkpt>
      <trkpt lat="48.84151" lon="2.21793">
        <ele>70.599998474121</ele>
        <time>2016-05-16T19:16:00.000Z</time>
      </trkpt>
      <trkpt lat="48.84154" lon="2.21782">
        <ele>72.199996948242</ele>
        <time>2016-05-16T19:16:06.000Z</time>
      </trkpt>
      <trkpt lat="48.84156" lon="2.21772">
        <ele>73.400001525879</ele>
        <time>2016-05-16T19:16:11.000Z</time>
      </trkpt>
      <trkpt lat="48.8415" lon="2.21768">
        <ele>73.199996948242</ele>
        <time>2016-05-16T19:16:22.000Z</time>
      </trkpt>
      <trkpt lat="48.84142" lon="2.21766">
        <ele>72.800003051758</ele>
        <time>2016-05-16T19:17:33.000Z</time>
      </trkpt>
      <trkpt lat="48.84124" lon="2.2176">
        <ele>72</ele>
        <time>2016-05-16T19:17:41.000Z</time>
      </trkpt>
      <trkpt lat="48.84104" lon="2.21755">
        <ele>71.199996948242</ele>
        <time>2016-05-16T19:17:48.000Z</time>
      </trkpt>
      <trkpt lat="48.84086" lon="2.21751">
        <ele>71</ele>
        <time>2016-05-16T19:17:55.000Z</time>
      </trkpt>
      <trkpt lat="48.84077" lon="2.21749">
        <ele>71</ele>
        <time>2016-05-16T19:18:00.000Z</time>
      </trkpt>
      <trkpt lat="48.84065" lon="2.21747">
        <ele>70.800003051758</ele>
        <time>2016-05-16T19:18:12.000Z</time>
      </trkpt>
      <trkpt lat="48.84059" lon="2.21744">
        <ele>71</ele>
        <time>2016-05-16T19:18:15.000Z</time>
      </trkpt>
      <trkpt lat="48.84043" lon="2.21738">
        <ele>72</ele>
        <time>2016-05-16T19:18:22.000Z</time>
      </trkpt>
      <trkpt lat="48.84032" lon="2.21733">
        <ele>72.800003051758</ele>
        <time>2016-05-16T19:18:28.000Z</time>
      </trkpt>
      <trkpt lat="48.84023" lon="2.21729">
        <ele>73.400001525879</ele>
        <time>2016-05-16T19:18:34.000Z</time>
      </trkpt>
      <trkpt lat="48.84005" lon="2.2172">
        <ele>74.599998474121</ele>
        <time>2016-05-16T19:18:45.000Z</time>
      </trkpt>
      <trkpt lat="48.84" lon="2.21719">
        <ele>74.800003051758</ele>
        <time>2016-05-16T19:18:48.000Z</time>
      </trkpt>
      <trkpt lat="48.83985" lon="2.21712">
        <ele>76</ele>
        <time>2016-05-16T19:19:00.000Z</time>
      </trkpt>
      <trkpt lat="48.83972" lon="2.21698">
        <ele>78.400001525879</ele>
        <time>2016-05-16T19:19:32.000Z</time>
      </trkpt>
      <trkpt lat="48.83957" lon="2.217">
        <ele>77.800003051758</ele>
        <time>2016-05-16T19:19:41.000Z</time>
      </trkpt>
      <trkpt lat="48.83949" lon="2.21706">
        <ele>76.199996948242</ele>
        <time>2016-05-16T19:20:34.000Z</time>
      </trkpt>
      <trkpt lat="48.83943" lon="2.21708">
        <ele>75.800003051758</ele>
        <time>2016-05-16T19:21:51.000Z</time>
      </trkpt>
      <trkpt lat="48.83935" lon="2.21697">
        <ele>77.400001525879</ele>
        <time>2016-05-16T19:22:17.000Z</time>
      </trkpt>
      <trkpt lat="48.83917" lon="2.21692">
        <ele>76.400001525879</ele>
        <time>2016-05-16T19:22:34.000Z</time>
      </trkpt>
      <trkpt lat="48.83898" lon="2.21685">
        <ele>76</ele>
        <time>2016-05-16T19:22:44.000Z</time>
      </trkpt>
      <trkpt lat="48.83881" lon="2.21679">
        <ele>75.199996948242</ele>
        <time>2016-05-16T19:22:54.000Z</time>
      </trkpt>
      <trkpt lat="48.83863" lon="2.2167">
        <ele>75.199996948242</ele>
        <time>2016-05-16T19:23:05.000Z</time>
      </trkpt>
      <trkpt lat="48.8386" lon="2.21669">
        <ele>75.199996948242</ele>
        <time>2016-05-16T19:23:08.000Z</time>
      </trkpt>
      <trkpt lat="48.83856" lon="2.2167">
        <ele>75</ele>
        <time>2016-05-16T19:23:12.000Z</time>
      </trkpt>
      <trkpt lat="48.83838" lon="2.21665">
        <ele>72.800003051758</ele>
        <time>2016-05-16T19:23:28.000Z</time>
      </trkpt>
      <trkpt lat="48.83836" lon="2.21665">
        <ele>72.599998474121</ele>
        <time>2016-05-16T19:23:29.000Z</time>
      </trkpt>
      <trkpt lat="48.83834" lon="2.21664">
        <ele>72.199996948242</ele>
        <time>2016-05-16T19:23:33.000Z</time>
      </trkpt>
      <trkpt lat="48.83821" lon="2.21658">
        <ele>70.800003051758</ele>
        <time>2016-05-16T19:24:40.000Z</time>
      </trkpt>
      <trkpt lat="48.83814" lon="2.21649">
        <ele>70.199996948242</ele>
        <time>2016-05-16T19:25:38.000Z</time>
      </trkpt>
      <trkpt lat="48.83814" lon="2.21644">
        <ele>70.400001525879</ele>
        <time>2016-05-16T19:25:41.000Z</time>
      </trkpt>
      <trkpt lat="48.83809" lon="2.21615">
        <ele>71</ele>
        <time>2016-05-16T19:25:53.000Z</time>
      </trkpt>
      <trkpt lat="48.83806" lon="2.21587">
        <ele>73.199996948242</ele>
        <time>2016-05-16T19:26:00.000Z</time>
      </trkpt>
      <trkpt lat="48.83803" lon="2.2156">
        <ele>74.199996948242</ele>
        <time>2016-05-16T19:26:07.000Z</time>
      </trkpt>
      <trkpt lat="48.838" lon="2.2153">
        <ele>75.599998474121</ele>
        <time>2016-05-16T19:26:15.000Z</time>
      </trkpt>
      <trkpt lat="48.838" lon="2.21501">
        <ele>77</ele>
        <time>2016-05-16T19:26:22.000Z</time>
      </trkpt>
      <trkpt lat="48.83798" lon="2.21472">
        <ele>78</ele>
        <time>2016-05-16T19:26:28.000Z</time>
      </trkpt>
      <trkpt lat="48.83797" lon="2.21444">
        <ele>79.199996948242</ele>
        <time>2016-05-16T19:26:34.000Z</time>
      </trkpt>
      <trkpt lat="48.838" lon="2.21415">
        <ele>80.199996948242</ele>
        <time>2016-05-16T19:26:39.000Z</time>
      </trkpt>
      <trkpt lat="48.838" lon="2.21385">
        <ele>81.599998474121</ele>
        <time>2016-05-16T19:26:45.000Z</time>
      </trkpt>
      <trkpt lat="48.838" lon="2.21355">
        <ele>83</ele>
        <time>2016-05-16T19:26:51.000Z</time>
      </trkpt>
      <trkpt lat="48.838" lon="2.21327">
        <ele>83</ele>
        <time>2016-05-16T19:26:57.000Z</time>
      </trkpt>
      <trkpt lat="48.838" lon="2.21299">
        <ele>82.599998474121</ele>
        <time>2016-05-16T19:27:03.000Z</time>
      </trkpt>
      <trkpt lat="48.83801" lon="2.21269">
        <ele>82.400001525879</ele>
        <time>2016-05-16T19:27:09.000Z</time>
      </trkpt>
      <trkpt lat="48.83802" lon="2.2124">
        <ele>82.599998474121</ele>
        <time>2016-05-16T19:27:16.000Z</time>
      </trkpt>
      <trkpt lat="48.838" lon="2.21211">
        <ele>82.800003051758</ele>
        <time>2016-05-16T19:27:28.000Z</time>
      </trkpt>
      <trkpt lat="48.83797" lon="2.21184">
        <ele>82.800003051758</ele>
        <time>2016-05-16T19:27:35.000Z</time>
      </trkpt>
      <trkpt lat="48.83796" lon="2.21154">
        <ele>83.400001525879</ele>
        <time>2016-05-16T19:27:42.000Z</time>
      </trkpt>
      <trkpt lat="48.83793" lon="2.21135">
        <ele>84</ele>
        <time>2016-05-16T19:27:47.000Z</time>
      </trkpt>
      <trkpt lat="48.83781" lon="2.21113">
        <ele>84</ele>
        <time>2016-05-16T19:27:53.000Z</time>
      </trkpt>
      <trkpt lat="48.83771" lon="2.21088">
        <ele>84.599998474121</ele>
        <time>2016-05-16T19:27:59.000Z</time>
      </trkpt>
      <trkpt lat="48.83753" lon="2.21078">
        <ele>85.800003051758</ele>
        <time>2016-05-16T19:28:07.000Z</time>
      </trkpt>
      <trkpt lat="48.83747" lon="2.21071">
        <ele>86.199996948242</ele>
        <time>2016-05-16T19:28:12.000Z</time>
      </trkpt>
      <trkpt lat="48.83745" lon="2.21045">
        <ele>87.599998474121</ele>
        <time>2016-05-16T19:28:43.000Z</time>
      </trkpt>
      <trkpt lat="48.83741" lon="2.21015">
        <ele>88.800003051758</ele>
        <time>2016-05-16T19:28:49.000Z</time>
      </trkpt>
      <trkpt lat="48.8374" lon="2.21003">
        <ele>89.199996948242</ele>
        <time>2016-05-16T19:28:51.000Z</time>
      </trkpt>
      <trkpt lat="48.83737" lon="2.20974">
        <ele>91</ele>
        <time>2016-05-16T19:28:55.000Z</time>
      </trkpt>
      <trkpt lat="48.83735" lon="2.20945">
        <ele>92.800003051758</ele>
        <time>2016-05-16T19:28:59.000Z</time>
      </trkpt>
      <trkpt lat="48.83732" lon="2.20918">
        <ele>94.599998474121</ele>
        <time>2016-05-16T19:29:03.000Z</time>
      </trkpt>
      <trkpt lat="48.8373" lon="2.20885">
        <ele>95</ele>
        <time>2016-05-16T19:29:08.000Z</time>
      </trkpt>
      <trkpt lat="48.8373" lon="2.20854">
        <ele>95.800003051758</ele>
        <time>2016-05-16T19:29:13.000Z</time>
      </trkpt>
      <trkpt lat="48.83728" lon="2.2084">
        <ele>96.400001525879</ele>
        <time>2016-05-16T19:29:16.000Z</time>
      </trkpt>
      <trkpt lat="48.83726" lon="2.20818">
        <ele>97.199996948242</ele>
        <time>2016-05-16T19:29:21.000Z</time>
      </trkpt>
      <trkpt lat="48.83726" lon="2.20791">
        <ele>97.800003051758</ele>
        <time>2016-05-16T19:29:31.000Z</time>
      </trkpt>
      <trkpt lat="48.83736" lon="2.20777">
        <ele>97.800003051758</ele>
        <time>2016-05-16T19:30:28.000Z</time>
      </trkpt>
      <trkpt lat="48.83742" lon="2.20755">
        <ele>97.800003051758</ele>
        <time>2016-05-16T19:30:36.000Z</time>
      </trkpt>
      <trkpt lat="48.83737" lon="2.20735">
        <ele>97.800003051758</ele>
        <time>2016-05-16T19:30:43.000Z</time>
      </trkpt>
      <trkpt lat="48.83729" lon="2.20709">
        <ele>97.599998474121</ele>
        <time>2016-05-16T19:30:53.000Z</time>
      </trkpt>
      <trkpt lat="48.83721" lon="2.20684">
        <ele>97.400001525879</ele>
        <time>2016-05-16T19:31:01.000Z</time>
      </trkpt>
      <trkpt lat="48.83715" lon="2.20658">
        <ele>97.199996948242</ele>
        <time>2016-05-16T19:31:11.000Z</time>
      </trkpt>
      <trkpt lat="48.83714" lon="2.20629">
        <ele>97.400001525879</ele>
        <time>2016-05-16T19:31:20.000Z</time>
      </trkpt>
      <trkpt lat="48.83712" lon="2.20601">
        <ele>97.800003051758</ele>
        <time>2016-05-16T19:31:27.000Z</time>
      </trkpt>
      <trkpt lat="48.83711" lon="2.20573">
        <ele>98.400001525879</ele>
        <time>2016-05-16T19:31:33.000Z</time>
      </trkpt>
      <trkpt lat="48.83711" lon="2.20544">
        <ele>99</ele>
        <time>2016-05-16T19:31:39.000Z</time>
      </trkpt>
      <trkpt lat="48.8371" lon="2.20517">
        <ele>99.800003051758</ele>
        <time>2016-05-16T19:31:43.000Z</time>
      </trkpt>
      <trkpt lat="48.83707" lon="2.20489">
        <ele>99.800003051758</ele>
        <time>2016-05-16T19:31:46.000Z</time>
      </trkpt>
      <trkpt lat="48.83704" lon="2.2046">
        <ele>100</ele>
        <time>2016-05-16T19:31:50.000Z</time>
      </trkpt>
      <trkpt lat="48.83699" lon="2.20428">
        <ele>100.40000152588</ele>
        <time>2016-05-16T19:31:54.000Z</time>
      </trkpt>
      <trkpt lat="48.83695" lon="2.20396">
        <ele>100.19999694824</ele>
        <time>2016-05-16T19:31:59.000Z</time>
      </trkpt>
      <trkpt lat="48.83693" lon="2.20381">
        <ele>99.800003051758</ele>
        <time>2016-05-16T19:32:02.000Z</time>
      </trkpt>
      <trkpt lat="48.83693" lon="2.20364">
        <ele>99.599998474121</ele>
        <time>2016-05-16T19:32:05.000Z</time>
      </trkpt>
      <trkpt lat="48.83692" lon="2.20334">
        <ele>98.800003051758</ele>
        <time>2016-05-16T19:32:10.000Z</time>
      </trkpt>
      <trkpt lat="48.83689" lon="2.20307">
        <ele>99.199996948242</ele>
        <time>2016-05-16T19:32:14.000Z</time>
      </trkpt>
      <trkpt lat="48.83688" lon="2.20287">
        <ele>99.599998474121</ele>
        <time>2016-05-16T19:32:17.000Z</time>
      </trkpt>
      <trkpt lat="48.83688" lon="2.20268">
        <ele>99.800003051758</ele>
        <time>2016-05-16T19:32:20.000Z</time>
      </trkpt>
      <trkpt lat="48.83685" lon="2.2024">
        <ele>100.40000152588</ele>
        <time>2016-05-16T19:32:25.000Z</time>
      </trkpt>
      <trkpt lat="48.83684" lon="2.20227">
        <ele>100.80000305176</ele>
        <time>2016-05-16T19:32:27.000Z</time>
      </trkpt>
      <trkpt lat="48.83682" lon="2.202">
        <ele>101.59999847412</ele>
        <time>2016-05-16T19:32:31.000Z</time>
      </trkpt>
      <trkpt lat="48.83681" lon="2.20172">
        <ele>102.19999694824</ele>
        <time>2016-05-16T19:32:36.000Z</time>
      </trkpt>
      <trkpt lat="48.8368" lon="2.20167">
        <ele>102.40000152588</ele>
        <time>2016-05-16T19:32:37.000Z</time>
      </trkpt>
      <trkpt lat="48.83677" lon="2.20136">
        <ele>102.80000305176</ele>
        <time>2016-05-16T19:32:42.000Z</time>
      </trkpt>
      <trkpt lat="48.83675" lon="2.20104">
        <ele>102.59999847412</ele>
        <time>2016-05-16T19:32:47.000Z</time>
      </trkpt>
      <trkpt lat="48.83672" lon="2.2007">
        <ele>102.59999847412</ele>
        <time>2016-05-16T19:32:52.000Z</time>
      </trkpt>
      <trkpt lat="48.8367" lon="2.20042">
        <ele>103</ele>
        <time>2016-05-16T19:32:56.000Z</time>
      </trkpt>
      <trkpt lat="48.83666" lon="2.20008">
        <ele>104</ele>
        <time>2016-05-16T19:33:01.000Z</time>
      </trkpt>
      <trkpt lat="48.83664" lon="2.19977">
        <ele>104.40000152588</ele>
        <time>2016-05-16T19:33:06.000Z</time>
      </trkpt>
      <trkpt lat="48.83664" lon="2.19949">
        <ele>104.59999847412</ele>
        <time>2016-05-16T19:33:09.000Z</time>
      </trkpt>
      <trkpt lat="48.83666" lon="2.19939">
        <ele>104.80000305176</ele>
        <time>2016-05-16T19:33:10.000Z</time>
      </trkpt>
      <trkpt lat="48.83664" lon="2.19909">
        <ele>105.59999847412</ele>
        <time>2016-05-16T19:33:15.000Z</time>
      </trkpt>
      <trkpt lat="48.8366" lon="2.1988">
        <ele>105.80000305176</ele>
        <time>2016-05-16T19:33:20.000Z</time>
      </trkpt>
      <trkpt lat="48.8366" lon="2.19874">
        <ele>106</ele>
        <time>2016-05-16T19:33:21.000Z</time>
      </trkpt>
      <trkpt lat="48.8366" lon="2.19863">
        <ele>106.19999694824</ele>
        <time>2016-05-16T19:33:23.000Z</time>
      </trkpt>
      <trkpt lat="48.83657" lon="2.19842">
        <ele>106.59999847412</ele>
        <time>2016-05-16T19:33:27.000Z</time>
      </trkpt>
      <trkpt lat="48.83657" lon="2.19836">
        <ele>106.80000305176</ele>
        <time>2016-05-16T19:33:28.000Z</time>
      </trkpt>
      <trkpt lat="48.83657" lon="2.19803">
        <ele>107.40000152588</ele>
        <time>2016-05-16T19:33:33.000Z</time>
      </trkpt>
      <trkpt lat="48.83654" lon="2.1977">
        <ele>108</ele>
        <time>2016-05-16T19:33:38.000Z</time>
      </trkpt>
      <trkpt lat="48.83655" lon="2.19742">
        <ele>108.80000305176</ele>
        <time>2016-05-16T19:33:43.000Z</time>
      </trkpt>
      <trkpt lat="48.83655" lon="2.19725">
        <ele>109.59999847412</ele>
        <time>2016-05-16T19:33:46.000Z</time>
      </trkpt>
      <trkpt lat="48.83653" lon="2.19698">
        <ele>110.40000152588</ele>
        <time>2016-05-16T19:33:51.000Z</time>
      </trkpt>
      <trkpt lat="48.8365" lon="2.19667">
        <ele>110.80000305176</ele>
        <time>2016-05-16T19:33:56.000Z</time>
      </trkpt>
      <trkpt lat="48.83648" lon="2.19639">
        <ele>111.59999847412</ele>
        <time>2016-05-16T19:34:01.000Z</time>
      </trkpt>
      <trkpt lat="48.83645" lon="2.19605">
        <ele>112</ele>
        <time>2016-05-16T19:34:06.000Z</time>
      </trkpt>
      <trkpt lat="48.83643" lon="2.19573">
        <ele>112</ele>
        <time>2016-05-16T19:34:11.000Z</time>
      </trkpt>
      <trkpt lat="48.83642" lon="2.19544">
        <ele>113.40000152588</ele>
        <time>2016-05-16T19:34:16.000Z</time>
      </trkpt>
      <trkpt lat="48.83639" lon="2.19516">
        <ele>114.59999847412</ele>
        <time>2016-05-16T19:34:20.000Z</time>
      </trkpt>
      <trkpt lat="48.83636" lon="2.1949">
        <ele>115.59999847412</ele>
        <time>2016-05-16T19:34:24.000Z</time>
      </trkpt>
      <trkpt lat="48.83631" lon="2.19459">
        <ele>116.80000305176</ele>
        <time>2016-05-16T19:34:28.000Z</time>
      </trkpt>
      <trkpt lat="48.83627" lon="2.19429">
        <ele>117.80000305176</ele>
        <time>2016-05-16T19:34:33.000Z</time>
      </trkpt>
      <trkpt lat="48.83627" lon="2.19397">
        <ele>118.19999694824</ele>
        <time>2016-05-16T19:34:39.000Z</time>
      </trkpt>
      <trkpt lat="48.83625" lon="2.19365">
        <ele>118.40000152588</ele>
        <time>2016-05-16T19:34:44.000Z</time>
      </trkpt>
      <trkpt lat="48.83622" lon="2.19333">
        <ele>119.40000152588</ele>
        <time>2016-05-16T19:34:48.000Z</time>
      </trkpt>
      <trkpt lat="48.83619" lon="2.19296">
        <ele>120.40000152588</ele>
        <time>2016-05-16T19:34:52.000Z</time>
      </trkpt>
      <trkpt lat="48.83618" lon="2.19274">
        <ele>121</ele>
        <time>2016-05-16T19:34:55.000Z</time>
      </trkpt>
      <trkpt lat="48.83616" lon="2.19245">
        <ele>121.80000305176</ele>
        <time>2016-05-16T19:34:59.000Z</time>
      </trkpt>
      <trkpt lat="48.83613" lon="2.19214">
        <ele>123.40000152588</ele>
        <time>2016-05-16T19:35:03.000Z</time>
      </trkpt>
      <trkpt lat="48.83612" lon="2.19192">
        <ele>124.40000152588</ele>
        <time>2016-05-16T19:35:06.000Z</time>
      </trkpt>
      <trkpt lat="48.83609" lon="2.19161">
        <ele>125.80000305176</ele>
        <time>2016-05-16T19:35:10.000Z</time>
      </trkpt>
      <trkpt lat="48.83606" lon="2.19132">
        <ele>126.40000152588</ele>
        <time>2016-05-16T19:35:14.000Z</time>
      </trkpt>
      <trkpt lat="48.83602" lon="2.19102">
        <ele>126.80000305176</ele>
        <time>2016-05-16T19:35:21.000Z</time>
      </trkpt>
      <trkpt lat="48.83602" lon="2.19098">
        <ele>127</ele>
        <time>2016-05-16T19:35:22.000Z</time>
      </trkpt>
      <trkpt lat="48.83601" lon="2.19081">
        <ele>127.19999694824</ele>
        <time>2016-05-16T19:35:27.000Z</time>
      </trkpt>
      <trkpt lat="48.836" lon="2.19073">
        <ele>127.19999694824</ele>
        <time>2016-05-16T19:35:29.000Z</time>
      </trkpt>
      <trkpt lat="48.83599" lon="2.19042">
        <ele>127.40000152588</ele>
        <time>2016-05-16T19:35:35.000Z</time>
      </trkpt>
      <trkpt lat="48.83599" lon="2.1903">
        <ele>127.40000152588</ele>
        <time>2016-05-16T19:35:37.000Z</time>
      </trkpt>
      <trkpt lat="48.83597" lon="2.19003">
        <ele>127.40000152588</ele>
        <time>2016-05-16T19:35:42.000Z</time>
      </trkpt>
      <trkpt lat="48.83596" lon="2.18971">
        <ele>128</ele>
        <time>2016-05-16T19:35:48.000Z</time>
      </trkpt>
      <trkpt lat="48.83594" lon="2.18938">
        <ele>128.60000610352</ele>
        <time>2016-05-16T19:35:53.000Z</time>
      </trkpt>
      <trkpt lat="48.83592" lon="2.18908">
        <ele>129</ele>
        <time>2016-05-16T19:35:58.000Z</time>
      </trkpt>
      <trkpt lat="48.83591" lon="2.18887">
        <ele>129</ele>
        <time>2016-05-16T19:36:03.000Z</time>
      </trkpt>
      <trkpt lat="48.83591" lon="2.18877">
        <ele>129</ele>
        <time>2016-05-16T19:36:06.000Z</time>
      </trkpt>
      <trkpt lat="48.83584" lon="2.18867">
        <ele>129.60000610352</ele>
        <time>2016-05-16T19:37:14.000Z</time>
      </trkpt>
      <trkpt lat="48.83587" lon="2.18874">
        <ele>129.39999389648</ele>
        <time>2016-05-16T19:39:16.000Z</time>
      </trkpt>
      <trkpt lat="48.83594" lon="2.18877">
        <ele>128.80000305176</ele>
        <time>2016-05-16T19:39:43.000Z</time>
      </trkpt>
      <trkpt lat="48.83592" lon="2.18874">
        <ele>129</ele>
        <time>2016-05-16T19:39:52.000Z</time>
      </trkpt>
      <trkpt lat="48.83578" lon="2.18862">
        <ele>130</ele>
        <time>2016-05-16T19:40:31.000Z</time>
      </trkpt>
      <trkpt lat="48.83571" lon="2.18836">
        <ele>130.60000610352</ele>
        <time>2016-05-16T19:40:38.000Z</time>
      </trkpt>
      <trkpt lat="48.83564" lon="2.18807">
        <ele>129.80000305176</ele>
        <time>2016-05-16T19:40:43.000Z</time>
      </trkpt>
      <trkpt lat="48.83558" lon="2.18781">
        <ele>128.60000610352</ele>
        <time>2016-05-16T19:40:47.000Z</time>
      </trkpt>
      <trkpt lat="48.83547" lon="2.18754">
        <ele>127.40000152588</ele>
        <time>2016-05-16T19:40:52.000Z</time>
      </trkpt>
      <trkpt lat="48.83534" lon="2.18733">
        <ele>126.59999847412</ele>
        <time>2016-05-16T19:40:56.000Z</time>
      </trkpt>
      <trkpt lat="48.83518" lon="2.18717">
        <ele>126.80000305176</ele>
        <time>2016-05-16T19:41:00.000Z</time>
      </trkpt>
      <trkpt lat="48.835" lon="2.18708">
        <ele>127.80000305176</ele>
        <time>2016-05-16T19:41:05.000Z</time>
      </trkpt>
      <trkpt lat="48.8348" lon="2.18691">
        <ele>128.39999389648</ele>
        <time>2016-05-16T19:41:10.000Z</time>
      </trkpt>
      <trkpt lat="48.83465" lon="2.18676">
        <ele>128.60000610352</ele>
        <time>2016-05-16T19:41:14.000Z</time>
      </trkpt>
      <trkpt lat="48.8345" lon="2.18657">
        <ele>128.80000305176</ele>
        <time>2016-05-16T19:41:19.000Z</time>
      </trkpt>
      <trkpt lat="48.83444" lon="2.18646">
        <ele>129.39999389648</ele>
        <time>2016-05-16T19:41:22.000Z</time>
      </trkpt>
      <trkpt lat="48.83433" lon="2.18623">
        <ele>129.80000305176</ele>
        <time>2016-05-16T19:41:27.000Z</time>
      </trkpt>
      <trkpt lat="48.83422" lon="2.18597">
        <ele>130.19999694824</ele>
        <time>2016-05-16T19:41:33.000Z</time>
      </trkpt>
      <trkpt lat="48.83409" lon="2.18575">
        <ele>130.80000305176</ele>
        <time>2016-05-16T19:41:38.000Z</time>
      </trkpt>
      <trkpt lat="48.83404" lon="2.18549">
        <ele>130.80000305176</ele>
        <time>2016-05-16T19:41:45.000Z</time>
      </trkpt>
      <trkpt lat="48.83407" lon="2.18544">
        <ele>130.39999389648</ele>
        <time>2016-05-16T19:41:48.000Z</time>
      </trkpt>
      <trkpt lat="48.83418" lon="2.1854">
        <ele>129.39999389648</ele>
        <time>2016-05-16T19:41:52.000Z</time>
      </trkpt>
      <trkpt lat="48.83438" lon="2.18538">
        <ele>127.59999847412</ele>
        <time>2016-05-16T19:41:58.000Z</time>
      </trkpt>
      <trkpt lat="48.83458" lon="2.18534">
        <ele>125.80000305176</ele>
        <time>2016-05-16T19:42:02.000Z</time>
      </trkpt>
      <trkpt lat="48.83478" lon="2.18531">
        <ele>124.19999694824</ele>
        <time>2016-05-16T19:42:06.000Z</time>
      </trkpt>
      <trkpt lat="48.83496" lon="2.18529">
        <ele>123.59999847412</ele>
        <time>2016-05-16T19:42:10.000Z</time>
      </trkpt>
      <trkpt lat="48.83516" lon="2.18527">
        <ele>122.80000305176</ele>
        <time>2016-05-16T19:42:15.000Z</time>
      </trkpt>
      <trkpt lat="48.83535" lon="2.18521">
        <ele>121.40000152588</ele>
        <time>2016-05-16T19:42:22.000Z</time>
      </trkpt>
      <trkpt lat="48.83553" lon="2.18519">
        <ele>120.19999694824</ele>
        <time>2016-05-16T19:42:32.000Z</time>
      </trkpt>
      <trkpt lat="48.83571" lon="2.18518">
        <ele>119.59999847412</ele>
        <time>2016-05-16T19:42:47.000Z</time>
      </trkpt>
      <trkpt lat="48.83591" lon="2.18515">
        <ele>119.19999694824</ele>
        <time>2016-05-16T19:43:04.000Z</time>
      </trkpt>
      <trkpt lat="48.8361" lon="2.18513">
        <ele>118.59999847412</ele>
        <time>2016-05-16T19:43:10.000Z</time>
      </trkpt>
      <trkpt lat="48.8363" lon="2.18504">
        <ele>117.40000152588</ele>
        <time>2016-05-16T19:43:16.000Z</time>
      </trkpt>
      <trkpt lat="48.83647" lon="2.18491">
        <ele>115.59999847412</ele>
        <time>2016-05-16T19:43:23.000Z</time>
      </trkpt>
      <trkpt lat="48.83667" lon="2.18483">
        <ele>113.59999847412</ele>
        <time>2016-05-16T19:43:31.000Z</time>
      </trkpt>
      <trkpt lat="48.83687" lon="2.18475">
        <ele>111.40000152588</ele>
        <time>2016-05-16T19:43:37.000Z</time>
      </trkpt>
      <trkpt lat="48.83705" lon="2.18469">
        <ele>111.59999847412</ele>
        <time>2016-05-16T19:43:45.000Z</time>
      </trkpt>
      <trkpt lat="48.83723" lon="2.18477">
        <ele>112</ele>
        <time>2016-05-16T19:43:53.000Z</time>
      </trkpt>
      <trkpt lat="48.83736" lon="2.18501">
        <ele>112</ele>
        <time>2016-05-16T19:43:59.000Z</time>
      </trkpt>
      <trkpt lat="48.83747" lon="2.18526">
        <ele>111.59999847412</ele>
        <time>2016-05-16T19:44:05.000Z</time>
      </trkpt>
      <trkpt lat="48.83758" lon="2.18547">
        <ele>111.40000152588</ele>
        <time>2016-05-16T19:44:11.000Z</time>
      </trkpt>
      <trkpt lat="48.8377" lon="2.18573">
        <ele>111</ele>
        <time>2016-05-16T19:44:18.000Z</time>
      </trkpt>
      <trkpt lat="48.83783" lon="2.18596">
        <ele>111.19999694824</ele>
        <time>2016-05-16T19:44:24.000Z</time>
      </trkpt>
      <trkpt lat="48.83799" lon="2.18609">
        <ele>111.40000152588</ele>
        <time>2016-05-16T19:44:30.000Z</time>
      </trkpt>
      <trkpt lat="48.83813" lon="2.18629">
        <ele>111.40000152588</ele>
        <time>2016-05-16T19:44:36.000Z</time>
      </trkpt>
      <trkpt lat="48.83827" lon="2.18647">
        <ele>111.59999847412</ele>
        <time>2016-05-16T19:44:43.000Z</time>
      </trkpt>
      <trkpt lat="48.83837" lon="2.18659">
        <ele>111.80000305176</ele>
        <time>2016-05-16T19:44:51.000Z</time>
      </trkpt>
      <trkpt lat="48.83839" lon="2.18663">
        <ele>111.80000305176</ele>
        <time>2016-05-16T19:44:57.000Z</time>
      </trkpt>
      <trkpt lat="48.83844" lon="2.18672">
        <ele>111.80000305176</ele>
        <time>2016-05-16T19:45:04.000Z</time>
      </trkpt>
      <trkpt lat="48.83858" lon="2.18684">
        <ele>111.80000305176</ele>
        <time>2016-05-16T19:45:31.000Z</time>
      </trkpt>
      <trkpt lat="48.83866" lon="2.18713">
        <ele>111.59999847412</ele>
        <time>2016-05-16T19:45:39.000Z</time>
      </trkpt>
      <trkpt lat="48.83871" lon="2.18743">
        <ele>111.40000152588</ele>
        <time>2016-05-16T19:45:45.000Z</time>
      </trkpt>
      <trkpt lat="48.83874" lon="2.18772">
        <ele>110.40000152588</ele>
        <time>2016-05-16T19:45:50.000Z</time>
      </trkpt>
      <trkpt lat="48.83885" lon="2.18798">
        <ele>109.80000305176</ele>
        <time>2016-05-16T19:45:54.000Z</time>
      </trkpt>
      <trkpt lat="48.83895" lon="2.18825">
        <ele>109</ele>
        <time>2016-05-16T19:45:58.000Z</time>
      </trkpt>
      <trkpt lat="48.83906" lon="2.18853">
        <ele>108.59999847412</ele>
        <time>2016-05-16T19:46:03.000Z</time>
      </trkpt>
      <trkpt lat="48.83914" lon="2.18884">
        <ele>108</ele>
        <time>2016-05-16T19:46:08.000Z</time>
      </trkpt>
      <trkpt lat="48.8392" lon="2.18911">
        <ele>107.59999847412</ele>
        <time>2016-05-16T19:46:12.000Z</time>
      </trkpt>
      <trkpt lat="48.83925" lon="2.18939">
        <ele>107</ele>
        <time>2016-05-16T19:46:16.000Z</time>
      </trkpt>
      <trkpt lat="48.83934" lon="2.1897">
        <ele>106.40000152588</ele>
        <time>2016-05-16T19:46:21.000Z</time>
      </trkpt>
      <trkpt lat="48.83941" lon="2.18997">
        <ele>106</ele>
        <time>2016-05-16T19:46:25.000Z</time>
      </trkpt>
      <trkpt lat="48.83949" lon="2.19025">
        <ele>104.80000305176</ele>
        <time>2016-05-16T19:46:29.000Z</time>
      </trkpt>
      <trkpt lat="48.83956" lon="2.19056">
        <ele>103.59999847412</ele>
        <time>2016-05-16T19:46:33.000Z</time>
      </trkpt>
      <trkpt lat="48.83959" lon="2.19071">
        <ele>103</ele>
        <time>2016-05-16T19:46:35.000Z</time>
      </trkpt>
      <trkpt lat="48.83966" lon="2.19104">
        <ele>102.59999847412</ele>
        <time>2016-05-16T19:46:39.000Z</time>
      </trkpt>
      <trkpt lat="48.83972" lon="2.19136">
        <ele>102.19999694824</ele>
        <time>2016-05-16T19:46:43.000Z</time>
      </trkpt>
      <trkpt lat="48.83975" lon="2.19168">
        <ele>101.59999847412</ele>
        <time>2016-05-16T19:46:47.000Z</time>
      </trkpt>
      <trkpt lat="48.8398" lon="2.19196">
        <ele>101.59999847412</ele>
        <time>2016-05-16T19:46:51.000Z</time>
      </trkpt>
      <trkpt lat="48.83985" lon="2.19229">
        <ele>101.40000152588</ele>
        <time>2016-05-16T19:46:56.000Z</time>
      </trkpt>
      <trkpt lat="48.83993" lon="2.19256">
        <ele>101.59999847412</ele>
        <time>2016-05-16T19:47:00.000Z</time>
      </trkpt>
      <trkpt lat="48.83999" lon="2.19268">
        <ele>101.80000305176</ele>
        <time>2016-05-16T19:47:02.000Z</time>
      </trkpt>
      <trkpt lat="48.8401" lon="2.19293">
        <ele>102.40000152588</ele>
        <time>2016-05-16T19:47:06.000Z</time>
      </trkpt>
      <trkpt lat="48.84021" lon="2.19323">
        <ele>103</ele>
        <time>2016-05-16T19:47:11.000Z</time>
      </trkpt>
      <trkpt lat="48.84032" lon="2.19351">
        <ele>103</ele>
        <time>2016-05-16T19:47:16.000Z</time>
      </trkpt>
      <trkpt lat="48.84042" lon="2.19378">
        <ele>102.80000305176</ele>
        <time>2016-05-16T19:47:20.000Z</time>
      </trkpt>
      <trkpt lat="48.84049" lon="2.19404">
        <ele>102.80000305176</ele>
        <time>2016-05-16T19:47:24.000Z</time>
      </trkpt>
      <trkpt lat="48.84056" lon="2.19434">
        <ele>102</ele>
        <time>2016-05-16T19:47:29.000Z</time>
      </trkpt>
      <trkpt lat="48.84059" lon="2.19463">
        <ele>101</ele>
        <time>2016-05-16T19:47:33.000Z</time>
      </trkpt>
      <trkpt lat="48.84063" lon="2.19498">
        <ele>99.800003051758</ele>
        <time>2016-05-16T19:47:37.000Z</time>
      </trkpt>
      <trkpt lat="48.84066" lon="2.19532">
        <ele>98.800003051758</ele>
        <time>2016-05-16T19:47:41.000Z</time>
      </trkpt>
      <trkpt lat="48.84074" lon="2.19551">
        <ele>98.400001525879</ele>
        <time>2016-05-16T19:47:43.000Z</time>
      </trkpt>
      <trkpt lat="48.84076" lon="2.19586">
        <ele>98.400001525879</ele>
        <time>2016-05-16T19:47:47.000Z</time>
      </trkpt>
      <trkpt lat="48.84078" lon="2.19619">
        <ele>98.800003051758</ele>
        <time>2016-05-16T19:47:51.000Z</time>
      </trkpt>
      <trkpt lat="48.84079" lon="2.19652">
        <ele>99.199996948242</ele>
        <time>2016-05-16T19:47:55.000Z</time>
      </trkpt>
      <trkpt lat="48.84081" lon="2.19659">
        <ele>99.199996948242</ele>
        <time>2016-05-16T19:47:56.000Z</time>
      </trkpt>
      <trkpt lat="48.84086" lon="2.19692">
        <ele>98.800003051758</ele>
        <time>2016-05-16T19:48:00.000Z</time>
      </trkpt>
      <trkpt lat="48.84091" lon="2.19723">
        <ele>98.400001525879</ele>
        <time>2016-05-16T19:48:04.000Z</time>
      </trkpt>
      <trkpt lat="48.84095" lon="2.19753">
        <ele>97.599998474121</ele>
        <time>2016-05-16T19:48:08.000Z</time>
      </trkpt>
      <trkpt lat="48.84099" lon="2.19767">
        <ele>97.199996948242</ele>
        <time>2016-05-16T19:48:10.000Z</time>
      </trkpt>
      <trkpt lat="48.84108" lon="2.19796">
        <ele>96.199996948242</ele>
        <time>2016-05-16T19:48:14.000Z</time>
      </trkpt>
      <trkpt lat="48.84115" lon="2.19824">
        <ele>95.599998474121</ele>
        <time>2016-05-16T19:48:18.000Z</time>
      </trkpt>
      <trkpt lat="48.8412" lon="2.19838">
        <ele>95.599998474121</ele>
        <time>2016-05-16T19:48:20.000Z</time>
      </trkpt>
      <trkpt lat="48.84124" lon="2.1986">
        <ele>96.400001525879</ele>
        <time>2016-05-16T19:48:23.000Z</time>
      </trkpt>
      <trkpt lat="48.84132" lon="2.19883">
        <ele>97.199996948242</ele>
        <time>2016-05-16T19:48:27.000Z</time>
      </trkpt>
      <trkpt lat="48.84142" lon="2.1991">
        <ele>98.400001525879</ele>
        <time>2016-05-16T19:48:32.000Z</time>
      </trkpt>
      <trkpt lat="48.84148" lon="2.19938">
        <ele>99.199996948242</ele>
        <time>2016-05-16T19:48:37.000Z</time>
      </trkpt>
      <trkpt lat="48.84152" lon="2.1995">
        <ele>99.400001525879</ele>
        <time>2016-05-16T19:48:39.000Z</time>
      </trkpt>
      <trkpt lat="48.84155" lon="2.19978">
        <ele>100.19999694824</ele>
        <time>2016-05-16T19:48:43.000Z</time>
      </trkpt>
      <trkpt lat="48.84156" lon="2.19985">
        <ele>100.40000152588</ele>
        <time>2016-05-16T19:48:44.000Z</time>
      </trkpt>
      <trkpt lat="48.84159" lon="2.20013">
        <ele>100.80000305176</ele>
        <time>2016-05-16T19:48:48.000Z</time>
      </trkpt>
      <trkpt lat="48.84163" lon="2.20047">
        <ele>101.40000152588</ele>
        <time>2016-05-16T19:48:53.000Z</time>
      </trkpt>
      <trkpt lat="48.84164" lon="2.20074">
        <ele>101.19999694824</ele>
        <time>2016-05-16T19:48:57.000Z</time>
      </trkpt>
      <trkpt lat="48.84165" lon="2.2008">
        <ele>101.19999694824</ele>
        <time>2016-05-16T19:48:58.000Z</time>
      </trkpt>
      <trkpt lat="48.84168" lon="2.20113">
        <ele>101.19999694824</ele>
        <time>2016-05-16T19:49:03.000Z</time>
      </trkpt>
      <trkpt lat="48.84169" lon="2.20118">
        <ele>101.19999694824</ele>
        <time>2016-05-16T19:49:04.000Z</time>
      </trkpt>
      <trkpt lat="48.84173" lon="2.20145">
        <ele>101.40000152588</ele>
        <time>2016-05-16T19:49:09.000Z</time>
      </trkpt>
      <trkpt lat="48.84175" lon="2.20174">
        <ele>101.40000152588</ele>
        <time>2016-05-16T19:49:14.000Z</time>
      </trkpt>
      <trkpt lat="48.84177" lon="2.20203">
        <ele>101</ele>
        <time>2016-05-16T19:49:19.000Z</time>
      </trkpt>
      <trkpt lat="48.84178" lon="2.20232">
        <ele>100.80000305176</ele>
        <time>2016-05-16T19:49:24.000Z</time>
      </trkpt>
      <trkpt lat="48.84181" lon="2.20257">
        <ele>101</ele>
        <time>2016-05-16T19:49:28.000Z</time>
      </trkpt>
      <trkpt lat="48.84185" lon="2.20289">
        <ele>102</ele>
        <time>2016-05-16T19:49:33.000Z</time>
      </trkpt>
      <trkpt lat="48.84188" lon="2.20323">
        <ele>102.80000305176</ele>
        <time>2016-05-16T19:49:38.000Z</time>
      </trkpt>
      <trkpt lat="48.84191" lon="2.2035">
        <ele>103.59999847412</ele>
        <time>2016-05-16T19:49:42.000Z</time>
      </trkpt>
      <trkpt lat="48.84195" lon="2.20382">
        <ele>104.19999694824</ele>
        <time>2016-05-16T19:49:47.000Z</time>
      </trkpt>
      <trkpt lat="48.84196" lon="2.20388">
        <ele>104.40000152588</ele>
        <time>2016-05-16T19:49:48.000Z</time>
      </trkpt>
      <trkpt lat="48.84199" lon="2.20421">
        <ele>105.19999694824</ele>
        <time>2016-05-16T19:49:53.000Z</time>
      </trkpt>
      <trkpt lat="48.84199" lon="2.20428">
        <ele>104.80000305176</ele>
        <time>2016-05-16T19:49:54.000Z</time>
      </trkpt>
      <trkpt lat="48.84203" lon="2.20457">
        <ele>103.59999847412</ele>
        <time>2016-05-16T19:49:58.000Z</time>
      </trkpt>
      <trkpt lat="48.84206" lon="2.20485">
        <ele>102.40000152588</ele>
        <time>2016-05-16T19:50:02.000Z</time>
      </trkpt>
      <trkpt lat="48.84208" lon="2.20514">
        <ele>101.59999847412</ele>
        <time>2016-05-16T19:50:06.000Z</time>
      </trkpt>
      <trkpt lat="48.8421" lon="2.20537">
        <ele>102</ele>
        <time>2016-05-16T19:50:09.000Z</time>
      </trkpt>
      <trkpt lat="48.84216" lon="2.20566">
        <ele>102.40000152588</ele>
        <time>2016-05-16T19:50:13.000Z</time>
      </trkpt>
      <trkpt lat="48.84219" lon="2.20596">
        <ele>102.59999847412</ele>
        <time>2016-05-16T19:50:17.000Z</time>
      </trkpt>
      <trkpt lat="48.84219" lon="2.20624">
        <ele>102.19999694824</ele>
        <time>2016-05-16T19:50:21.000Z</time>
      </trkpt>
      <trkpt lat="48.84224" lon="2.20651">
        <ele>102</ele>
        <time>2016-05-16T19:50:25.000Z</time>
      </trkpt>
      <trkpt lat="48.84224" lon="2.20658">
        <ele>101.80000305176</ele>
        <time>2016-05-16T19:50:26.000Z</time>
      </trkpt>
      <trkpt lat="48.84227" lon="2.20668">
        <ele>102</ele>
        <time>2016-05-16T19:50:28.000Z</time>
      </trkpt>
      <trkpt lat="48.84229" lon="2.20682">
        <ele>102</ele>
        <time>2016-05-16T19:50:32.000Z</time>
      </trkpt>
      <trkpt lat="48.84231" lon="2.20685">
        <ele>102</ele>
        <time>2016-05-16T19:50:36.000Z</time>
      </trkpt>
      <trkpt lat="48.84233" lon="2.20706">
        <ele>102</ele>
        <time>2016-05-16T19:50:56.000Z</time>
      </trkpt>
      <trkpt lat="48.84241" lon="2.20733">
        <ele>101.80000305176</ele>
        <time>2016-05-16T19:51:03.000Z</time>
      </trkpt>
      <trkpt lat="48.84247" lon="2.2076">
        <ele>101.80000305176</ele>
        <time>2016-05-16T19:51:08.000Z</time>
      </trkpt>
      <trkpt lat="48.84248" lon="2.20793">
        <ele>101.80000305176</ele>
        <time>2016-05-16T19:51:13.000Z</time>
      </trkpt>
      <trkpt lat="48.84251" lon="2.20826">
        <ele>102</ele>
        <time>2016-05-16T19:51:18.000Z</time>
      </trkpt>
      <trkpt lat="48.84252" lon="2.20853">
        <ele>102</ele>
        <time>2016-05-16T19:51:22.000Z</time>
      </trkpt>
      <trkpt lat="48.84253" lon="2.20883">
        <ele>102</ele>
        <time>2016-05-16T19:51:26.000Z</time>
      </trkpt>
      <trkpt lat="48.84257" lon="2.20911">
        <ele>102.40000152588</ele>
        <time>2016-05-16T19:51:30.000Z</time>
      </trkpt>
      <trkpt lat="48.8426" lon="2.2094">
        <ele>102.59999847412</ele>
        <time>2016-05-16T19:51:34.000Z</time>
      </trkpt>
      <trkpt lat="48.84262" lon="2.20969">
        <ele>102.59999847412</ele>
        <time>2016-05-16T19:51:38.000Z</time>
      </trkpt>
      <trkpt lat="48.84264" lon="2.20998">
        <ele>102.59999847412</ele>
        <time>2016-05-16T19:51:42.000Z</time>
      </trkpt>
      <trkpt lat="48.84265" lon="2.21012">
        <ele>102.59999847412</ele>
        <time>2016-05-16T19:51:44.000Z</time>
      </trkpt>
      <trkpt lat="48.84266" lon="2.21039">
        <ele>102.19999694824</ele>
        <time>2016-05-16T19:51:48.000Z</time>
      </trkpt>
      <trkpt lat="48.84267" lon="2.21046">
        <ele>102.19999694824</ele>
        <time>2016-05-16T19:51:49.000Z</time>
      </trkpt>
      <trkpt lat="48.8427" lon="2.21079">
        <ele>102</ele>
        <time>2016-05-16T19:51:54.000Z</time>
      </trkpt>
      <trkpt lat="48.84274" lon="2.21112">
        <ele>102</ele>
        <time>2016-05-16T19:51:59.000Z</time>
      </trkpt>
      <trkpt lat="48.84279" lon="2.21145">
        <ele>102.19999694824</ele>
        <time>2016-05-16T19:52:04.000Z</time>
      </trkpt>
      <trkpt lat="48.84283" lon="2.21177">
        <ele>102.40000152588</ele>
        <time>2016-05-16T19:52:09.000Z</time>
      </trkpt>
      <trkpt lat="48.84284" lon="2.2121">
        <ele>102</ele>
        <time>2016-05-16T19:52:14.000Z</time>
      </trkpt>
      <trkpt lat="48.84286" lon="2.21242">
        <ele>101.59999847412</ele>
        <time>2016-05-16T19:52:19.000Z</time>
      </trkpt>
      <trkpt lat="48.84287" lon="2.21274">
        <ele>100.80000305176</ele>
        <time>2016-05-16T19:52:24.000Z</time>
      </trkpt>
      <trkpt lat="48.84288" lon="2.21299">
        <ele>100</ele>
        <time>2016-05-16T19:52:28.000Z</time>
      </trkpt>
      <trkpt lat="48.84289" lon="2.21331">
        <ele>99</ele>
        <time>2016-05-16T19:52:33.000Z</time>
      </trkpt>
      <trkpt lat="48.8429" lon="2.21362">
        <ele>98.199996948242</ele>
        <time>2016-05-16T19:52:38.000Z</time>
      </trkpt>
      <trkpt lat="48.84295" lon="2.21385">
        <ele>98</ele>
        <time>2016-05-16T19:52:42.000Z</time>
      </trkpt>
      <trkpt lat="48.84296" lon="2.21396">
        <ele>97.800003051758</ele>
        <time>2016-05-16T19:52:44.000Z</time>
      </trkpt>
      <trkpt lat="48.843" lon="2.21423">
        <ele>97.199996948242</ele>
        <time>2016-05-16T19:52:49.000Z</time>
      </trkpt>
      <trkpt lat="48.84302" lon="2.21452">
        <ele>96.599998474121</ele>
        <time>2016-05-16T19:52:55.000Z</time>
      </trkpt>
      <trkpt lat="48.84303" lon="2.21457">
        <ele>96.599998474121</ele>
        <time>2016-05-16T19:52:56.000Z</time>
      </trkpt>
      <trkpt lat="48.84307" lon="2.21486">
        <ele>96.400001525879</ele>
        <time>2016-05-16T19:53:01.000Z</time>
      </trkpt>
      <trkpt lat="48.8431" lon="2.21514">
        <ele>96.400001525879</ele>
        <time>2016-05-16T19:53:05.000Z</time>
      </trkpt>
      <trkpt lat="48.84315" lon="2.21541">
        <ele>96.599998474121</ele>
        <time>2016-05-16T19:53:09.000Z</time>
      </trkpt>
      <trkpt lat="48.84322" lon="2.2157">
        <ele>97.400001525879</ele>
        <time>2016-05-16T19:53:13.000Z</time>
      </trkpt>
      <trkpt lat="48.84328" lon="2.21602">
        <ele>96.199996948242</ele>
        <time>2016-05-16T19:53:17.000Z</time>
      </trkpt>
      <trkpt lat="48.84331" lon="2.21629">
        <ele>94.599998474121</ele>
        <time>2016-05-16T19:53:20.000Z</time>
      </trkpt>
      <trkpt lat="48.84336" lon="2.21663">
        <ele>93.199996948242</ele>
        <time>2016-05-16T19:53:24.000Z</time>
      </trkpt>
      <trkpt lat="48.84343" lon="2.21696">
        <ele>89</ele>
        <time>2016-05-16T19:53:28.000Z</time>
      </trkpt>
      <trkpt lat="48.8435" lon="2.21727">
        <ele>85.199996948242</ele>
        <time>2016-05-16T19:53:32.000Z</time>
      </trkpt>
      <trkpt lat="48.84354" lon="2.21739">
        <ele>83.800003051758</ele>
        <time>2016-05-16T19:53:34.000Z</time>
      </trkpt>
      <trkpt lat="48.84371" lon="2.21753">
        <ele>82.400001525879</ele>
        <time>2016-05-16T19:53:38.000Z</time>
      </trkpt>
      <trkpt lat="48.84379" lon="2.21753">
        <ele>82.400001525879</ele>
        <time>2016-05-16T19:53:40.000Z</time>
      </trkpt>
      <trkpt lat="48.84402" lon="2.2175">
        <ele>82.199996948242</ele>
        <time>2016-05-16T19:53:45.000Z</time>
      </trkpt>
      <trkpt lat="48.8442" lon="2.21743">
        <ele>82.400001525879</ele>
        <time>2016-05-16T19:53:49.000Z</time>
      </trkpt>
      <trkpt lat="48.84434" lon="2.21739">
        <ele>82.800003051758</ele>
        <time>2016-05-16T19:53:52.000Z</time>
      </trkpt>
      <trkpt lat="48.84445" lon="2.2174">
        <ele>82.800003051758</ele>
        <time>2016-05-16T19:53:54.000Z</time>
      </trkpt>
      <trkpt lat="48.84466" lon="2.21744">
        <ele>83.199996948242</ele>
        <time>2016-05-16T19:53:58.000Z</time>
      </trkpt>
      <trkpt lat="48.84488" lon="2.21752">
        <ele>83.400001525879</ele>
        <time>2016-05-16T19:54:02.000Z</time>
      </trkpt>
      <trkpt lat="48.8451" lon="2.2176">
        <ele>83.599998474121</ele>
        <time>2016-05-16T19:54:06.000Z</time>
      </trkpt>
      <trkpt lat="48.8453" lon="2.21769">
        <ele>84</ele>
        <time>2016-05-16T19:54:10.000Z</time>
      </trkpt>
      <trkpt lat="48.84548" lon="2.21777">
        <ele>84.599998474121</ele>
        <time>2016-05-16T19:54:14.000Z</time>
      </trkpt>
      <trkpt lat="48.84558" lon="2.21781">
        <ele>85</ele>
        <time>2016-05-16T19:54:17.000Z</time>
      </trkpt>
      <trkpt lat="48.84571" lon="2.21802">
        <ele>84.599998474121</ele>
        <time>2016-05-16T19:54:22.000Z</time>
      </trkpt>
      <trkpt lat="48.84576" lon="2.2182">
        <ele>83.599998474121</ele>
        <time>2016-05-16T19:54:25.000Z</time>
      </trkpt>
      <trkpt lat="48.84585" lon="2.2185">
        <ele>80</ele>
        <time>2016-05-16T19:54:31.000Z</time>
      </trkpt>
      <trkpt lat="48.84585" lon="2.21854">
        <ele>79.599998474121</ele>
        <time>2016-05-16T19:54:32.000Z</time>
      </trkpt>
      <trkpt lat="48.84589" lon="2.21879">
        <ele>75.599998474121</ele>
        <time>2016-05-16T19:54:40.000Z</time>
      </trkpt>
      <trkpt lat="48.84583" lon="2.21898">
        <ele>73.199996948242</ele>
        <time>2016-05-16T19:55:32.000Z</time>
      </trkpt>
      <trkpt lat="48.84587" lon="2.21926">
        <ele>71</ele>
        <time>2016-05-16T19:55:37.000Z</time>
      </trkpt>
      <trkpt lat="48.8459" lon="2.21954">
        <ele>68</ele>
        <time>2016-05-16T19:55:41.000Z</time>
      </trkpt>
      <trkpt lat="48.84596" lon="2.21981">
        <ele>65</ele>
        <time>2016-05-16T19:55:46.000Z</time>
      </trkpt>
      <trkpt lat="48.84607" lon="2.22004">
        <ele>61.799999237061</ele>
        <time>2016-05-16T19:55:56.000Z</time>
      </trkpt>
      <trkpt lat="48.84627" lon="2.22001">
        <ele>61.599998474121</ele>
        <time>2016-05-16T19:56:14.000Z</time>
      </trkpt>
      <trkpt lat="48.84646" lon="2.21999">
        <ele>61.799999237061</ele>
        <time>2016-05-16T19:56:19.000Z</time>
      </trkpt>
      <trkpt lat="48.84666" lon="2.22001">
        <ele>61.200000762939</ele>
        <time>2016-05-16T19:56:24.000Z</time>
      </trkpt>
      <trkpt lat="48.84686" lon="2.2201">
        <ele>59.200000762939</ele>
        <time>2016-05-16T19:56:29.000Z</time>
      </trkpt>
      <trkpt lat="48.84706" lon="2.22021">
        <ele>57.400001525879</ele>
        <time>2016-05-16T19:56:34.000Z</time>
      </trkpt>
      <trkpt lat="48.84726" lon="2.22033">
        <ele>55.799999237061</ele>
        <time>2016-05-16T19:56:39.000Z</time>
      </trkpt>
      <trkpt lat="48.84747" lon="2.22042">
        <ele>54.599998474121</ele>
        <time>2016-05-16T19:56:44.000Z</time>
      </trkpt>
      <trkpt lat="48.84765" lon="2.22047">
        <ele>54.599998474121</ele>
        <time>2016-05-16T19:56:48.000Z</time>
      </trkpt>
      <trkpt lat="48.84785" lon="2.22054">
        <ele>53.400001525879</ele>
        <time>2016-05-16T19:56:52.000Z</time>
      </trkpt>
      <trkpt lat="48.84803" lon="2.2206">
        <ele>52</ele>
        <time>2016-05-16T19:56:56.000Z</time>
      </trkpt>
      <trkpt lat="48.84824" lon="2.22068">
        <ele>50.400001525879</ele>
        <time>2016-05-16T19:57:02.000Z</time>
      </trkpt>
      <trkpt lat="48.8484" lon="2.22073">
        <ele>49.200000762939</ele>
        <time>2016-05-16T19:57:07.000Z</time>
      </trkpt>
      <trkpt lat="48.84861" lon="2.22082">
        <ele>47.599998474121</ele>
        <time>2016-05-16T19:57:14.000Z</time>
      </trkpt>
      <trkpt lat="48.84878" lon="2.22096">
        <ele>45.599998474121</ele>
        <time>2016-05-16T19:57:19.000Z</time>
      </trkpt>
      <trkpt lat="48.84897" lon="2.22103">
        <ele>44.400001525879</ele>
        <time>2016-05-16T19:57:23.000Z</time>
      </trkpt>
      <trkpt lat="48.84917" lon="2.22111">
        <ele>43</ele>
        <time>2016-05-16T19:57:27.000Z</time>
      </trkpt>
      <trkpt lat="48.84937" lon="2.22116">
        <ele>42</ele>
        <time>2016-05-16T19:57:31.000Z</time>
      </trkpt>
      <trkpt lat="48.84955" lon="2.22119">
        <ele>41</ele>
        <time>2016-05-16T19:57:35.000Z</time>
      </trkpt>
      <trkpt lat="48.84967" lon="2.22129">
        <ele>39.599998474121</ele>
        <time>2016-05-16T19:57:39.000Z</time>
      </trkpt>
      <trkpt lat="48.84971" lon="2.22145">
        <ele>37.599998474121</ele>
        <time>2016-05-16T19:57:43.000Z</time>
      </trkpt>
      <trkpt lat="48.84971" lon="2.22149">
        <ele>37.200000762939</ele>
        <time>2016-05-16T19:57:44.000Z</time>
      </trkpt>
      <trkpt lat="48.84989" lon="2.22158">
        <ele>35.599998474121</ele>
        <time>2016-05-16T19:57:52.000Z</time>
      </trkpt>
      <trkpt lat="48.85007" lon="2.22153">
        <ele>35.599998474121</ele>
        <time>2016-05-16T19:57:58.000Z</time>
      </trkpt>
      <trkpt lat="48.85025" lon="2.22152">
        <ele>34.799999237061</ele>
        <time>2016-05-16T19:58:04.000Z</time>
      </trkpt>
      <trkpt lat="48.85045" lon="2.22156">
        <ele>34</ele>
        <time>2016-05-16T19:58:09.000Z</time>
      </trkpt>
      <trkpt lat="48.85064" lon="2.22157">
        <ele>33.400001525879</ele>
        <time>2016-05-16T19:58:13.000Z</time>
      </trkpt>
      <trkpt lat="48.85087" lon="2.22157">
        <ele>32.799999237061</ele>
        <time>2016-05-16T19:58:17.000Z</time>
      </trkpt>
      <trkpt lat="48.85108" lon="2.22155">
        <ele>32.799999237061</ele>
        <time>2016-05-16T19:58:21.000Z</time>
      </trkpt>
      <trkpt lat="48.85127" lon="2.22152">
        <ele>33.200000762939</ele>
        <time>2016-05-16T19:58:25.000Z</time>
      </trkpt>
      <trkpt lat="48.85146" lon="2.22149">
        <ele>33.799999237061</ele>
        <time>2016-05-16T19:58:29.000Z</time>
      </trkpt>
      <trkpt lat="48.85155" lon="2.22148">
        <ele>33.799999237061</ele>
        <time>2016-05-16T19:58:31.000Z</time>
      </trkpt>
      <trkpt lat="48.85173" lon="2.22149">
        <ele>34</ele>
        <time>2016-05-16T19:58:35.000Z</time>
      </trkpt>
      <trkpt lat="48.85177" lon="2.22149">
        <ele>34</ele>
        <time>2016-05-16T19:58:36.000Z</time>
      </trkpt>
      <trkpt lat="48.85196" lon="2.22146">
        <ele>34</ele>
        <time>2016-05-16T19:58:41.000Z</time>
      </trkpt>
      <trkpt lat="48.85215" lon="2.22141">
        <ele>34.599998474121</ele>
        <time>2016-05-16T19:58:48.000Z</time>
      </trkpt>
      <trkpt lat="48.85218" lon="2.22141">
        <ele>34.599998474121</ele>
        <time>2016-05-16T19:58:49.000Z</time>
      </trkpt>
      <trkpt lat="48.85238" lon="2.22141">
        <ele>34.799999237061</ele>
        <time>2016-05-16T19:58:55.000Z</time>
      </trkpt>
      <trkpt lat="48.85258" lon="2.22141">
        <ele>35</ele>
        <time>2016-05-16T19:59:02.000Z</time>
      </trkpt>
      <trkpt lat="48.85266" lon="2.22143">
        <ele>34.799999237061</ele>
        <time>2016-05-16T19:59:06.000Z</time>
      </trkpt>
      <trkpt lat="48.85284" lon="2.22147">
        <ele>34.400001525879</ele>
        <time>2016-05-16T19:59:15.000Z</time>
      </trkpt>
      <trkpt lat="48.85291" lon="2.2215">
        <ele>34.200000762939</ele>
        <time>2016-05-16T19:59:19.000Z</time>
      </trkpt>
      <trkpt lat="48.85311" lon="2.22146">
        <ele>33.799999237061</ele>
        <time>2016-05-16T19:59:27.000Z</time>
      </trkpt>
      <trkpt lat="48.8533" lon="2.22148">
        <ele>33.400001525879</ele>
        <time>2016-05-16T19:59:33.000Z</time>
      </trkpt>
      <trkpt lat="48.8535" lon="2.22148">
        <ele>32.799999237061</ele>
        <time>2016-05-16T19:59:39.000Z</time>
      </trkpt>
      <trkpt lat="48.85372" lon="2.22155">
        <ele>32.400001525879</ele>
        <time>2016-05-16T19:59:45.000Z</time>
      </trkpt>
      <trkpt lat="48.85391" lon="2.22159">
        <ele>32.200000762939</ele>
        <time>2016-05-16T19:59:51.000Z</time>
      </trkpt>
      <trkpt lat="48.85412" lon="2.22167">
        <ele>31.799999237061</ele>
        <time>2016-05-16T19:59:56.000Z</time>
      </trkpt>
      <trkpt lat="48.8543" lon="2.2217">
        <ele>31.799999237061</ele>
        <time>2016-05-16T20:00:01.000Z</time>
      </trkpt>
      <trkpt lat="48.85449" lon="2.22172">
        <ele>31.799999237061</ele>
        <time>2016-05-16T20:00:06.000Z</time>
      </trkpt>
      <trkpt lat="48.8547" lon="2.22173">
        <ele>31.799999237061</ele>
        <time>2016-05-16T20:00:11.000Z</time>
      </trkpt>
      <trkpt lat="48.8549" lon="2.22176">
        <ele>31.799999237061</ele>
        <time>2016-05-16T20:00:16.000Z</time>
      </trkpt>
      <trkpt lat="48.85511" lon="2.2218">
        <ele>31.799999237061</ele>
        <time>2016-05-16T20:00:21.000Z</time>
      </trkpt>
      <trkpt lat="48.85531" lon="2.22183">
        <ele>31.799999237061</ele>
        <time>2016-05-16T20:00:26.000Z</time>
      </trkpt>
      <trkpt lat="48.85552" lon="2.22184">
        <ele>32</ele>
        <time>2016-05-16T20:00:31.000Z</time>
      </trkpt>
      <trkpt lat="48.85572" lon="2.22187">
        <ele>32.200000762939</ele>
        <time>2016-05-16T20:00:37.000Z</time>
      </trkpt>
      <trkpt lat="48.85592" lon="2.22193">
        <ele>32.599998474121</ele>
        <time>2016-05-16T20:00:44.000Z</time>
      </trkpt>
      <trkpt lat="48.85611" lon="2.22196">
        <ele>32.799999237061</ele>
        <time>2016-05-16T20:00:50.000Z</time>
      </trkpt>
      <trkpt lat="48.85629" lon="2.22199">
        <ele>33.200000762939</ele>
        <time>2016-05-16T20:00:55.000Z</time>
      </trkpt>
      <trkpt lat="48.85648" lon="2.22201">
        <ele>33.599998474121</ele>
        <time>2016-05-16T20:01:00.000Z</time>
      </trkpt>
      <trkpt lat="48.85666" lon="2.22203">
        <ele>34.200000762939</ele>
        <time>2016-05-16T20:01:07.000Z</time>
      </trkpt>
      <trkpt lat="48.85671" lon="2.22201">
        <ele>34.400001525879</ele>
        <time>2016-05-16T20:01:52.000Z</time>
      </trkpt>
      <trkpt lat="48.85692" lon="2.22207">
        <ele>34.799999237061</ele>
        <time>2016-05-16T20:02:01.000Z</time>
      </trkpt>
      <trkpt lat="48.85712" lon="2.22212">
        <ele>34.400001525879</ele>
        <time>2016-05-16T20:02:07.000Z</time>
      </trkpt>
      <trkpt lat="48.85731" lon="2.2222">
        <ele>33.799999237061</ele>
        <time>2016-05-16T20:02:13.000Z</time>
      </trkpt>
      <trkpt lat="48.85751" lon="2.22221">
        <ele>33.400001525879</ele>
        <time>2016-05-16T20:02:18.000Z</time>
      </trkpt>
      <trkpt lat="48.8577" lon="2.22223">
        <ele>33.400001525879</ele>
        <time>2016-05-16T20:02:23.000Z</time>
      </trkpt>
      <trkpt lat="48.8579" lon="2.22228">
        <ele>33.799999237061</ele>
        <time>2016-05-16T20:02:28.000Z</time>
      </trkpt>
      <trkpt lat="48.85811" lon="2.22233">
        <ele>34.200000762939</ele>
        <time>2016-05-16T20:02:33.000Z</time>
      </trkpt>
      <trkpt lat="48.85831" lon="2.22239">
        <ele>34.400001525879</ele>
        <time>2016-05-16T20:02:38.000Z</time>
      </trkpt>
      <trkpt lat="48.85841" lon="2.22262">
        <ele>34</ele>
        <time>2016-05-16T20:02:44.000Z</time>
      </trkpt>
      <trkpt lat="48.85843" lon="2.22293">
        <ele>33.400001525879</ele>
        <time>2016-05-16T20:02:50.000Z</time>
      </trkpt>
      <trkpt lat="48.85845" lon="2.22324">
        <ele>32.799999237061</ele>
        <time>2016-05-16T20:02:56.000Z</time>
      </trkpt>
      <trkpt lat="48.85845" lon="2.22354">
        <ele>31.799999237061</ele>
        <time>2016-05-16T20:03:02.000Z</time>
      </trkpt>
      <trkpt lat="48.85848" lon="2.22374">
        <ele>31.200000762939</ele>
        <time>2016-05-16T20:03:08.000Z</time>
      </trkpt>
      <trkpt lat="48.85863" lon="2.2238">
        <ele>31</ele>
        <time>2016-05-16T20:03:13.000Z</time>
      </trkpt>
      <trkpt lat="48.85883" lon="2.22386">
        <ele>30.200000762939</ele>
        <time>2016-05-16T20:03:18.000Z</time>
      </trkpt>
      <trkpt lat="48.85902" lon="2.22394">
        <ele>29.60000038147</ele>
        <time>2016-05-16T20:03:23.000Z</time>
      </trkpt>
      <trkpt lat="48.85919" lon="2.22404">
        <ele>28.799999237061</ele>
        <time>2016-05-16T20:03:27.000Z</time>
      </trkpt>
      <trkpt lat="48.85939" lon="2.22419">
        <ele>28</ele>
        <time>2016-05-16T20:03:32.000Z</time>
      </trkpt>
      <trkpt lat="48.8596" lon="2.22431">
        <ele>28</ele>
        <time>2016-05-16T20:03:37.000Z</time>
      </trkpt>
      <trkpt lat="48.8598" lon="2.22442">
        <ele>28.60000038147</ele>
        <time>2016-05-16T20:03:42.000Z</time>
      </trkpt>
      <trkpt lat="48.86" lon="2.22451">
        <ele>29</ele>
        <time>2016-05-16T20:03:47.000Z</time>
      </trkpt>
      <trkpt lat="48.86018" lon="2.2246">
        <ele>29.39999961853</ele>
        <time>2016-05-16T20:03:52.000Z</time>
      </trkpt>
      <trkpt lat="48.86038" lon="2.22469">
        <ele>29.60000038147</ele>
        <time>2016-05-16T20:03:57.000Z</time>
      </trkpt>
      <trkpt lat="48.86058" lon="2.22478">
        <ele>29.60000038147</ele>
        <time>2016-05-16T20:04:02.000Z</time>
      </trkpt>
      <trkpt lat="48.86079" lon="2.2249">
        <ele>29.60000038147</ele>
        <time>2016-05-16T20:04:07.000Z</time>
      </trkpt>
      <trkpt lat="48.86098" lon="2.225">
        <ele>30</ele>
        <time>2016-05-16T20:04:11.000Z</time>
      </trkpt>
      <trkpt lat="48.86114" lon="2.22508">
        <ele>30.39999961853</ele>
        <time>2016-05-16T20:04:15.000Z</time>
      </trkpt>
      <trkpt lat="48.86131" lon="2.22518">
        <ele>30.799999237061</ele>
        <time>2016-05-16T20:04:20.000Z</time>
      </trkpt>
      <trkpt lat="48.86153" lon="2.22531">
        <ele>31.60000038147</ele>
        <time>2016-05-16T20:04:26.000Z</time>
      </trkpt>
      <trkpt lat="48.86171" lon="2.22538">
        <ele>32</ele>
        <time>2016-05-16T20:04:30.000Z</time>
      </trkpt>
      <trkpt lat="48.86185" lon="2.22546">
        <ele>32.400001525879</ele>
        <time>2016-05-16T20:04:34.000Z</time>
      </trkpt>
      <trkpt lat="48.86198" lon="2.22553">
        <ele>32.200000762939</ele>
        <time>2016-05-16T20:04:37.000Z</time>
      </trkpt>
      <trkpt lat="48.86217" lon="2.22565">
        <ele>31.39999961853</ele>
        <time>2016-05-16T20:04:42.000Z</time>
      </trkpt>
      <trkpt lat="48.86234" lon="2.22577">
        <ele>30.799999237061</ele>
        <time>2016-05-16T20:04:46.000Z</time>
      </trkpt>
      <trkpt lat="48.8625" lon="2.22588">
        <ele>29.799999237061</ele>
        <time>2016-05-16T20:04:50.000Z</time>
      </trkpt>
      <trkpt lat="48.86274" lon="2.22595">
        <ele>28.39999961853</ele>
        <time>2016-05-16T20:04:53.000Z</time>
      </trkpt>
      <trkpt lat="48.86293" lon="2.22605">
        <ele>28</ele>
        <time>2016-05-16T20:04:56.000Z</time>
      </trkpt>
      <trkpt lat="48.86311" lon="2.22616">
        <ele>27.60000038147</ele>
        <time>2016-05-16T20:04:59.000Z</time>
      </trkpt>
      <trkpt lat="48.86332" lon="2.22629">
        <ele>27.39999961853</ele>
        <time>2016-05-16T20:05:03.000Z</time>
      </trkpt>
      <trkpt lat="48.8635" lon="2.22641">
        <ele>27</ele>
        <time>2016-05-16T20:05:07.000Z</time>
      </trkpt>
      <trkpt lat="48.86368" lon="2.2265">
        <ele>26.799999237061</ele>
        <time>2016-05-16T20:05:11.000Z</time>
      </trkpt>
      <trkpt lat="48.86387" lon="2.22659">
        <ele>26.799999237061</ele>
        <time>2016-05-16T20:05:15.000Z</time>
      </trkpt>
      <trkpt lat="48.86405" lon="2.22669">
        <ele>27.39999961853</ele>
        <time>2016-05-16T20:05:19.000Z</time>
      </trkpt>
      <trkpt lat="48.8642" lon="2.22677">
        <ele>28</ele>
        <time>2016-05-16T20:05:22.000Z</time>
      </trkpt>
      <trkpt lat="48.8644" lon="2.22687">
        <ele>28.60000038147</ele>
        <time>2016-05-16T20:05:26.000Z</time>
      </trkpt>
      <trkpt lat="48.8645" lon="2.22691">
        <ele>29.200000762939</ele>
        <time>2016-05-16T20:05:28.000Z</time>
      </trkpt>
      <trkpt lat="48.86471" lon="2.22698">
        <ele>30.39999961853</ele>
        <time>2016-05-16T20:05:32.000Z</time>
      </trkpt>
      <trkpt lat="48.86492" lon="2.22704">
        <ele>31.60000038147</ele>
        <time>2016-05-16T20:05:36.000Z</time>
      </trkpt>
      <trkpt lat="48.8651" lon="2.22711">
        <ele>32.599998474121</ele>
        <time>2016-05-16T20:05:40.000Z</time>
      </trkpt>
      <trkpt lat="48.86537" lon="2.22723">
        <ele>33.599998474121</ele>
        <time>2016-05-16T20:05:44.000Z</time>
      </trkpt>
      <trkpt lat="48.86554" lon="2.22734">
        <ele>34</ele>
        <time>2016-05-16T20:05:47.000Z</time>
      </trkpt>
      <trkpt lat="48.86571" lon="2.22745">
        <ele>34.599998474121</ele>
        <time>2016-05-16T20:05:50.000Z</time>
      </trkpt>
      <trkpt lat="48.86591" lon="2.2276">
        <ele>34.599998474121</ele>
        <time>2016-05-16T20:05:54.000Z</time>
      </trkpt>
      <trkpt lat="48.8661" lon="2.22772">
        <ele>34.599998474121</ele>
        <time>2016-05-16T20:05:58.000Z</time>
      </trkpt>
      <trkpt lat="48.86614" lon="2.22775">
        <ele>34.599998474121</ele>
        <time>2016-05-16T20:05:59.000Z</time>
      </trkpt>
      <trkpt lat="48.86632" lon="2.22789">
        <ele>34.200000762939</ele>
        <time>2016-05-16T20:06:03.000Z</time>
      </trkpt>
      <trkpt lat="48.8665" lon="2.22804">
        <ele>33.799999237061</ele>
        <time>2016-05-16T20:06:07.000Z</time>
      </trkpt>
      <trkpt lat="48.86668" lon="2.22818">
        <ele>33.400001525879</ele>
        <time>2016-05-16T20:06:11.000Z</time>
      </trkpt>
      <trkpt lat="48.86687" lon="2.22831">
        <ele>33.200000762939</ele>
        <time>2016-05-16T20:06:15.000Z</time>
      </trkpt>
      <trkpt lat="48.86708" lon="2.22844">
        <ele>32.400001525879</ele>
        <time>2016-05-16T20:06:19.000Z</time>
      </trkpt>
      <trkpt lat="48.86728" lon="2.22859">
        <ele>31.799999237061</ele>
        <time>2016-05-16T20:06:23.000Z</time>
      </trkpt>
      <trkpt lat="48.86746" lon="2.22875">
        <ele>31</ele>
        <time>2016-05-16T20:06:27.000Z</time>
      </trkpt>
      <trkpt lat="48.86755" lon="2.22882">
        <ele>30.799999237061</ele>
        <time>2016-05-16T20:06:29.000Z</time>
      </trkpt>
      <trkpt lat="48.86774" lon="2.22897">
        <ele>30.200000762939</ele>
        <time>2016-05-16T20:06:33.000Z</time>
      </trkpt>
      <trkpt lat="48.86792" lon="2.22913">
        <ele>30.60000038147</ele>
        <time>2016-05-16T20:06:37.000Z</time>
      </trkpt>
      <trkpt lat="48.8681" lon="2.22932">
        <ele>31.200000762939</ele>
        <time>2016-05-16T20:06:41.000Z</time>
      </trkpt>
      <trkpt lat="48.8683" lon="2.22952">
        <ele>31.60000038147</ele>
        <time>2016-05-16T20:06:45.000Z</time>
      </trkpt>
      <trkpt lat="48.86848" lon="2.22972">
        <ele>32</ele>
        <time>2016-05-16T20:06:49.000Z</time>
      </trkpt>
      <trkpt lat="48.86867" lon="2.22993">
        <ele>32.200000762939</ele>
        <time>2016-05-16T20:06:53.000Z</time>
      </trkpt>
      <trkpt lat="48.86883" lon="2.23013">
        <ele>32</ele>
        <time>2016-05-16T20:06:57.000Z</time>
      </trkpt>
      <trkpt lat="48.86899" lon="2.23032">
        <ele>31.799999237061</ele>
        <time>2016-05-16T20:07:01.000Z</time>
      </trkpt>
      <trkpt lat="48.86917" lon="2.23052">
        <ele>31.39999961853</ele>
        <time>2016-05-16T20:07:05.000Z</time>
      </trkpt>
      <trkpt lat="48.86935" lon="2.23074">
        <ele>31</ele>
        <time>2016-05-16T20:07:09.000Z</time>
      </trkpt>
      <trkpt lat="48.86955" lon="2.23094">
        <ele>31</ele>
        <time>2016-05-16T20:07:13.000Z</time>
      </trkpt>
      <trkpt lat="48.86974" lon="2.23114">
        <ele>31</ele>
        <time>2016-05-16T20:07:17.000Z</time>
      </trkpt>
      <trkpt lat="48.86991" lon="2.23133">
        <ele>30.799999237061</ele>
        <time>2016-05-16T20:07:21.000Z</time>
      </trkpt>
      <trkpt lat="48.87008" lon="2.23152">
        <ele>30.799999237061</ele>
        <time>2016-05-16T20:07:25.000Z</time>
      </trkpt>
      <trkpt lat="48.87025" lon="2.23173">
        <ele>30.60000038147</ele>
        <time>2016-05-16T20:07:29.000Z</time>
      </trkpt>
      <trkpt lat="48.87042" lon="2.23192">
        <ele>30</ele>
        <time>2016-05-16T20:07:33.000Z</time>
      </trkpt>
      <trkpt lat="48.87061" lon="2.23209">
        <ele>29.200000762939</ele>
        <time>2016-05-16T20:07:37.000Z</time>
      </trkpt>
      <trkpt lat="48.87078" lon="2.23228">
        <ele>28.60000038147</ele>
        <time>2016-05-16T20:07:41.000Z</time>
      </trkpt>
      <trkpt lat="48.87095" lon="2.23247">
        <ele>28</ele>
        <time>2016-05-16T20:07:45.000Z</time>
      </trkpt>
      <trkpt lat="48.87112" lon="2.23267">
        <ele>27.60000038147</ele>
        <time>2016-05-16T20:07:49.000Z</time>
      </trkpt>
      <trkpt lat="48.87128" lon="2.23288">
        <ele>27.39999961853</ele>
        <time>2016-05-16T20:07:53.000Z</time>
      </trkpt>
      <trkpt lat="48.87144" lon="2.23303">
        <ele>27.60000038147</ele>
        <time>2016-05-16T20:07:56.000Z</time>
      </trkpt>
      <trkpt lat="48.87163" lon="2.2332">
        <ele>27.60000038147</ele>
        <time>2016-05-16T20:08:00.000Z</time>
      </trkpt>
      <trkpt lat="48.87182" lon="2.23333">
        <ele>27.799999237061</ele>
        <time>2016-05-16T20:08:04.000Z</time>
      </trkpt>
      <trkpt lat="48.87199" lon="2.23353">
        <ele>28.799999237061</ele>
        <time>2016-05-16T20:08:08.000Z</time>
      </trkpt>
      <trkpt lat="48.87215" lon="2.23375">
        <ele>30.39999961853</ele>
        <time>2016-05-16T20:08:12.000Z</time>
      </trkpt>
      <trkpt lat="48.8723" lon="2.23393">
        <ele>32.200000762939</ele>
        <time>2016-05-16T20:08:15.000Z</time>
      </trkpt>
      <trkpt lat="48.87248" lon="2.23414">
        <ele>33.799999237061</ele>
        <time>2016-05-16T20:08:19.000Z</time>
      </trkpt>
      <trkpt lat="48.87266" lon="2.23437">
        <ele>33.400001525879</ele>
        <time>2016-05-16T20:08:23.000Z</time>
      </trkpt>
      <trkpt lat="48.87281" lon="2.23462">
        <ele>31.799999237061</ele>
        <time>2016-05-16T20:08:27.000Z</time>
      </trkpt>
      <trkpt lat="48.87295" lon="2.23491">
        <ele>29</ele>
        <time>2016-05-16T20:08:31.000Z</time>
      </trkpt>
      <trkpt lat="48.87311" lon="2.23517">
        <ele>27.799999237061</ele>
        <time>2016-05-16T20:08:35.000Z</time>
      </trkpt>
      <trkpt lat="48.87321" lon="2.23534">
        <ele>27.39999961853</ele>
        <time>2016-05-16T20:08:38.000Z</time>
      </trkpt>
      <trkpt lat="48.87334" lon="2.23555">
        <ele>26.60000038147</ele>
        <time>2016-05-16T20:08:42.000Z</time>
      </trkpt>
      <trkpt lat="48.87347" lon="2.23577">
        <ele>25.799999237061</ele>
        <time>2016-05-16T20:08:46.000Z</time>
      </trkpt>
      <trkpt lat="48.87361" lon="2.236">
        <ele>25.799999237061</ele>
        <time>2016-05-16T20:08:50.000Z</time>
      </trkpt>
      <trkpt lat="48.87372" lon="2.23623">
        <ele>26.200000762939</ele>
        <time>2016-05-16T20:08:54.000Z</time>
      </trkpt>
      <trkpt lat="48.87386" lon="2.23645">
        <ele>26.60000038147</ele>
        <time>2016-05-16T20:08:58.000Z</time>
      </trkpt>
      <trkpt lat="48.874" lon="2.23667">
        <ele>27</ele>
        <time>2016-05-16T20:09:02.000Z</time>
      </trkpt>
      <trkpt lat="48.87416" lon="2.23689">
        <ele>27.39999961853</ele>
        <time>2016-05-16T20:09:06.000Z</time>
      </trkpt>
      <trkpt lat="48.87429" lon="2.23711">
        <ele>27.39999961853</ele>
        <time>2016-05-16T20:09:10.000Z</time>
      </trkpt>
      <trkpt lat="48.87443" lon="2.23733">
        <ele>27.799999237061</ele>
        <time>2016-05-16T20:09:14.000Z</time>
      </trkpt>
      <trkpt lat="48.87459" lon="2.23756">
        <ele>29.200000762939</ele>
        <time>2016-05-16T20:09:18.000Z</time>
      </trkpt>
      <trkpt lat="48.87476" lon="2.23776">
        <ele>31</ele>
        <time>2016-05-16T20:09:22.000Z</time>
      </trkpt>
      <trkpt lat="48.8749" lon="2.23798">
        <ele>32.599998474121</ele>
        <time>2016-05-16T20:09:26.000Z</time>
      </trkpt>
      <trkpt lat="48.87507" lon="2.23821">
        <ele>34.599998474121</ele>
        <time>2016-05-16T20:09:30.000Z</time>
      </trkpt>
      <trkpt lat="48.87511" lon="2.23826">
        <ele>35.200000762939</ele>
        <time>2016-05-16T20:09:31.000Z</time>
      </trkpt>
      <trkpt lat="48.87525" lon="2.23844">
        <ele>36.599998474121</ele>
        <time>2016-05-16T20:09:34.000Z</time>
      </trkpt>
      <trkpt lat="48.87537" lon="2.2386">
        <ele>36.400001525879</ele>
        <time>2016-05-16T20:09:37.000Z</time>
      </trkpt>
      <trkpt lat="48.87548" lon="2.23876">
        <ele>36.400001525879</ele>
        <time>2016-05-16T20:09:40.000Z</time>
      </trkpt>
      <trkpt lat="48.87563" lon="2.23897">
        <ele>36.400001525879</ele>
        <time>2016-05-16T20:09:44.000Z</time>
      </trkpt>
      <trkpt lat="48.87575" lon="2.23914">
        <ele>36.200000762939</ele>
        <time>2016-05-16T20:09:47.000Z</time>
      </trkpt>
      <trkpt lat="48.87587" lon="2.23938">
        <ele>33.799999237061</ele>
        <time>2016-05-16T20:09:51.000Z</time>
      </trkpt>
      <trkpt lat="48.876" lon="2.23959">
        <ele>31.60000038147</ele>
        <time>2016-05-16T20:09:55.000Z</time>
      </trkpt>
      <trkpt lat="48.87614" lon="2.23976">
        <ele>30.60000038147</ele>
        <time>2016-05-16T20:09:59.000Z</time>
      </trkpt>
      <trkpt lat="48.87617" lon="2.23981">
        <ele>30.39999961853</ele>
        <time>2016-05-16T20:10:00.000Z</time>
      </trkpt>
      <trkpt lat="48.87632" lon="2.24005">
        <ele>30</ele>
        <time>2016-05-16T20:10:05.000Z</time>
      </trkpt>
      <trkpt lat="48.87637" lon="2.24014">
        <ele>30</ele>
        <time>2016-05-16T20:10:07.000Z</time>
      </trkpt>
      <trkpt lat="48.87648" lon="2.24033">
        <ele>30</ele>
        <time>2016-05-16T20:10:11.000Z</time>
      </trkpt>
      <trkpt lat="48.87661" lon="2.24054">
        <ele>30.60000038147</ele>
        <time>2016-05-16T20:10:16.000Z</time>
      </trkpt>
      <trkpt lat="48.87675" lon="2.24074">
        <ele>31.39999961853</ele>
        <time>2016-05-16T20:10:21.000Z</time>
      </trkpt>
      <trkpt lat="48.8769" lon="2.24094">
        <ele>31</ele>
        <time>2016-05-16T20:10:27.000Z</time>
      </trkpt>
      <trkpt lat="48.87693" lon="2.24099">
        <ele>31.200000762939</ele>
        <time>2016-05-16T20:10:29.000Z</time>
      </trkpt>
      <trkpt lat="48.87701" lon="2.2411">
        <ele>31.39999961853</ele>
        <time>2016-05-16T20:10:35.000Z</time>
      </trkpt>
      <trkpt lat="48.87701" lon="2.24115">
        <ele>31.39999961853</ele>
        <time>2016-05-16T20:10:37.000Z</time>
      </trkpt>
      <trkpt lat="48.87714" lon="2.24119">
        <ele>31.799999237061</ele>
        <time>2016-05-16T20:10:57.000Z</time>
      </trkpt>
      <trkpt lat="48.87729" lon="2.24136">
        <ele>32.400001525879</ele>
        <time>2016-05-16T20:11:02.000Z</time>
      </trkpt>
      <trkpt lat="48.87744" lon="2.24157">
        <ele>33</ele>
        <time>2016-05-16T20:11:07.000Z</time>
      </trkpt>
      <trkpt lat="48.8776" lon="2.24177">
        <ele>33.200000762939</ele>
        <time>2016-05-16T20:11:12.000Z</time>
      </trkpt>
      <trkpt lat="48.87773" lon="2.24194">
        <ele>33.200000762939</ele>
        <time>2016-05-16T20:11:17.000Z</time>
      </trkpt>
      <trkpt lat="48.87788" lon="2.2421">
        <ele>33</ele>
        <time>2016-05-16T20:11:22.000Z</time>
      </trkpt>
      <trkpt lat="48.87802" lon="2.24229">
        <ele>32.799999237061</ele>
        <time>2016-05-16T20:11:28.000Z</time>
      </trkpt>
      <trkpt lat="48.87815" lon="2.2425">
        <ele>32.400001525879</ele>
        <time>2016-05-16T20:11:36.000Z</time>
      </trkpt>
      <trkpt lat="48.87809" lon="2.24273">
        <ele>31.799999237061</ele>
        <time>2016-05-16T20:12:09.000Z</time>
      </trkpt>
      <trkpt lat="48.87795" lon="2.24294">
        <ele>32.400001525879</ele>
        <time>2016-05-16T20:12:16.000Z</time>
      </trkpt>
      <trkpt lat="48.87781" lon="2.24312">
        <ele>33.400001525879</ele>
        <time>2016-05-16T20:12:22.000Z</time>
      </trkpt>
      <trkpt lat="48.87767" lon="2.24331">
        <ele>34</ele>
        <time>2016-05-16T20:12:28.000Z</time>
      </trkpt>
      <trkpt lat="48.87753" lon="2.2435">
        <ele>33.799999237061</ele>
        <time>2016-05-16T20:12:34.000Z</time>
      </trkpt>
      <trkpt lat="48.87739" lon="2.2437">
        <ele>33.599998474121</ele>
        <time>2016-05-16T20:12:40.000Z</time>
      </trkpt>
      <trkpt lat="48.87736" lon="2.24373">
        <ele>33.599998474121</ele>
        <time>2016-05-16T20:12:42.000Z</time>
      </trkpt>
      <trkpt lat="48.87731" lon="2.24378">
        <ele>33.599998474121</ele>
        <time>2016-05-16T20:12:46.000Z</time>
      </trkpt>
      <trkpt lat="48.87728" lon="2.24381">
        <ele>33.599998474121</ele>
        <time>2016-05-16T20:12:49.000Z</time>
      </trkpt>
      <trkpt lat="48.87723" lon="2.24394">
        <ele>33.799999237061</ele>
        <time>2016-05-16T20:12:53.000Z</time>
      </trkpt>
      <trkpt lat="48.87711" lon="2.24419">
        <ele>33.799999237061</ele>
        <time>2016-05-16T20:13:00.000Z</time>
      </trkpt>
      <trkpt lat="48.87699" lon="2.24442">
        <ele>32.799999237061</ele>
        <time>2016-05-16T20:13:05.000Z</time>
      </trkpt>
      <trkpt lat="48.87688" lon="2.24465">
        <ele>32</ele>
        <time>2016-05-16T20:13:09.000Z</time>
      </trkpt>
      <trkpt lat="48.87677" lon="2.24489">
        <ele>31</ele>
        <time>2016-05-16T20:13:13.000Z</time>
      </trkpt>
      <trkpt lat="48.87665" lon="2.24515">
        <ele>30.200000762939</ele>
        <time>2016-05-16T20:13:17.000Z</time>
      </trkpt>
      <trkpt lat="48.87652" lon="2.24544">
        <ele>29.39999961853</ele>
        <time>2016-05-16T20:13:21.000Z</time>
      </trkpt>
      <trkpt lat="48.8764" lon="2.24572">
        <ele>30.799999237061</ele>
        <time>2016-05-16T20:13:25.000Z</time>
      </trkpt>
      <trkpt lat="48.8763" lon="2.24599">
        <ele>32.400001525879</ele>
        <time>2016-05-16T20:13:29.000Z</time>
      </trkpt>
      <trkpt lat="48.87622" lon="2.24618">
        <ele>33</ele>
        <time>2016-05-16T20:13:32.000Z</time>
      </trkpt>
      <trkpt lat="48.87613" lon="2.24641">
        <ele>33.599998474121</ele>
        <time>2016-05-16T20:13:36.000Z</time>
      </trkpt>
      <trkpt lat="48.8761" lon="2.24654">
        <ele>33.799999237061</ele>
        <time>2016-05-16T20:13:38.000Z</time>
      </trkpt>
      <trkpt lat="48.87605" lon="2.24684">
        <ele>34.200000762939</ele>
        <time>2016-05-16T20:13:42.000Z</time>
      </trkpt>
      <trkpt lat="48.87599" lon="2.24718">
        <ele>34.200000762939</ele>
        <time>2016-05-16T20:13:46.000Z</time>
      </trkpt>
      <trkpt lat="48.87594" lon="2.24752">
        <ele>34.400001525879</ele>
        <time>2016-05-16T20:13:50.000Z</time>
      </trkpt>
      <trkpt lat="48.87586" lon="2.24784">
        <ele>35.200000762939</ele>
        <time>2016-05-16T20:13:54.000Z</time>
      </trkpt>
      <trkpt lat="48.87579" lon="2.24814">
        <ele>36</ele>
        <time>2016-05-16T20:13:58.000Z</time>
      </trkpt>
      <trkpt lat="48.87575" lon="2.24842">
        <ele>36.799999237061</ele>
        <time>2016-05-16T20:14:02.000Z</time>
      </trkpt>
      <trkpt lat="48.8757" lon="2.24874">
        <ele>36.200000762939</ele>
        <time>2016-05-16T20:14:06.000Z</time>
      </trkpt>
      <trkpt lat="48.87568" lon="2.24889">
        <ele>36.200000762939</ele>
        <time>2016-05-16T20:14:08.000Z</time>
      </trkpt>
      <trkpt lat="48.87565" lon="2.24917">
        <ele>36.599998474121</ele>
        <time>2016-05-16T20:14:12.000Z</time>
      </trkpt>
      <trkpt lat="48.87558" lon="2.24946">
        <ele>37.200000762939</ele>
        <time>2016-05-16T20:14:18.000Z</time>
      </trkpt>
      <trkpt lat="48.87557" lon="2.24948">
        <ele>37.200000762939</ele>
        <time>2016-05-16T20:14:19.000Z</time>
      </trkpt>
      <trkpt lat="48.87551" lon="2.24957">
        <ele>37.200000762939</ele>
        <time>2016-05-16T20:14:29.000Z</time>
      </trkpt>
      <trkpt lat="48.8756" lon="2.24977">
        <ele>37.599998474121</ele>
        <time>2016-05-16T20:14:42.000Z</time>
      </trkpt>
      <trkpt lat="48.87577" lon="2.2499">
        <ele>38.200000762939</ele>
        <time>2016-05-16T20:14:48.000Z</time>
      </trkpt>
      <trkpt lat="48.87595" lon="2.25">
        <ele>38.799999237061</ele>
        <time>2016-05-16T20:14:54.000Z</time>
      </trkpt>
      <trkpt lat="48.87614" lon="2.2501">
        <ele>39</ele>
        <time>2016-05-16T20:15:02.000Z</time>
      </trkpt>
      <trkpt lat="48.8763" lon="2.25029">
        <ele>38.799999237061</ele>
        <time>2016-05-16T20:15:09.000Z</time>
      </trkpt>
      <trkpt lat="48.87647" lon="2.25042">
        <ele>38.599998474121</ele>
        <time>2016-05-16T20:15:16.000Z</time>
      </trkpt>
      <trkpt lat="48.87656" lon="2.25062">
        <ele>38.599998474121</ele>
        <time>2016-05-16T20:15:22.000Z</time>
      </trkpt>
      <trkpt lat="48.87659" lon="2.25088">
        <ele>38.799999237061</ele>
        <time>2016-05-16T20:15:28.000Z</time>
      </trkpt>
      <trkpt lat="48.8765" lon="2.25116">
        <ele>39</ele>
        <time>2016-05-16T20:15:34.000Z</time>
      </trkpt>
      <trkpt lat="48.8765" lon="2.25144">
        <ele>39</ele>
        <time>2016-05-16T20:15:40.000Z</time>
      </trkpt>
      <trkpt lat="48.87651" lon="2.25173">
        <ele>39</ele>
        <time>2016-05-16T20:15:46.000Z</time>
      </trkpt>
      <trkpt lat="48.87652" lon="2.25187">
        <ele>39.200000762939</ele>
        <time>2016-05-16T20:15:50.000Z</time>
      </trkpt>
      <trkpt lat="48.87648" lon="2.25197">
        <ele>39.400001525879</ele>
        <time>2016-05-16T20:15:55.000Z</time>
      </trkpt>
      <trkpt lat="48.87631" lon="2.25209">
        <ele>39.400001525879</ele>
        <time>2016-05-16T20:16:03.000Z</time>
      </trkpt>
      <trkpt lat="48.87625" lon="2.25234">
        <ele>39.200000762939</ele>
        <time>2016-05-16T20:16:09.000Z</time>
      </trkpt>
      <trkpt lat="48.87618" lon="2.2526">
        <ele>39.200000762939</ele>
        <time>2016-05-16T20:16:14.000Z</time>
      </trkpt>
      <trkpt lat="48.8761" lon="2.25287">
        <ele>40</ele>
        <time>2016-05-16T20:16:19.000Z</time>
      </trkpt>
      <trkpt lat="48.87606" lon="2.25319">
        <ele>40.799999237061</ele>
        <time>2016-05-16T20:16:24.000Z</time>
      </trkpt>
      <trkpt lat="48.87605" lon="2.25347">
        <ele>41</ele>
        <time>2016-05-16T20:16:28.000Z</time>
      </trkpt>
      <trkpt lat="48.87605" lon="2.25375">
        <ele>41</ele>
        <time>2016-05-16T20:16:32.000Z</time>
      </trkpt>
      <trkpt lat="48.87603" lon="2.25407">
        <ele>40.799999237061</ele>
        <time>2016-05-16T20:16:37.000Z</time>
      </trkpt>
      <trkpt lat="48.87599" lon="2.2544">
        <ele>40.799999237061</ele>
        <time>2016-05-16T20:16:42.000Z</time>
      </trkpt>
      <trkpt lat="48.87591" lon="2.25468">
        <ele>40.400001525879</ele>
        <time>2016-05-16T20:16:46.000Z</time>
      </trkpt>
      <trkpt lat="48.87588" lon="2.25498">
        <ele>40.599998474121</ele>
        <time>2016-05-16T20:16:50.000Z</time>
      </trkpt>
      <trkpt lat="48.87586" lon="2.25528">
        <ele>40.200000762939</ele>
        <time>2016-05-16T20:16:54.000Z</time>
      </trkpt>
      <trkpt lat="48.87582" lon="2.25557">
        <ele>39.799999237061</ele>
        <time>2016-05-16T20:16:58.000Z</time>
      </trkpt>
      <trkpt lat="48.87577" lon="2.25572">
        <ele>40</ele>
        <time>2016-05-16T20:17:02.000Z</time>
      </trkpt>
      <trkpt lat="48.87573" lon="2.25575">
        <ele>40</ele>
        <time>2016-05-16T20:17:04.000Z</time>
      </trkpt>
      <trkpt lat="48.87568" lon="2.25593">
        <ele>39.599998474121</ele>
        <time>2016-05-16T20:17:38.000Z</time>
      </trkpt>
      <trkpt lat="48.87585" lon="2.25604">
        <ele>39.400001525879</ele>
        <time>2016-05-16T20:17:45.000Z</time>
      </trkpt>
      <trkpt lat="48.87604" lon="2.25614">
        <ele>39.200000762939</ele>
        <time>2016-05-16T20:17:52.000Z</time>
      </trkpt>
      <trkpt lat="48.87623" lon="2.25623">
        <ele>38.799999237061</ele>
        <time>2016-05-16T20:17:58.000Z</time>
      </trkpt>
      <trkpt lat="48.87641" lon="2.25635">
        <ele>38.200000762939</ele>
        <time>2016-05-16T20:18:04.000Z</time>
      </trkpt>
      <trkpt lat="48.87663" lon="2.25642">
        <ele>37.799999237061</ele>
        <time>2016-05-16T20:18:09.000Z</time>
      </trkpt>
      <trkpt lat="48.87682" lon="2.25651">
        <ele>37.400001525879</ele>
        <time>2016-05-16T20:18:13.000Z</time>
      </trkpt>
      <trkpt lat="48.87701" lon="2.25661">
        <ele>37</ele>
        <time>2016-05-16T20:18:18.000Z</time>
      </trkpt>
      <trkpt lat="48.87721" lon="2.25672">
        <ele>37.799999237061</ele>
        <time>2016-05-16T20:18:23.000Z</time>
      </trkpt>
      <trkpt lat="48.87742" lon="2.25682">
        <ele>38.400001525879</ele>
        <time>2016-05-16T20:18:28.000Z</time>
      </trkpt>
      <trkpt lat="48.87763" lon="2.25692">
        <ele>39.200000762939</ele>
        <time>2016-05-16T20:18:33.000Z</time>
      </trkpt>
      <trkpt lat="48.87775" lon="2.25699">
        <ele>39.599998474121</ele>
        <time>2016-05-16T20:18:36.000Z</time>
      </trkpt>
      <trkpt lat="48.87794" lon="2.2571">
        <ele>39.599998474121</ele>
        <time>2016-05-16T20:18:40.000Z</time>
      </trkpt>
      <trkpt lat="48.87813" lon="2.25722">
        <ele>39.799999237061</ele>
        <time>2016-05-16T20:18:45.000Z</time>
      </trkpt>
      <trkpt lat="48.87831" lon="2.25732">
        <ele>39.799999237061</ele>
        <time>2016-05-16T20:18:49.000Z</time>
      </trkpt>
      <trkpt lat="48.87852" lon="2.25742">
        <ele>39.799999237061</ele>
        <time>2016-05-16T20:18:53.000Z</time>
      </trkpt>
      <trkpt lat="48.87869" lon="2.2575">
        <ele>40</ele>
        <time>2016-05-16T20:18:57.000Z</time>
      </trkpt>
      <trkpt lat="48.87877" lon="2.25754">
        <ele>40</ele>
        <time>2016-05-16T20:18:59.000Z</time>
      </trkpt>
      <trkpt lat="48.87887" lon="2.25761">
        <ele>40</ele>
        <time>2016-05-16T20:19:02.000Z</time>
      </trkpt>
      <trkpt lat="48.87902" lon="2.25769">
        <ele>40</ele>
        <time>2016-05-16T20:19:06.000Z</time>
      </trkpt>
      <trkpt lat="48.87922" lon="2.25775">
        <ele>40</ele>
        <time>2016-05-16T20:19:10.000Z</time>
      </trkpt>
      <trkpt lat="48.87942" lon="2.25785">
        <ele>40</ele>
        <time>2016-05-16T20:19:15.000Z</time>
      </trkpt>
      <trkpt lat="48.87964" lon="2.25798">
        <ele>39.400001525879</ele>
        <time>2016-05-16T20:19:20.000Z</time>
      </trkpt>
      <trkpt lat="48.87983" lon="2.25807">
        <ele>39</ele>
        <time>2016-05-16T20:19:25.000Z</time>
      </trkpt>
      <trkpt lat="48.88001" lon="2.25823">
        <ele>38.400001525879</ele>
        <time>2016-05-16T20:19:31.000Z</time>
      </trkpt>
      <trkpt lat="48.88014" lon="2.2584">
        <ele>38.400001525879</ele>
        <time>2016-05-16T20:19:37.000Z</time>
      </trkpt>
      <trkpt lat="48.8802" lon="2.25851">
        <ele>38.799999237061</ele>
        <time>2016-05-16T20:19:40.000Z</time>
      </trkpt>
      <trkpt lat="48.88029" lon="2.25879">
        <ele>40</ele>
        <time>2016-05-16T20:19:46.000Z</time>
      </trkpt>
      <trkpt lat="48.88032" lon="2.2588">
        <ele>40.200000762939</ele>
        <time>2016-05-16T20:19:47.000Z</time>
      </trkpt>
      <trkpt lat="48.88032" lon="2.25885">
        <ele>40.400001525879</ele>
        <time>2016-05-16T20:19:49.000Z</time>
      </trkpt>
      <trkpt lat="48.88041" lon="2.25913">
        <ele>41.799999237061</ele>
        <time>2016-05-16T20:20:06.000Z</time>
      </trkpt>
      <trkpt lat="48.88037" lon="2.25943">
        <ele>41.400001525879</ele>
        <time>2016-05-16T20:20:12.000Z</time>
      </trkpt>
      <trkpt lat="48.88034" lon="2.25975">
        <ele>41.400001525879</ele>
        <time>2016-05-16T20:20:17.000Z</time>
      </trkpt>
      <trkpt lat="48.88033" lon="2.2601">
        <ele>41</ele>
        <time>2016-05-16T20:20:22.000Z</time>
      </trkpt>
      <trkpt lat="48.8803" lon="2.26042">
        <ele>40.599998474121</ele>
        <time>2016-05-16T20:20:27.000Z</time>
      </trkpt>
      <trkpt lat="48.88025" lon="2.26073">
        <ele>40.200000762939</ele>
        <time>2016-05-16T20:20:32.000Z</time>
      </trkpt>
      <trkpt lat="48.88021" lon="2.26105">
        <ele>40.200000762939</ele>
        <time>2016-05-16T20:20:37.000Z</time>
      </trkpt>
      <trkpt lat="48.88016" lon="2.26131">
        <ele>40.400001525879</ele>
        <time>2016-05-16T20:20:41.000Z</time>
      </trkpt>
      <trkpt lat="48.88012" lon="2.26158">
        <ele>40.400001525879</ele>
        <time>2016-05-16T20:20:45.000Z</time>
      </trkpt>
      <trkpt lat="48.88007" lon="2.2619">
        <ele>39.599998474121</ele>
        <time>2016-05-16T20:20:50.000Z</time>
      </trkpt>
      <trkpt lat="48.88002" lon="2.26222">
        <ele>38.599998474121</ele>
        <time>2016-05-16T20:20:55.000Z</time>
      </trkpt>
      <trkpt lat="48.87998" lon="2.26249">
        <ele>37.799999237061</ele>
        <time>2016-05-16T20:20:59.000Z</time>
      </trkpt>
      <trkpt lat="48.87994" lon="2.26274">
        <ele>37.200000762939</ele>
        <time>2016-05-16T20:21:03.000Z</time>
      </trkpt>
      <trkpt lat="48.87992" lon="2.26286">
        <ele>37</ele>
        <time>2016-05-16T20:21:05.000Z</time>
      </trkpt>
      <trkpt lat="48.8799" lon="2.26319">
        <ele>36.799999237061</ele>
        <time>2016-05-16T20:21:10.000Z</time>
      </trkpt>
      <trkpt lat="48.8799" lon="2.26333">
        <ele>37</ele>
        <time>2016-05-16T20:21:12.000Z</time>
      </trkpt>
      <trkpt lat="48.87986" lon="2.26364">
        <ele>39.599998474121</ele>
        <time>2016-05-16T20:21:17.000Z</time>
      </trkpt>
      <trkpt lat="48.87985" lon="2.26396">
        <ele>40.799999237061</ele>
        <time>2016-05-16T20:21:22.000Z</time>
      </trkpt>
      <trkpt lat="48.87982" lon="2.26428">
        <ele>41.200000762939</ele>
        <time>2016-05-16T20:21:27.000Z</time>
      </trkpt>
      <trkpt lat="48.87978" lon="2.26459">
        <ele>41.400001525879</ele>
        <time>2016-05-16T20:21:32.000Z</time>
      </trkpt>
      <trkpt lat="48.87974" lon="2.26492">
        <ele>41.799999237061</ele>
        <time>2016-05-16T20:21:37.000Z</time>
      </trkpt>
      <trkpt lat="48.87971" lon="2.26525">
        <ele>40.200000762939</ele>
        <time>2016-05-16T20:21:42.000Z</time>
      </trkpt>
      <trkpt lat="48.87967" lon="2.26556">
        <ele>41.200000762939</ele>
        <time>2016-05-16T20:21:47.000Z</time>
      </trkpt>
      <trkpt lat="48.87963" lon="2.26588">
        <ele>42.599998474121</ele>
        <time>2016-05-16T20:21:52.000Z</time>
      </trkpt>
      <trkpt lat="48.87957" lon="2.26619">
        <ele>44.400001525879</ele>
        <time>2016-05-16T20:21:57.000Z</time>
      </trkpt>
      <trkpt lat="48.87952" lon="2.26652">
        <ele>45.799999237061</ele>
        <time>2016-05-16T20:22:02.000Z</time>
      </trkpt>
      <trkpt lat="48.87951" lon="2.26684">
        <ele>46.200000762939</ele>
        <time>2016-05-16T20:22:07.000Z</time>
      </trkpt>
      <trkpt lat="48.87948" lon="2.26715">
        <ele>46.200000762939</ele>
        <time>2016-05-16T20:22:12.000Z</time>
      </trkpt>
      <trkpt lat="48.87946" lon="2.26727">
        <ele>46.200000762939</ele>
        <time>2016-05-16T20:22:14.000Z</time>
      </trkpt>
      <trkpt lat="48.87941" lon="2.26757">
        <ele>45.799999237061</ele>
        <time>2016-05-16T20:22:19.000Z</time>
      </trkpt>
      <trkpt lat="48.87939" lon="2.26782">
        <ele>45.599998474121</ele>
        <time>2016-05-16T20:22:23.000Z</time>
      </trkpt>
      <trkpt lat="48.87934" lon="2.26812">
        <ele>44.799999237061</ele>
        <time>2016-05-16T20:22:28.000Z</time>
      </trkpt>
      <trkpt lat="48.8793" lon="2.26842">
        <ele>44.799999237061</ele>
        <time>2016-05-16T20:22:33.000Z</time>
      </trkpt>
      <trkpt lat="48.87926" lon="2.26875">
        <ele>45.599998474121</ele>
        <time>2016-05-16T20:22:38.000Z</time>
      </trkpt>
      <trkpt lat="48.87925" lon="2.26888">
        <ele>46</ele>
        <time>2016-05-16T20:22:40.000Z</time>
      </trkpt>
      <trkpt lat="48.8792" lon="2.26919">
        <ele>45.799999237061</ele>
        <time>2016-05-16T20:22:45.000Z</time>
      </trkpt>
      <trkpt lat="48.87918" lon="2.26949">
        <ele>45.799999237061</ele>
        <time>2016-05-16T20:22:50.000Z</time>
      </trkpt>
      <trkpt lat="48.87917" lon="2.26979">
        <ele>46.200000762939</ele>
        <time>2016-05-16T20:22:55.000Z</time>
      </trkpt>
      <trkpt lat="48.87917" lon="2.26985">
        <ele>46.200000762939</ele>
        <time>2016-05-16T20:22:56.000Z</time>
      </trkpt>
      <trkpt lat="48.87914" lon="2.27011">
        <ele>46</ele>
        <time>2016-05-16T20:23:01.000Z</time>
      </trkpt>
      <trkpt lat="48.87911" lon="2.27039">
        <ele>45.599998474121</ele>
        <time>2016-05-16T20:23:08.000Z</time>
      </trkpt>
      <trkpt lat="48.87903" lon="2.27065">
        <ele>45.599998474121</ele>
        <time>2016-05-16T20:23:22.000Z</time>
      </trkpt>
      <trkpt lat="48.87895" lon="2.27092">
        <ele>45.599998474121</ele>
        <time>2016-05-16T20:23:28.000Z</time>
      </trkpt>
      <trkpt lat="48.87891" lon="2.27121">
        <ele>45</ele>
        <time>2016-05-16T20:23:34.000Z</time>
      </trkpt>
      <trkpt lat="48.87888" lon="2.27149">
        <ele>44.400001525879</ele>
        <time>2016-05-16T20:23:40.000Z</time>
      </trkpt>
      <trkpt lat="48.87887" lon="2.27181">
        <ele>44</ele>
        <time>2016-05-16T20:23:46.000Z</time>
      </trkpt>
      <trkpt lat="48.87887" lon="2.27213">
        <ele>43.599998474121</ele>
        <time>2016-05-16T20:23:52.000Z</time>
      </trkpt>
      <trkpt lat="48.87883" lon="2.27241">
        <ele>43</ele>
        <time>2016-05-16T20:23:57.000Z</time>
      </trkpt>
      <trkpt lat="48.87878" lon="2.27271">
        <ele>42</ele>
        <time>2016-05-16T20:24:02.000Z</time>
      </trkpt>
      <trkpt lat="48.87873" lon="2.27299">
        <ele>44.200000762939</ele>
        <time>2016-05-16T20:24:07.000Z</time>
      </trkpt>
      <trkpt lat="48.8787" lon="2.2733">
        <ele>46.599998474121</ele>
        <time>2016-05-16T20:24:12.000Z</time>
      </trkpt>
      <trkpt lat="48.87867" lon="2.27362">
        <ele>46.400001525879</ele>
        <time>2016-05-16T20:24:17.000Z</time>
      </trkpt>
      <trkpt lat="48.87864" lon="2.27394">
        <ele>46</ele>
        <time>2016-05-16T20:24:22.000Z</time>
      </trkpt>
      <trkpt lat="48.87858" lon="2.27427">
        <ele>46.400001525879</ele>
        <time>2016-05-16T20:24:27.000Z</time>
      </trkpt>
      <trkpt lat="48.87852" lon="2.27454">
        <ele>47.200000762939</ele>
        <time>2016-05-16T20:24:31.000Z</time>
      </trkpt>
      <trkpt lat="48.87848" lon="2.27487">
        <ele>48</ele>
        <time>2016-05-16T20:24:36.000Z</time>
      </trkpt>
      <trkpt lat="48.87844" lon="2.27516">
        <ele>47</ele>
        <time>2016-05-16T20:24:41.000Z</time>
      </trkpt>
      <trkpt lat="48.87841" lon="2.27546">
        <ele>46</ele>
        <time>2016-05-16T20:24:46.000Z</time>
      </trkpt>
      <trkpt lat="48.87841" lon="2.27557">
        <ele>45.799999237061</ele>
        <time>2016-05-16T20:24:48.000Z</time>
      </trkpt>
      <trkpt lat="48.87839" lon="2.2759">
        <ele>44.599998474121</ele>
        <time>2016-05-16T20:24:54.000Z</time>
      </trkpt>
      <trkpt lat="48.87836" lon="2.27618">
        <ele>43.599998474121</ele>
        <time>2016-05-16T20:24:59.000Z</time>
      </trkpt>
      <trkpt lat="48.87834" lon="2.27646">
        <ele>43.200000762939</ele>
        <time>2016-05-16T20:25:04.000Z</time>
      </trkpt>
      <trkpt lat="48.8783" lon="2.27677">
        <ele>44.200000762939</ele>
        <time>2016-05-16T20:25:10.000Z</time>
      </trkpt>
      <trkpt lat="48.87827" lon="2.27705">
        <ele>44.400001525879</ele>
        <time>2016-05-16T20:25:15.000Z</time>
      </trkpt>
      <trkpt lat="48.87823" lon="2.27735">
        <ele>45.400001525879</ele>
        <time>2016-05-16T20:25:20.000Z</time>
      </trkpt>
      <trkpt lat="48.87818" lon="2.27766">
        <ele>46.400001525879</ele>
        <time>2016-05-16T20:25:25.000Z</time>
      </trkpt>
      <trkpt lat="48.87814" lon="2.27798">
        <ele>47</ele>
        <time>2016-05-16T20:25:30.000Z</time>
      </trkpt>
      <trkpt lat="48.87809" lon="2.2783">
        <ele>46.799999237061</ele>
        <time>2016-05-16T20:25:35.000Z</time>
      </trkpt>
      <trkpt lat="48.87805" lon="2.27861">
        <ele>46.799999237061</ele>
        <time>2016-05-16T20:25:40.000Z</time>
      </trkpt>
      <trkpt lat="48.87802" lon="2.27889">
        <ele>46</ele>
        <time>2016-05-16T20:25:45.000Z</time>
      </trkpt>
      <trkpt lat="48.87797" lon="2.27904">
        <ele>45.400001525879</ele>
        <time>2016-05-16T20:25:50.000Z</time>
      </trkpt>
      <trkpt lat="48.87782" lon="2.27921">
        <ele>44</ele>
        <time>2016-05-16T20:26:00.000Z</time>
      </trkpt>
      <trkpt lat="48.87779" lon="2.27922">
        <ele>43.599998474121</ele>
        <time>2016-05-16T20:26:03.000Z</time>
      </trkpt>
      <trkpt lat="48.87771" lon="2.27938">
        <ele>42</ele>
        <time>2016-05-16T20:26:47.000Z</time>
      </trkpt>
      <trkpt lat="48.87786" lon="2.27953">
        <ele>41.799999237061</ele>
        <time>2016-05-16T20:26:54.000Z</time>
      </trkpt>
      <trkpt lat="48.87804" lon="2.27969">
        <ele>41.799999237061</ele>
        <time>2016-05-16T20:27:00.000Z</time>
      </trkpt>
      <trkpt lat="48.87817" lon="2.27992">
        <ele>41</ele>
        <time>2016-05-16T20:27:05.000Z</time>
      </trkpt>
      <trkpt lat="48.87819" lon="2.28021">
        <ele>39</ele>
        <time>2016-05-16T20:27:10.000Z</time>
      </trkpt>
      <trkpt lat="48.8781" lon="2.28049">
        <ele>37.599998474121</ele>
        <time>2016-05-16T20:27:15.000Z</time>
      </trkpt>
      <trkpt lat="48.87797" lon="2.28071">
        <ele>37.799999237061</ele>
        <time>2016-05-16T20:27:21.000Z</time>
      </trkpt>
      <trkpt lat="48.87781" lon="2.28085">
        <ele>37.799999237061</ele>
        <time>2016-05-16T20:27:30.000Z</time>
      </trkpt>
      <trkpt lat="48.87762" lon="2.28095">
        <ele>38</ele>
        <time>2016-05-16T20:27:37.000Z</time>
      </trkpt>
      <trkpt lat="48.87748" lon="2.28105">
        <ele>38.400001525879</ele>
        <time>2016-05-16T20:27:44.000Z</time>
      </trkpt>
      <trkpt lat="48.87741" lon="2.28104">
        <ele>38.400001525879</ele>
        <time>2016-05-16T20:28:15.000Z</time>
      </trkpt>
      <trkpt lat="48.87739" lon="2.28106">
        <ele>38.400001525879</ele>
        <time>2016-05-16T20:28:18.000Z</time>
      </trkpt>
      <trkpt lat="48.87735" lon="2.28116">
        <ele>38.400001525879</ele>
        <time>2016-05-16T20:28:22.000Z</time>
      </trkpt>
      <trkpt lat="48.87723" lon="2.28144">
        <ele>39.599998474121</ele>
        <time>2016-05-16T20:28:27.000Z</time>
      </trkpt>
      <trkpt lat="48.87715" lon="2.28168">
        <ele>40.400001525879</ele>
        <time>2016-05-16T20:28:31.000Z</time>
      </trkpt>
      <trkpt lat="48.87706" lon="2.28197">
        <ele>40.599998474121</ele>
        <time>2016-05-16T20:28:36.000Z</time>
      </trkpt>
      <trkpt lat="48.87701" lon="2.28225">
        <ele>40.200000762939</ele>
        <time>2016-05-16T20:28:41.000Z</time>
      </trkpt>
      <trkpt lat="48.87699" lon="2.28258">
        <ele>39.799999237061</ele>
        <time>2016-05-16T20:28:47.000Z</time>
      </trkpt>
      <trkpt lat="48.87699" lon="2.28287">
        <ele>42.599998474121</ele>
        <time>2016-05-16T20:28:53.000Z</time>
      </trkpt>
      <trkpt lat="48.87701" lon="2.28316">
        <ele>45.200000762939</ele>
        <time>2016-05-16T20:29:09.000Z</time>
      </trkpt>
      <trkpt lat="48.8771" lon="2.28342">
        <ele>46.400001525879</ele>
        <time>2016-05-16T20:29:17.000Z</time>
      </trkpt>
      <trkpt lat="48.87714" lon="2.28371">
        <ele>47.400001525879</ele>
        <time>2016-05-16T20:29:25.000Z</time>
      </trkpt>
      <trkpt lat="48.87708" lon="2.28395">
        <ele>48</ele>
        <time>2016-05-16T20:29:35.000Z</time>
      </trkpt>
      <trkpt lat="48.87702" lon="2.28398">
        <ele>48.200000762939</ele>
        <time>2016-05-16T20:29:43.000Z</time>
      </trkpt>
      <trkpt lat="48.87696" lon="2.28423">
        <ele>49.200000762939</ele>
        <time>2016-05-16T20:29:51.000Z</time>
      </trkpt>
      <trkpt lat="48.87687" lon="2.28448">
        <ele>50</ele>
        <time>2016-05-16T20:29:56.000Z</time>
      </trkpt>
      <trkpt lat="48.87681" lon="2.28474">
        <ele>51.200000762939</ele>
        <time>2016-05-16T20:30:02.000Z</time>
      </trkpt>
      <trkpt lat="48.87672" lon="2.285">
        <ele>52.400001525879</ele>
        <time>2016-05-16T20:30:08.000Z</time>
      </trkpt>
      <trkpt lat="48.87661" lon="2.28527">
        <ele>53.400001525879</ele>
        <time>2016-05-16T20:30:14.000Z</time>
      </trkpt>
      <trkpt lat="48.87651" lon="2.28553">
        <ele>54.400001525879</ele>
        <time>2016-05-16T20:30:20.000Z</time>
      </trkpt>
      <trkpt lat="48.87658" lon="2.28591">
        <ele>54.400001525879</ele>
        <time>2016-05-16T20:30:27.000Z</time>
      </trkpt>
      <trkpt lat="48.87655" lon="2.28621">
        <ele>55</ele>
        <time>2016-05-16T20:30:33.000Z</time>
      </trkpt>
      <trkpt lat="48.87648" lon="2.28649">
        <ele>54.400001525879</ele>
        <time>2016-05-16T20:30:39.000Z</time>
      </trkpt>
      <trkpt lat="48.87636" lon="2.28672">
        <ele>54.599998474121</ele>
        <time>2016-05-16T20:30:44.000Z</time>
      </trkpt>
      <trkpt lat="48.87624" lon="2.28698">
        <ele>55.200000762939</ele>
        <time>2016-05-16T20:30:48.000Z</time>
      </trkpt>
      <trkpt lat="48.87623" lon="2.28703">
        <ele>55.200000762939</ele>
        <time>2016-05-16T20:30:49.000Z</time>
      </trkpt>
      <trkpt lat="48.87616" lon="2.28731">
        <ele>55.200000762939</ele>
        <time>2016-05-16T20:30:54.000Z</time>
      </trkpt>
      <trkpt lat="48.87614" lon="2.28737">
        <ele>55</ele>
        <time>2016-05-16T20:30:55.000Z</time>
      </trkpt>
      <trkpt lat="48.8761" lon="2.28766">
        <ele>55.799999237061</ele>
        <time>2016-05-16T20:31:00.000Z</time>
      </trkpt>
      <trkpt lat="48.87604" lon="2.28793">
        <ele>56.799999237061</ele>
        <time>2016-05-16T20:31:05.000Z</time>
      </trkpt>
      <trkpt lat="48.87598" lon="2.28819">
        <ele>58.200000762939</ele>
        <time>2016-05-16T20:31:10.000Z</time>
      </trkpt>
      <trkpt lat="48.87588" lon="2.28845">
        <ele>58.599998474121</ele>
        <time>2016-05-16T20:31:15.000Z</time>
      </trkpt>
      <trkpt lat="48.87579" lon="2.28874">
        <ele>59.400001525879</ele>
        <time>2016-05-16T20:31:20.000Z</time>
      </trkpt>
      <trkpt lat="48.87572" lon="2.28905">
        <ele>60.799999237061</ele>
        <time>2016-05-16T20:31:26.000Z</time>
      </trkpt>
      <trkpt lat="48.87567" lon="2.28935">
        <ele>61.400001525879</ele>
        <time>2016-05-16T20:31:32.000Z</time>
      </trkpt>
      <trkpt lat="48.87565" lon="2.28966">
        <ele>62.200000762939</ele>
        <time>2016-05-16T20:31:38.000Z</time>
      </trkpt>
      <trkpt lat="48.8756" lon="2.29001">
        <ele>64.400001525879</ele>
        <time>2016-05-16T20:31:44.000Z</time>
      </trkpt>
      <trkpt lat="48.87555" lon="2.29029">
        <ele>65.400001525879</ele>
        <time>2016-05-16T20:31:50.000Z</time>
      </trkpt>
      <trkpt lat="48.87545" lon="2.29057">
        <ele>65.599998474121</ele>
        <time>2016-05-16T20:31:55.000Z</time>
      </trkpt>
      <trkpt lat="48.87539" lon="2.29088">
        <ele>66.400001525879</ele>
        <time>2016-05-16T20:32:00.000Z</time>
      </trkpt>
      <trkpt lat="48.87534" lon="2.29115">
        <ele>66.800003051758</ele>
        <time>2016-05-16T20:32:05.000Z</time>
      </trkpt>
      <trkpt lat="48.87526" lon="2.29141">
        <ele>66.400001525879</ele>
        <time>2016-05-16T20:32:10.000Z</time>
      </trkpt>
      <trkpt lat="48.87519" lon="2.2917">
        <ele>66.400001525879</ele>
        <time>2016-05-16T20:32:15.000Z</time>
      </trkpt>
      <trkpt lat="48.87512" lon="2.29197">
        <ele>67.400001525879</ele>
        <time>2016-05-16T20:32:20.000Z</time>
      </trkpt>
      <trkpt lat="48.87504" lon="2.29223">
        <ele>68.400001525879</ele>
        <time>2016-05-16T20:32:25.000Z</time>
      </trkpt>
      <trkpt lat="48.87494" lon="2.29246">
        <ele>67</ele>
        <time>2016-05-16T20:32:30.000Z</time>
      </trkpt>
      <trkpt lat="48.87471" lon="2.29257">
        <ele>65.199996948242</ele>
        <time>2016-05-16T20:32:34.000Z</time>
      </trkpt>
      <trkpt lat="48.87451" lon="2.29273">
        <ele>63.400001525879</ele>
        <time>2016-05-16T20:32:41.000Z</time>
      </trkpt>
      <trkpt lat="48.87448" lon="2.29277">
        <ele>63</ele>
        <time>2016-05-16T20:32:44.000Z</time>
      </trkpt>
      <trkpt lat="48.87446" lon="2.2928">
        <ele>62.799999237061</ele>
        <time>2016-05-16T20:32:48.000Z</time>
      </trkpt>
      <trkpt lat="48.87445" lon="2.29282">
        <ele>62.599998474121</ele>
        <time>2016-05-16T20:32:50.000Z</time>
      </trkpt>
      <trkpt lat="48.87442" lon="2.29287">
        <ele>62.200000762939</ele>
        <time>2016-05-16T20:32:56.000Z</time>
      </trkpt>
      <trkpt lat="48.87437" lon="2.29286">
        <ele>62.200000762939</ele>
        <time>2016-05-16T20:33:01.000Z</time>
      </trkpt>
      <trkpt lat="48.87433" lon="2.29289">
        <ele>62.400001525879</ele>
        <time>2016-05-16T20:33:08.000Z</time>
      </trkpt>
      <trkpt lat="48.87423" lon="2.29296">
        <ele>62.599998474121</ele>
        <time>2016-05-16T20:33:27.000Z</time>
      </trkpt>
      <trkpt lat="48.87424" lon="2.29302">
        <ele>62.400001525879</ele>
        <time>2016-05-16T20:34:28.000Z</time>
      </trkpt>
      <trkpt lat="48.8742" lon="2.2933">
        <ele>62</ele>
        <time>2016-05-16T20:34:38.000Z</time>
      </trkpt>
      <trkpt lat="48.87416" lon="2.29346">
        <ele>61.599998474121</ele>
        <time>2016-05-16T20:34:43.000Z</time>
      </trkpt>
      <trkpt lat="48.87422" lon="2.29353">
        <ele>61</ele>
        <time>2016-05-16T20:34:47.000Z</time>
      </trkpt>
      <trkpt lat="48.87429" lon="2.29362">
        <ele>60.400001525879</ele>
        <time>2016-05-16T20:34:54.000Z</time>
      </trkpt>
      <trkpt lat="48.87437" lon="2.29369">
        <ele>59.799999237061</ele>
        <time>2016-05-16T20:35:08.000Z</time>
      </trkpt>
      <trkpt lat="48.87431" lon="2.29396">
        <ele>59</ele>
        <time>2016-05-16T20:35:35.000Z</time>
      </trkpt>
      <trkpt lat="48.87352" lon="2.29641">
        <ele>62.400001525879</ele>
        <time>2016-05-16T20:36:42.000Z</time>
      </trkpt>
      <trkpt lat="48.87352" lon="2.29642">
        <ele>62.400001525879</ele>
        <time>2016-05-16T20:36:46.000Z</time>
      </trkpt>
      <trkpt lat="48.87345" lon="2.29663">
        <ele>63.200000762939</ele>
        <time>2016-05-16T20:36:56.000Z</time>
      </trkpt>
      <trkpt lat="48.87345" lon="2.29657">
        <ele>63</ele>
        <time>2016-05-16T20:37:00.000Z</time>
      </trkpt>
      <trkpt lat="48.87345" lon="2.29656">
        <ele>63</ele>
        <time>2016-05-16T20:37:02.000Z</time>
      </trkpt>
      <trkpt lat="48.87336" lon="2.29649">
        <ele>62.799999237061</ele>
        <time>2016-05-16T20:37:58.000Z</time>
      </trkpt>
      <trkpt lat="48.8733" lon="2.29649">
        <ele>63</ele>
        <time>2016-05-16T20:38:02.000Z</time>
      </trkpt>
      <trkpt lat="48.8732" lon="2.29673">
        <ele>63.799999237061</ele>
        <time>2016-05-16T20:38:11.000Z</time>
      </trkpt>
      <trkpt lat="48.87317" lon="2.29682">
        <ele>64</ele>
        <time>2016-05-16T20:38:17.000Z</time>
      </trkpt>
      <trkpt lat="48.87301" lon="2.29697">
        <ele>64.599998474121</ele>
        <time>2016-05-16T20:38:34.000Z</time>
      </trkpt>
      <trkpt lat="48.87298" lon="2.29698">
        <ele>65</ele>
        <time>2016-05-16T20:38:39.000Z</time>
      </trkpt>
      <trkpt lat="48.87288" lon="2.29723">
        <ele>67.400001525879</ele>
        <time>2016-05-16T20:38:52.000Z</time>
      </trkpt>
      <trkpt lat="48.8728" lon="2.29753">
        <ele>69.800003051758</ele>
        <time>2016-05-16T20:38:58.000Z</time>
      </trkpt>
      <trkpt lat="48.87271" lon="2.29778">
        <ele>69</ele>
        <time>2016-05-16T20:39:04.000Z</time>
      </trkpt>
      <trkpt lat="48.87264" lon="2.29807">
        <ele>68</ele>
        <time>2016-05-16T20:39:12.000Z</time>
      </trkpt>
      <trkpt lat="48.87258" lon="2.29836">
        <ele>67.199996948242</ele>
        <time>2016-05-16T20:39:17.000Z</time>
      </trkpt>
      <trkpt lat="48.87252" lon="2.29865">
        <ele>66</ele>
        <time>2016-05-16T20:39:23.000Z</time>
      </trkpt>
      <trkpt lat="48.87246" lon="2.29892">
        <ele>65</ele>
        <time>2016-05-16T20:39:27.000Z</time>
      </trkpt>
      <trkpt lat="48.87236" lon="2.29922">
        <ele>63.799999237061</ele>
        <time>2016-05-16T20:39:33.000Z</time>
      </trkpt>
      <trkpt lat="48.87229" lon="2.2995">
        <ele>63.599998474121</ele>
        <time>2016-05-16T20:39:37.000Z</time>
      </trkpt>
      <trkpt lat="48.87221" lon="2.29979">
        <ele>62.200000762939</ele>
        <time>2016-05-16T20:39:41.000Z</time>
      </trkpt>
      <trkpt lat="48.87213" lon="2.30007">
        <ele>61.599998474121</ele>
        <time>2016-05-16T20:39:45.000Z</time>
      </trkpt>
      <trkpt lat="48.87206" lon="2.30029">
        <ele>61</ele>
        <time>2016-05-16T20:39:49.000Z</time>
      </trkpt>
      <trkpt lat="48.87206" lon="2.30053">
        <ele>59.799999237061</ele>
        <time>2016-05-16T20:39:53.000Z</time>
      </trkpt>
      <trkpt lat="48.8719" lon="2.30083">
        <ele>57</ele>
        <time>2016-05-16T20:39:59.000Z</time>
      </trkpt>
      <trkpt lat="48.87182" lon="2.30095">
        <ele>56.799999237061</ele>
        <time>2016-05-16T20:40:02.000Z</time>
      </trkpt>
      <trkpt lat="48.87179" lon="2.30099">
        <ele>56.799999237061</ele>
        <time>2016-05-16T20:40:03.000Z</time>
      </trkpt>
      <trkpt lat="48.87172" lon="2.30118">
        <ele>56.599998474121</ele>
        <time>2016-05-16T20:40:07.000Z</time>
      </trkpt>
      <trkpt lat="48.87164" lon="2.30148">
        <ele>55.400001525879</ele>
        <time>2016-05-16T20:40:13.000Z</time>
      </trkpt>
      <trkpt lat="48.87159" lon="2.30176">
        <ele>53.799999237061</ele>
        <time>2016-05-16T20:40:17.000Z</time>
      </trkpt>
      <trkpt lat="48.87151" lon="2.30205">
        <ele>53.599998474121</ele>
        <time>2016-05-16T20:40:22.000Z</time>
      </trkpt>
      <trkpt lat="48.87148" lon="2.30214">
        <ele>53.599998474121</ele>
        <time>2016-05-16T20:40:25.000Z</time>
      </trkpt>
      <trkpt lat="48.87144" lon="2.30242">
        <ele>53.799999237061</ele>
        <time>2016-05-16T20:40:37.000Z</time>
      </trkpt>
      <trkpt lat="48.87144" lon="2.30258">
        <ele>54.200000762939</ele>
        <time>2016-05-16T20:40:50.000Z</time>
      </trkpt>
      <trkpt lat="48.87149" lon="2.30277">
        <ele>54.799999237061</ele>
        <time>2016-05-16T20:41:17.000Z</time>
      </trkpt>
      <trkpt lat="48.87141" lon="2.30303">
        <ele>55.200000762939</ele>
        <time>2016-05-16T20:41:24.000Z</time>
      </trkpt>
      <trkpt lat="48.87134" lon="2.30325">
        <ele>55.599998474121</ele>
        <time>2016-05-16T20:41:30.000Z</time>
      </trkpt>
      <trkpt lat="48.87125" lon="2.30354">
        <ele>55.599998474121</ele>
        <time>2016-05-16T20:41:39.000Z</time>
      </trkpt>
      <trkpt lat="48.87118" lon="2.3038">
        <ele>55.400001525879</ele>
        <time>2016-05-16T20:41:44.000Z</time>
      </trkpt>
      <trkpt lat="48.87107" lon="2.30404">
        <ele>55</ele>
        <time>2016-05-16T20:41:47.000Z</time>
      </trkpt>
      <trkpt lat="48.87097" lon="2.30428">
        <ele>54.599998474121</ele>
        <time>2016-05-16T20:41:51.000Z</time>
      </trkpt>
      <trkpt lat="48.87087" lon="2.30456">
        <ele>53.799999237061</ele>
        <time>2016-05-16T20:41:56.000Z</time>
      </trkpt>
      <trkpt lat="48.87071" lon="2.30476">
        <ele>52.799999237061</ele>
        <time>2016-05-16T20:42:01.000Z</time>
      </trkpt>
      <trkpt lat="48.87058" lon="2.30501">
        <ele>51.400001525879</ele>
        <time>2016-05-16T20:42:06.000Z</time>
      </trkpt>
      <trkpt lat="48.8705" lon="2.30528">
        <ele>50.799999237061</ele>
        <time>2016-05-16T20:42:11.000Z</time>
      </trkpt>
      <trkpt lat="48.87043" lon="2.30555">
        <ele>49.200000762939</ele>
        <time>2016-05-16T20:42:16.000Z</time>
      </trkpt>
      <trkpt lat="48.87038" lon="2.30584">
        <ele>47.599998474121</ele>
        <time>2016-05-16T20:42:23.000Z</time>
      </trkpt>
      <trkpt lat="48.87037" lon="2.30589">
        <ele>47.599998474121</ele>
        <time>2016-05-16T20:42:25.000Z</time>
      </trkpt>
      <trkpt lat="48.8703" lon="2.30617">
        <ele>48.599998474121</ele>
        <time>2016-05-16T20:42:33.000Z</time>
      </trkpt>
      <trkpt lat="48.87016" lon="2.30639">
        <ele>50.200000762939</ele>
        <time>2016-05-16T20:42:40.000Z</time>
      </trkpt>
      <trkpt lat="48.87001" lon="2.30659">
        <ele>50.799999237061</ele>
        <time>2016-05-16T20:42:45.000Z</time>
      </trkpt>
      <trkpt lat="48.86989" lon="2.30682">
        <ele>50.400001525879</ele>
        <time>2016-05-16T20:42:50.000Z</time>
      </trkpt>
      <trkpt lat="48.8698" lon="2.30707">
        <ele>49.799999237061</ele>
        <time>2016-05-16T20:42:54.000Z</time>
      </trkpt>
      <trkpt lat="48.86971" lon="2.30735">
        <ele>46.599998474121</ele>
        <time>2016-05-16T20:42:58.000Z</time>
      </trkpt>
      <trkpt lat="48.8696" lon="2.30766">
        <ele>43.400001525879</ele>
        <time>2016-05-16T20:43:02.000Z</time>
      </trkpt>
      <trkpt lat="48.86953" lon="2.30792">
        <ele>43.200000762939</ele>
        <time>2016-05-16T20:43:05.000Z</time>
      </trkpt>
      <trkpt lat="48.86947" lon="2.30818">
        <ele>43</ele>
        <time>2016-05-16T20:43:09.000Z</time>
      </trkpt>
      <trkpt lat="48.86939" lon="2.30844">
        <ele>43</ele>
        <time>2016-05-16T20:43:14.000Z</time>
      </trkpt>
      <trkpt lat="48.86936" lon="2.30848">
        <ele>43</ele>
        <time>2016-05-16T20:43:16.000Z</time>
      </trkpt>
      <trkpt lat="48.86935" lon="2.30852">
        <ele>43</ele>
        <time>2016-05-16T20:43:19.000Z</time>
      </trkpt>
      <trkpt lat="48.86929" lon="2.30871">
        <ele>43.200000762939</ele>
        <time>2016-05-16T20:43:43.000Z</time>
      </trkpt>
      <trkpt lat="48.86923" lon="2.30885">
        <ele>43.200000762939</ele>
        <time>2016-05-16T20:44:15.000Z</time>
      </trkpt>
      <trkpt lat="48.86914" lon="2.3091">
        <ele>42.599998474121</ele>
        <time>2016-05-16T20:44:23.000Z</time>
      </trkpt>
      <trkpt lat="48.86911" lon="2.30915">
        <ele>42.400001525879</ele>
        <time>2016-05-16T20:44:25.000Z</time>
      </trkpt>
      <trkpt lat="48.86893" lon="2.30924">
        <ele>42</ele>
        <time>2016-05-16T20:44:34.000Z</time>
      </trkpt>
      <trkpt lat="48.86875" lon="2.30928">
        <ele>41.599998474121</ele>
        <time>2016-05-16T20:44:42.000Z</time>
      </trkpt>
      <trkpt lat="48.86863" lon="2.30953">
        <ele>40</ele>
        <time>2016-05-16T20:44:50.000Z</time>
      </trkpt>
      <trkpt lat="48.86852" lon="2.30975">
        <ele>39</ele>
        <time>2016-05-16T20:44:55.000Z</time>
      </trkpt>
      <trkpt lat="48.86836" lon="2.30995">
        <ele>38.400001525879</ele>
        <time>2016-05-16T20:45:02.000Z</time>
      </trkpt>
      <trkpt lat="48.86816" lon="2.31001">
        <ele>38.200000762939</ele>
        <time>2016-05-16T20:45:08.000Z</time>
      </trkpt>
      <trkpt lat="48.86796" lon="2.31004">
        <ele>38.400001525879</ele>
        <time>2016-05-16T20:45:13.000Z</time>
      </trkpt>
      <trkpt lat="48.86774" lon="2.31005">
        <ele>38.799999237061</ele>
        <time>2016-05-16T20:45:18.000Z</time>
      </trkpt>
      <trkpt lat="48.86753" lon="2.31003">
        <ele>39.599998474121</ele>
        <time>2016-05-16T20:45:23.000Z</time>
      </trkpt>
      <trkpt lat="48.8673" lon="2.31005">
        <ele>40.400001525879</ele>
        <time>2016-05-16T20:45:28.000Z</time>
      </trkpt>
      <trkpt lat="48.86709" lon="2.31002">
        <ele>41.200000762939</ele>
        <time>2016-05-16T20:45:32.000Z</time>
      </trkpt>
      <trkpt lat="48.8669" lon="2.31">
        <ele>42</ele>
        <time>2016-05-16T20:45:34.000Z</time>
      </trkpt>
      <trkpt lat="48.86667" lon="2.31002">
        <ele>42.599998474121</ele>
        <time>2016-05-16T20:45:38.000Z</time>
      </trkpt>
      <trkpt lat="48.86649" lon="2.31005">
        <ele>43</ele>
        <time>2016-05-16T20:45:41.000Z</time>
      </trkpt>
      <trkpt lat="48.86625" lon="2.3101">
        <ele>43.599998474121</ele>
        <time>2016-05-16T20:45:45.000Z</time>
      </trkpt>
      <trkpt lat="48.86606" lon="2.31013">
        <ele>43.599998474121</ele>
        <time>2016-05-16T20:45:49.000Z</time>
      </trkpt>
      <trkpt lat="48.86587" lon="2.31017">
        <ele>42.799999237061</ele>
        <time>2016-05-16T20:45:53.000Z</time>
      </trkpt>
      <trkpt lat="48.86568" lon="2.31021">
        <ele>42</ele>
        <time>2016-05-16T20:45:57.000Z</time>
      </trkpt>
      <trkpt lat="48.86548" lon="2.31028">
        <ele>41</ele>
        <time>2016-05-16T20:46:01.000Z</time>
      </trkpt>
      <trkpt lat="48.86532" lon="2.31031">
        <ele>39.599998474121</ele>
        <time>2016-05-16T20:46:05.000Z</time>
      </trkpt>
      <trkpt lat="48.8651" lon="2.31039">
        <ele>36.799999237061</ele>
        <time>2016-05-16T20:46:10.000Z</time>
      </trkpt>
      <trkpt lat="48.86493" lon="2.3105">
        <ele>33.799999237061</ele>
        <time>2016-05-16T20:46:17.000Z</time>
      </trkpt>
      <trkpt lat="48.86476" lon="2.31049">
        <ele>32.200000762939</ele>
        <time>2016-05-16T20:46:25.000Z</time>
      </trkpt>
      <trkpt lat="48.86475" lon="2.31049">
        <ele>32</ele>
        <time>2016-05-16T20:46:27.000Z</time>
      </trkpt>
      <trkpt lat="48.86462" lon="2.31045">
        <ele>30.799999237061</ele>
        <time>2016-05-16T20:46:41.000Z</time>
      </trkpt>
      <trkpt lat="48.86455" lon="2.3105">
        <ele>29.799999237061</ele>
        <time>2016-05-16T20:46:59.000Z</time>
      </trkpt>
      <trkpt lat="48.86453" lon="2.31076">
        <ele>28.60000038147</ele>
        <time>2016-05-16T20:47:05.000Z</time>
      </trkpt>
      <trkpt lat="48.86453" lon="2.31104">
        <ele>28.60000038147</ele>
        <time>2016-05-16T20:47:10.000Z</time>
      </trkpt>
      <trkpt lat="48.86453" lon="2.31134">
        <ele>28.60000038147</ele>
        <time>2016-05-16T20:47:15.000Z</time>
      </trkpt>
      <trkpt lat="48.86456" lon="2.31165">
        <ele>29</ele>
        <time>2016-05-16T20:47:20.000Z</time>
      </trkpt>
      <trkpt lat="48.86459" lon="2.31196">
        <ele>31.799999237061</ele>
        <time>2016-05-16T20:47:25.000Z</time>
      </trkpt>
      <trkpt lat="48.8646" lon="2.31229">
        <ele>35</ele>
        <time>2016-05-16T20:47:30.000Z</time>
      </trkpt>
      <trkpt lat="48.86463" lon="2.31259">
        <ele>37.200000762939</ele>
        <time>2016-05-16T20:47:34.000Z</time>
      </trkpt>
      <trkpt lat="48.86463" lon="2.31292">
        <ele>36.599998474121</ele>
        <time>2016-05-16T20:47:38.000Z</time>
      </trkpt>
      <trkpt lat="48.86464" lon="2.31302">
        <ele>36.200000762939</ele>
        <time>2016-05-16T20:47:39.000Z</time>
      </trkpt>
      <trkpt lat="48.86465" lon="2.3132">
        <ele>35.799999237061</ele>
        <time>2016-05-16T20:47:42.000Z</time>
      </trkpt>
      <trkpt lat="48.86461" lon="2.31352">
        <ele>33.400001525879</ele>
        <time>2016-05-16T20:48:11.000Z</time>
      </trkpt>
      <trkpt lat="48.86464" lon="2.31383">
        <ele>32.799999237061</ele>
        <time>2016-05-16T20:48:18.000Z</time>
      </trkpt>
      <trkpt lat="48.86465" lon="2.31407">
        <ele>32.200000762939</ele>
        <time>2016-05-16T20:48:22.000Z</time>
      </trkpt>
      <trkpt lat="48.86467" lon="2.31439">
        <ele>34.400001525879</ele>
        <time>2016-05-16T20:48:27.000Z</time>
      </trkpt>
      <trkpt lat="48.8647" lon="2.31473">
        <ele>34.599998474121</ele>
        <time>2016-05-16T20:48:32.000Z</time>
      </trkpt>
      <trkpt lat="48.86469" lon="2.31507">
        <ele>33.200000762939</ele>
        <time>2016-05-16T20:48:36.000Z</time>
      </trkpt>
      <trkpt lat="48.8647" lon="2.31538">
        <ele>30.799999237061</ele>
        <time>2016-05-16T20:48:40.000Z</time>
      </trkpt>
      <trkpt lat="48.86472" lon="2.3157">
        <ele>30</ele>
        <time>2016-05-16T20:48:44.000Z</time>
      </trkpt>
      <trkpt lat="48.86473" lon="2.31604">
        <ele>28</ele>
        <time>2016-05-16T20:48:48.000Z</time>
      </trkpt>
      <trkpt lat="48.86476" lon="2.31641">
        <ele>27.39999961853</ele>
        <time>2016-05-16T20:48:52.000Z</time>
      </trkpt>
      <trkpt lat="48.86478" lon="2.3167">
        <ele>27.799999237061</ele>
        <time>2016-05-16T20:48:55.000Z</time>
      </trkpt>
      <trkpt lat="48.86482" lon="2.31705">
        <ele>30</ele>
        <time>2016-05-16T20:48:59.000Z</time>
      </trkpt>
      <trkpt lat="48.86484" lon="2.31742">
        <ele>36.400001525879</ele>
        <time>2016-05-16T20:49:03.000Z</time>
      </trkpt>
      <trkpt lat="48.86485" lon="2.31773">
        <ele>37.200000762939</ele>
        <time>2016-05-16T20:49:07.000Z</time>
      </trkpt>
      <trkpt lat="48.86484" lon="2.31794">
        <ele>37</ele>
        <time>2016-05-16T20:49:09.000Z</time>
      </trkpt>
      <trkpt lat="48.86473" lon="2.31826">
        <ele>33.799999237061</ele>
        <time>2016-05-16T20:49:12.000Z</time>
      </trkpt>
      <trkpt lat="48.86463" lon="2.31843">
        <ele>32.799999237061</ele>
        <time>2016-05-16T20:49:15.000Z</time>
      </trkpt>
      <trkpt lat="48.86455" lon="2.31856">
        <ele>32</ele>
        <time>2016-05-16T20:49:17.000Z</time>
      </trkpt>
      <trkpt lat="48.86444" lon="2.31884">
        <ele>29.39999961853</ele>
        <time>2016-05-16T20:49:22.000Z</time>
      </trkpt>
      <trkpt lat="48.8644" lon="2.31894">
        <ele>28.39999961853</ele>
        <time>2016-05-16T20:49:24.000Z</time>
      </trkpt>
      <trkpt lat="48.86432" lon="2.3192">
        <ele>27.200000762939</ele>
        <time>2016-05-16T20:49:29.000Z</time>
      </trkpt>
      <trkpt lat="48.86424" lon="2.31941">
        <ele>27.799999237061</ele>
        <time>2016-05-16T20:49:33.000Z</time>
      </trkpt>
      <trkpt lat="48.86416" lon="2.31967">
        <ele>28.60000038147</ele>
        <time>2016-05-16T20:49:38.000Z</time>
      </trkpt>
      <trkpt lat="48.86411" lon="2.31983">
        <ele>29</ele>
        <time>2016-05-16T20:49:42.000Z</time>
      </trkpt>
      <trkpt lat="48.86405" lon="2.31996">
        <ele>29.200000762939</ele>
        <time>2016-05-16T20:50:42.000Z</time>
      </trkpt>
      <trkpt lat="48.86401" lon="2.32025">
        <ele>30</ele>
        <time>2016-05-16T20:50:49.000Z</time>
      </trkpt>
      <trkpt lat="48.86392" lon="2.32054">
        <ele>30.200000762939</ele>
        <time>2016-05-16T20:50:55.000Z</time>
      </trkpt>
      <trkpt lat="48.86382" lon="2.32084">
        <ele>29.60000038147</ele>
        <time>2016-05-16T20:51:00.000Z</time>
      </trkpt>
      <trkpt lat="48.86373" lon="2.32109">
        <ele>29.799999237061</ele>
        <time>2016-05-16T20:51:04.000Z</time>
      </trkpt>
      <trkpt lat="48.86364" lon="2.32136">
        <ele>29.39999961853</ele>
        <time>2016-05-16T20:51:08.000Z</time>
      </trkpt>
      <trkpt lat="48.86359" lon="2.32152">
        <ele>29.200000762939</ele>
        <time>2016-05-16T20:51:10.000Z</time>
      </trkpt>
      <trkpt lat="48.86352" lon="2.32179">
        <ele>29.60000038147</ele>
        <time>2016-05-16T20:51:13.000Z</time>
      </trkpt>
      <trkpt lat="48.86344" lon="2.32207">
        <ele>30.799999237061</ele>
        <time>2016-05-16T20:51:16.000Z</time>
      </trkpt>
      <trkpt lat="48.86336" lon="2.32237">
        <ele>31.799999237061</ele>
        <time>2016-05-16T20:51:19.000Z</time>
      </trkpt>
      <trkpt lat="48.86326" lon="2.32267">
        <ele>31.200000762939</ele>
        <time>2016-05-16T20:51:22.000Z</time>
      </trkpt>
      <trkpt lat="48.86317" lon="2.32298">
        <ele>30.60000038147</ele>
        <time>2016-05-16T20:51:25.000Z</time>
      </trkpt>
      <trkpt lat="48.86306" lon="2.3233">
        <ele>30.200000762939</ele>
        <time>2016-05-16T20:51:28.000Z</time>
      </trkpt>
      <trkpt lat="48.86294" lon="2.32364">
        <ele>29.39999961853</ele>
        <time>2016-05-16T20:51:31.000Z</time>
      </trkpt>
      <trkpt lat="48.86283" lon="2.32399">
        <ele>28</ele>
        <time>2016-05-16T20:51:34.000Z</time>
      </trkpt>
      <trkpt lat="48.86273" lon="2.32433">
        <ele>27.39999961853</ele>
        <time>2016-05-16T20:51:37.000Z</time>
      </trkpt>
      <trkpt lat="48.8626" lon="2.32468">
        <ele>28.39999961853</ele>
        <time>2016-05-16T20:51:40.000Z</time>
      </trkpt>
      <trkpt lat="48.86247" lon="2.32502">
        <ele>29.200000762939</ele>
        <time>2016-05-16T20:51:43.000Z</time>
      </trkpt>
      <trkpt lat="48.86237" lon="2.32534">
        <ele>29.799999237061</ele>
        <time>2016-05-16T20:51:46.000Z</time>
      </trkpt>
      <trkpt lat="48.86226" lon="2.32565">
        <ele>30.200000762939</ele>
        <time>2016-05-16T20:51:49.000Z</time>
      </trkpt>
      <trkpt lat="48.86216" lon="2.32599">
        <ele>30.799999237061</ele>
        <time>2016-05-16T20:51:52.000Z</time>
      </trkpt>
      <trkpt lat="48.86206" lon="2.32632">
        <ele>30.200000762939</ele>
        <time>2016-05-16T20:51:55.000Z</time>
      </trkpt>
      <trkpt lat="48.86196" lon="2.32665">
        <ele>29.200000762939</ele>
        <time>2016-05-16T20:51:58.000Z</time>
      </trkpt>
      <trkpt lat="48.86186" lon="2.32699">
        <ele>30.200000762939</ele>
        <time>2016-05-16T20:52:01.000Z</time>
      </trkpt>
      <trkpt lat="48.86175" lon="2.32731">
        <ele>31.39999961853</ele>
        <time>2016-05-16T20:52:04.000Z</time>
      </trkpt>
      <trkpt lat="48.86165" lon="2.32762">
        <ele>31.200000762939</ele>
        <time>2016-05-16T20:52:07.000Z</time>
      </trkpt>
      <trkpt lat="48.86156" lon="2.32792">
        <ele>32.200000762939</ele>
        <time>2016-05-16T20:52:10.000Z</time>
      </trkpt>
      <trkpt lat="48.86147" lon="2.32823">
        <ele>31</ele>
        <time>2016-05-16T20:52:13.000Z</time>
      </trkpt>
      <trkpt lat="48.86137" lon="2.32853">
        <ele>30</ele>
        <time>2016-05-16T20:52:16.000Z</time>
      </trkpt>
      <trkpt lat="48.86127" lon="2.32881">
        <ele>31.200000762939</ele>
        <time>2016-05-16T20:52:19.000Z</time>
      </trkpt>
      <trkpt lat="48.86117" lon="2.32909">
        <ele>33.200000762939</ele>
        <time>2016-05-16T20:52:22.000Z</time>
      </trkpt>
      <trkpt lat="48.86114" lon="2.32919">
        <ele>33.400001525879</ele>
        <time>2016-05-16T20:52:23.000Z</time>
      </trkpt>
      <trkpt lat="48.86105" lon="2.32947">
        <ele>37.400001525879</ele>
        <time>2016-05-16T20:52:26.000Z</time>
      </trkpt>
      <trkpt lat="48.86096" lon="2.32972">
        <ele>41.400001525879</ele>
        <time>2016-05-16T20:52:29.000Z</time>
      </trkpt>
      <trkpt lat="48.8609" lon="2.32992">
        <ele>43.200000762939</ele>
        <time>2016-05-16T20:52:32.000Z</time>
      </trkpt>
      <trkpt lat="48.86081" lon="2.33002">
        <ele>42.599998474121</ele>
        <time>2016-05-16T20:52:40.000Z</time>
      </trkpt>
      <trkpt lat="48.86081" lon="2.33002">
        <ele>42.599998474121</ele>
        <time>2016-05-16T20:52:41.000Z</time>
      </trkpt>
      <trkpt lat="48.86097" lon="2.32996">
        <ele>43.599998474121</ele>
        <time>2016-05-16T20:53:00.000Z</time>
      </trkpt>
      <trkpt lat="48.86104" lon="2.33004">
        <ele>43.599998474121</ele>
        <time>2016-05-16T20:54:26.000Z</time>
      </trkpt>
      <trkpt lat="48.86122" lon="2.3302">
        <ele>42</ele>
        <time>2016-05-16T20:54:31.000Z</time>
      </trkpt>
      <trkpt lat="48.86139" lon="2.33034">
        <ele>40.599998474121</ele>
        <time>2016-05-16T20:54:34.000Z</time>
      </trkpt>
      <trkpt lat="48.86159" lon="2.3305">
        <ele>39</ele>
        <time>2016-05-16T20:54:37.000Z</time>
      </trkpt>
      <trkpt lat="48.86183" lon="2.33067">
        <ele>36.599998474121</ele>
        <time>2016-05-16T20:54:40.000Z</time>
      </trkpt>
      <trkpt lat="48.86201" lon="2.33079">
        <ele>35.799999237061</ele>
        <time>2016-05-16T20:54:42.000Z</time>
      </trkpt>
      <trkpt lat="48.86219" lon="2.33089">
        <ele>35.599998474121</ele>
        <time>2016-05-16T20:54:44.000Z</time>
      </trkpt>
      <trkpt lat="48.86315" lon="2.33154">
        <ele>37.599998474121</ele>
        <time>2016-05-16T20:54:57.000Z</time>
      </trkpt>
      <trkpt lat="48.86318" lon="2.33158">
        <ele>37.799999237061</ele>
        <time>2016-05-16T20:54:58.000Z</time>
      </trkpt>
      <trkpt lat="48.86335" lon="2.33173">
        <ele>39</ele>
        <time>2016-05-16T20:55:02.000Z</time>
      </trkpt>
      <trkpt lat="48.86341" lon="2.33179">
        <ele>39.599998474121</ele>
        <time>2016-05-16T20:55:04.000Z</time>
      </trkpt>
      <trkpt lat="48.86357" lon="2.33194">
        <ele>40.799999237061</ele>
        <time>2016-05-16T20:55:10.000Z</time>
      </trkpt>
      <trkpt lat="48.86367" lon="2.33204">
        <ele>41.799999237061</ele>
        <time>2016-05-16T20:55:15.000Z</time>
      </trkpt>
      <trkpt lat="48.86358" lon="2.33229">
        <ele>43</ele>
        <time>2016-05-16T20:55:28.000Z</time>
      </trkpt>
      <trkpt lat="48.86349" lon="2.33254">
        <ele>44.400001525879</ele>
        <time>2016-05-16T20:55:35.000Z</time>
      </trkpt>
      <trkpt lat="48.86342" lon="2.3328">
        <ele>45.799999237061</ele>
        <time>2016-05-16T20:55:41.000Z</time>
      </trkpt>
      <trkpt lat="48.86332" lon="2.33304">
        <ele>47</ele>
        <time>2016-05-16T20:55:49.000Z</time>
      </trkpt>
      <trkpt lat="48.8633" lon="2.33314">
        <ele>47</ele>
        <time>2016-05-16T20:55:52.000Z</time>
      </trkpt>
      <trkpt lat="48.86327" lon="2.33345">
        <ele>47.400001525879</ele>
        <time>2016-05-16T20:55:59.000Z</time>
      </trkpt>
      <trkpt lat="48.86328" lon="2.33375">
        <ele>48.599998474121</ele>
        <time>2016-05-16T20:56:04.000Z</time>
      </trkpt>
      <trkpt lat="48.8632" lon="2.33406">
        <ele>47.799999237061</ele>
        <time>2016-05-16T20:56:10.000Z</time>
      </trkpt>
      <trkpt lat="48.86305" lon="2.33427">
        <ele>45.599998474121</ele>
        <time>2016-05-16T20:56:15.000Z</time>
      </trkpt>
      <trkpt lat="48.8629" lon="2.33447">
        <ele>44.200000762939</ele>
        <time>2016-05-16T20:56:23.000Z</time>
      </trkpt>
      <trkpt lat="48.86278" lon="2.33485">
        <ele>44</ele>
        <time>2016-05-16T20:56:34.000Z</time>
      </trkpt>
      <trkpt lat="48.86283" lon="2.33501">
        <ele>44.400001525879</ele>
        <time>2016-05-16T20:56:37.000Z</time>
      </trkpt>
      <trkpt lat="48.86269" lon="2.33524">
        <ele>45.200000762939</ele>
        <time>2016-05-16T20:56:44.000Z</time>
      </trkpt>
      <trkpt lat="48.86255" lon="2.33548">
        <ele>46.200000762939</ele>
        <time>2016-05-16T20:56:49.000Z</time>
      </trkpt>
      <trkpt lat="48.86245" lon="2.33572">
        <ele>48</ele>
        <time>2016-05-16T20:56:54.000Z</time>
      </trkpt>
      <trkpt lat="48.86258" lon="2.33612">
        <ele>48</ele>
        <time>2016-05-16T20:56:59.000Z</time>
      </trkpt>
      <trkpt lat="48.86262" lon="2.33643">
        <ele>47.599998474121</ele>
        <time>2016-05-16T20:57:05.000Z</time>
      </trkpt>
      <trkpt lat="48.86271" lon="2.33658">
        <ele>47.200000762939</ele>
        <time>2016-05-16T20:57:16.000Z</time>
      </trkpt>
      <trkpt lat="48.86272" lon="2.33666">
        <ele>47</ele>
        <time>2016-05-16T20:57:37.000Z</time>
      </trkpt>
      <trkpt lat="48.8627" lon="2.33694">
        <ele>46.799999237061</ele>
        <time>2016-05-16T20:57:43.000Z</time>
      </trkpt>
      <trkpt lat="48.86274" lon="2.33703">
        <ele>46.599998474121</ele>
        <time>2016-05-16T20:57:45.000Z</time>
      </trkpt>
      <trkpt lat="48.86279" lon="2.33731">
        <ele>46</ele>
        <time>2016-05-16T20:57:50.000Z</time>
      </trkpt>
      <trkpt lat="48.86277" lon="2.33737">
        <ele>46</ele>
        <time>2016-05-16T20:57:51.000Z</time>
      </trkpt>
      <trkpt lat="48.86268" lon="2.33764">
        <ele>45.799999237061</ele>
        <time>2016-05-16T20:57:55.000Z</time>
      </trkpt>
      <trkpt lat="48.86267" lon="2.3377">
        <ele>45.799999237061</ele>
        <time>2016-05-16T20:57:56.000Z</time>
      </trkpt>
      <trkpt lat="48.86259" lon="2.33796">
        <ele>45.599998474121</ele>
        <time>2016-05-16T20:58:00.000Z</time>
      </trkpt>
      <trkpt lat="48.8625" lon="2.33823">
        <ele>44.799999237061</ele>
        <time>2016-05-16T20:58:04.000Z</time>
      </trkpt>
      <trkpt lat="48.86242" lon="2.33851">
        <ele>45</ele>
        <time>2016-05-16T20:58:08.000Z</time>
      </trkpt>
      <trkpt lat="48.86235" lon="2.3388">
        <ele>45.799999237061</ele>
        <time>2016-05-16T20:58:12.000Z</time>
      </trkpt>
      <trkpt lat="48.8623" lon="2.33908">
        <ele>46.400001525879</ele>
        <time>2016-05-16T20:58:16.000Z</time>
      </trkpt>
      <trkpt lat="48.8622" lon="2.33938">
        <ele>46.599998474121</ele>
        <time>2016-05-16T20:58:20.000Z</time>
      </trkpt>
      <trkpt lat="48.86214" lon="2.33961">
        <ele>47.599998474121</ele>
        <time>2016-05-16T20:58:23.000Z</time>
      </trkpt>
      <trkpt lat="48.86205" lon="2.33993">
        <ele>49</ele>
        <time>2016-05-16T20:58:27.000Z</time>
      </trkpt>
      <trkpt lat="48.86198" lon="2.34022">
        <ele>49.400001525879</ele>
        <time>2016-05-16T20:58:31.000Z</time>
      </trkpt>
      <trkpt lat="48.86194" lon="2.34028">
        <ele>49.200000762939</ele>
        <time>2016-05-16T20:58:32.000Z</time>
      </trkpt>
      <trkpt lat="48.86184" lon="2.34055">
        <ele>48.799999237061</ele>
        <time>2016-05-16T20:58:36.000Z</time>
      </trkpt>
      <trkpt lat="48.86178" lon="2.34081">
        <ele>48.599998474121</ele>
        <time>2016-05-16T20:58:40.000Z</time>
      </trkpt>
      <trkpt lat="48.86173" lon="2.34097">
        <ele>48.599998474121</ele>
        <time>2016-05-16T20:58:45.000Z</time>
      </trkpt>
      <trkpt lat="48.86173" lon="2.341">
        <ele>48.599998474121</ele>
        <time>2016-05-16T20:58:46.000Z</time>
      </trkpt>
      <trkpt lat="48.86172" lon="2.34104">
        <ele>48.599998474121</ele>
        <time>2016-05-16T20:58:49.000Z</time>
      </trkpt>
      <trkpt lat="48.86175" lon="2.34107">
        <ele>48.799999237061</ele>
        <time>2016-05-16T20:59:10.000Z</time>
      </trkpt>
      <trkpt lat="48.86167" lon="2.34135">
        <ele>48.799999237061</ele>
        <time>2016-05-16T20:59:21.000Z</time>
      </trkpt>
      <trkpt lat="48.86158" lon="2.34159">
        <ele>49.200000762939</ele>
        <time>2016-05-16T20:59:25.000Z</time>
      </trkpt>
      <trkpt lat="48.86149" lon="2.34185">
        <ele>49</ele>
        <time>2016-05-16T20:59:29.000Z</time>
      </trkpt>
      <trkpt lat="48.86143" lon="2.34217">
        <ele>49</ele>
        <time>2016-05-16T20:59:34.000Z</time>
      </trkpt>
      <trkpt lat="48.86137" lon="2.34243">
        <ele>49.400001525879</ele>
        <time>2016-05-16T20:59:38.000Z</time>
      </trkpt>
      <trkpt lat="48.86134" lon="2.34271">
        <ele>49</ele>
        <time>2016-05-16T20:59:42.000Z</time>
      </trkpt>
      <trkpt lat="48.86133" lon="2.34304">
        <ele>49.799999237061</ele>
        <time>2016-05-16T20:59:46.000Z</time>
      </trkpt>
      <trkpt lat="48.86126" lon="2.34336">
        <ele>50.200000762939</ele>
        <time>2016-05-16T20:59:51.000Z</time>
      </trkpt>
      <trkpt lat="48.8612" lon="2.34362">
        <ele>49.799999237061</ele>
        <time>2016-05-16T20:59:55.000Z</time>
      </trkpt>
      <trkpt lat="48.86116" lon="2.34393">
        <ele>49.599998474121</ele>
        <time>2016-05-16T21:00:01.000Z</time>
      </trkpt>
      <trkpt lat="48.86112" lon="2.34425">
        <ele>49.200000762939</ele>
        <time>2016-05-16T21:00:06.000Z</time>
      </trkpt>
      <trkpt lat="48.86114" lon="2.34456">
        <ele>49.200000762939</ele>
        <time>2016-05-16T21:00:10.000Z</time>
      </trkpt>
      <trkpt lat="48.8611" lon="2.34474">
        <ele>50</ele>
        <time>2016-05-16T21:00:13.000Z</time>
      </trkpt>
      <trkpt lat="48.861" lon="2.34498">
        <ele>51.200000762939</ele>
        <time>2016-05-16T21:00:17.000Z</time>
      </trkpt>
      <trkpt lat="48.86087" lon="2.34521">
        <ele>51.200000762939</ele>
        <time>2016-05-16T21:00:21.000Z</time>
      </trkpt>
      <trkpt lat="48.86076" lon="2.34544">
        <ele>51.200000762939</ele>
        <time>2016-05-16T21:00:25.000Z</time>
      </trkpt>
      <trkpt lat="48.86063" lon="2.3457">
        <ele>50</ele>
        <time>2016-05-16T21:00:30.000Z</time>
      </trkpt>
      <trkpt lat="48.86059" lon="2.34573">
        <ele>49.799999237061</ele>
        <time>2016-05-16T21:00:31.000Z</time>
      </trkpt>
      <trkpt lat="48.8604" lon="2.3459">
        <ele>48.400001525879</ele>
        <time>2016-05-16T21:00:36.000Z</time>
      </trkpt>
      <trkpt lat="48.86025" lon="2.34603">
        <ele>48.200000762939</ele>
        <time>2016-05-16T21:00:40.000Z</time>
      </trkpt>
      <trkpt lat="48.86013" lon="2.34613">
        <ele>48</ele>
        <time>2016-05-16T21:00:43.000Z</time>
      </trkpt>
      <trkpt lat="48.85995" lon="2.34628">
        <ele>48</ele>
        <time>2016-05-16T21:00:47.000Z</time>
      </trkpt>
      <trkpt lat="48.85972" lon="2.34638">
        <ele>47.799999237061</ele>
        <time>2016-05-16T21:00:51.000Z</time>
      </trkpt>
      <trkpt lat="48.85955" lon="2.34651">
        <ele>47.400001525879</ele>
        <time>2016-05-16T21:00:55.000Z</time>
      </trkpt>
      <trkpt lat="48.85953" lon="2.34656">
        <ele>47.200000762939</ele>
        <time>2016-05-16T21:00:56.000Z</time>
      </trkpt>
      <trkpt lat="48.8596" lon="2.34694">
        <ele>46.200000762939</ele>
        <time>2016-05-16T21:01:01.000Z</time>
      </trkpt>
      <trkpt lat="48.85959" lon="2.34697">
        <ele>46</ele>
        <time>2016-05-16T21:01:02.000Z</time>
      </trkpt>
      <trkpt lat="48.85944" lon="2.34711">
        <ele>45.400001525879</ele>
        <time>2016-05-16T21:01:10.000Z</time>
      </trkpt>
      <trkpt lat="48.85943" lon="2.34715">
        <ele>45.200000762939</ele>
        <time>2016-05-16T21:01:15.000Z</time>
      </trkpt>
      <trkpt lat="48.85943" lon="2.34716">
        <ele>45.200000762939</ele>
        <time>2016-05-16T21:01:16.000Z</time>
      </trkpt>
    </trkseg>
  </trk>
</gpx>